     2              OBSERVATION DATA    GPS                 RINEX VERSION / TYPE
teqc 1997Sep28 Duncan Agnew 19980804 18:54:23UTC            PGM / RUN BY / DATE
                                                            COMMENT
Original Marker Name: SOLEDAD LA JOLLA                      COMMENT
Campaign Name: SIO2 to Soledad 1990                         COMMENT
4-Character Station Name: SOLJ                              COMMENT
6-Character Antenna Code: TRMSST                            COMMENT
Vertical Measurement Point: BGP                             COMMENT
Vertical Offset to Rinex Ref. Point: 0.0597                 COMMENT
Radial Measurement Point: NGP                               COMMENT
Radial Offset to Rinex Ref. Point: 0.2334                   COMMENT
Antenna Height from Field Measurement: 1.0393 m             COMMENT
Original XYZ: -2456369.8869 -4768869.0118 3439191.7433      COMMENT
New XYZ position is based on association with SCEC monument COMMENT
E1C8P4L7+0011. Position of that monument is believed to be  COMMENT
valid to within 1 m horizontally; vertical accuracy         COMMENT
should be no worse than 3-times this value.                 COMMENT
                                                            COMMENT
Revised Rinex header created by UCSD GPS archive for        COMMENT
GSAC on 10-Apr-1999 (1999:100) 03:48:17 GMT                 COMMENT
For assistance contact dagnew@ucsd.edu or hjohnson@ucsd.edu COMMENT
                                                            COMMENT
UNSTAMPED PLUG (SOLEDAD 1887)                               MARKER NAME
Sanchez SCRIPPS INSTITUTION OF OCEANOGRAPHY                 OBSERVER / AGENCY
495 TRIMBLE 4000 SST NP 4.11 / SP 4.10                      REC # / TYPE / VERS
32 TR 4000SST L1/L2 GEO                                     ANT # / TYPE
 -2456384.0000 -4768853.0000  3439167.0000                  APPROX POSITION XYZ
        0.9531        0.0000        0.0000                  ANTENNA: DELTA H/E/N
     1     1     0                                          WAVELENGTH FACT L1/2
     3    C1    L1    L2                                    # / TYPES OF OBSERV
     0                                                      INTERVAL
  1990     7    26    17    11   15.000000                  TIME OF FIRST OBS
  1990     7    26    22    18   45.000000                  TIME OF LAST OBS
     0                                                      # OF SATELLITES
                                                            END OF HEADER
 90  7 26 17 11 15.0000000  0  4G 2G 6G11G18
  21919429.9774         -0.85047
  21963182.8914         -0.11057
  21900403.7894         -0.02657
  23912554.3204         -0.32554
 90  7 26 17 11 30.0000000  0  4G 2G 6G11G18
  21923269.9924      20162.98247
  21956846.5004     -33306.22647
  21903208.3834      14746.98647
  23904385.0944     -42913.31144
 90  7 26 17 11 45.0000000  0  4G 2G 6G11G18
  21927103.5634      40320.48947        -0.00772
  21950508.9224     -66615.51347        -0.40472
  21906035.3444      29596.87547        -0.20872
  23896231.9924     -85764.57943        -0.48671
 90  7 26 17 12  0.0000000  0  4G 2G 6G11G18
  21930940.5004      60470.20347     15701.04062
  21944167.4384     -99929.66647    -25959.46862
  21908877.6334      44547.55547     11649.65762
  23888089.1414    -128556.15143    -33344.49261
 90  7 26 17 12 15.0000000  0  4G 2G 6G11G18
  21934772.8284      80618.09447     31400.66262
  21937827.6724    -133243.32247    -51918.14162
  21911745.9534      59603.89447     23381.85562
  23879960.2664    -171284.68543    -66639.41461
 90  7 26 17 12 30.0000000  0  4G 2G 6G11G18
  21938605.7664     100765.89847     47100.21362
  21931489.8204    -166557.01847    -77876.84162
  21914630.6644      74764.89147     35195.60062
  23871839.6484    -213950.48243    -99885.43761
 90  7 26 17 12 45.0000000  0  4G 2G 6G11G18
  21942443.5314     120934.16047     62815.71062
  21925151.2114    -199852.50946   -103821.35962
  21917538.4304      90048.27947     47104.70862
  23863737.3834    -256534.41443   -133067.67461
 90  7 26 17 13  0.0000000  0  4G 2G 6G11G18
  21946285.3054     141115.77647     78541.61562
  21918817.5474    -233138.51946   -129758.49562
  21920466.5554     105444.93947     59102.08262
  23855645.7194    -299043.61344   -166191.66361
 90  7 26 17 13 15.0000000  0  4G 2G 6G11G18
  21950126.9384     161301.07847     94270.39562
  21912485.7734    -266424.03347   -155695.24262
  21923416.5004     120945.31147     71180.27362
  23847570.4774    -341485.50844   -199263.22661
 90  7 26 17 13 30.0000000  0  4G 2G 6G11G18
  21953967.8674     181484.48747    109997.69462
  21906149.9844    -299712.36047   -181634.17562
  21926385.7814     136545.79547     83336.46662
  23839508.6254    -383861.85844   -232283.67061
 90  7 26 17 13 45.0000000  0  4G 2G 6G11G18
  21957807.7814     201668.92047    125725.79962
  21899816.6884    -332999.25147   -207571.99162
  21929373.4844     152250.05147     95573.52662
  23831456.5634    -426168.07845   -265249.48261
 90  7 26 17 14  0.0000000  0  4G 2G 6G11G18
  21961649.0474     221854.11347    141454.48562
  21893483.7814    -366284.07547   -233508.19262
  21932384.1334     168058.32847    107891.63562
  23823420.0634    -468403.51045   -298160.16261
 90  7 26 17 14 15.0000000  0  4G 2G 6G11G18
  21965490.1334     242040.30347    157183.94862
  21887149.5084    -399565.58647   -259441.80962
  21935410.5164     183971.27747    120291.31262
  23815396.8284    -510566.21045   -331014.12961
 90  7 26 17 14 30.0000000  0  4G 2G 6G11G18
  21969335.9614     262232.67247    172918.22962
  21880816.6724    -432837.30747   -285367.80262
  21938457.9534     199994.97247    132777.28262
  23807390.7504    -552649.49945   -363806.27161
 90  7 26 17 14 45.0000000  0  4G 2G 6G11G18
  21973187.7194     282486.27947    188700.23362
  21874497.6804    -466043.03947   -311242.37262
  21941540.7584     216185.27447    145393.07862
  23799402.2664    -594597.32645   -396492.83761
 90  7 26 17 15  0.0000000  0  4G 2G 6G11G18
  21977055.6804     302812.15047    204538.53862
  21868195.9924    -499169.99747   -337055.55862
  21944657.6484     232554.34547    158148.17262
  23791449.4844    -636398.03245   -429064.73561
 90  7 26 17 15 15.0000000  0  4G 2G 6G11G18
  21980942.3204     323243.95147    220459.39562
  21861911.9224    -532182.92747   -362779.89262
  21947809.7424     249136.91747    171069.63262
  23783533.5314    -678018.31445   -461496.04061
 90  7 26 17 15 30.0000000  0  4G 2G 6G11G18
  21984839.1334     343726.94847    236420.14862
  21855642.8834    -565134.90247   -388456.72162
  21950997.6334     265879.45747    184115.74462
  23775632.5784    -719512.14945   -493828.83061
 90  7 26 17 15 45.0000000  0  4G 2G 6G11G18
  21988744.2504     364248.96347    252411.30062
  21849381.5394    -598038.07347   -414095.52562
  21954212.3524     282769.40747    197276.71762
  23767760.0864    -760893.20945   -526073.76361
 90  7 26 17 16  0.0000000  0  4G 2G 6G11G18
  21992657.9144     384802.48347    268427.00762
  21843127.2504    -630900.56547   -439702.63462
  21957450.4224     299798.13447    210545.82762
  23759906.5784    -802169.57745   -558237.07561
 90  7 26 17 16 15.0000000  0  4G 2G 6G11G18
  21996574.2344     405386.49647    284466.46062
  21836881.7114    -663723.64747   -465279.03462
  21960717.7734     316963.90147    223921.72762
  23752072.3134    -843342.53245   -590319.82461
 90  7 26 17 16 30.0000000  0  4G 2G 6G11G18
  22000494.1564     425989.38247    300520.62862
  21830641.0394    -696518.42547   -490833.38262
  21964008.9614     334254.98747    237395.28262
  23744249.8594    -884423.24945   -622330.71361
 90  7 26 17 16 45.0000000  0  4G 2G 6G11G18
  22004418.5634     446609.94147    316588.56562
  21824404.6254    -729287.04647   -516367.33862
  21967323.3284     351668.92747    250964.56262
  23736451.7194    -925414.79145   -654272.10861
 90  7 26 17 17  0.0000000  0  4G 2G 6G11G18
  22008344.1094     467240.28147    332664.12762
  21818172.3284    -762037.18547   -541886.89762
  21970659.0474     369197.39147    264623.08262
  23728670.4614    -966324.53345   -686149.79461
 90  7 26 17 17 15.0000000  0  4G 2G 6G11G18
  22012271.8594     487875.76247    348743.69362
  21811943.2274    -794772.68347   -567395.04562
  21974017.3444     386836.07647    278367.49262
  23720894.7424   -1007154.82745   -717965.53461
 90  7 26 17 17 30.0000000  0  4G 2G 6G11G18
  22016201.8054     508522.11047    364831.72662
  21805717.0084    -827487.36647   -592886.98262
  21977393.0084     404590.70947    292202.24762
  23713140.0004   -1047898.59645   -749713.88461
 90  7 26 17 17 45.0000000  0  4G 2G 6G11G18
  22020132.9844     529178.65147    380927.70662
  21799495.5394    -860181.57147   -618362.96462
  21980792.4454     422460.46947    306126.70962
  23705406.3674   -1088554.37945   -781393.66861
 90  7 26 17 18  0.0000000  0  4G 2G 6G11G18
  22024060.5554     549838.88547    397026.55662
  21793275.8204    -892862.53447   -643828.62962
  21984214.9224     440437.73347    320134.94162
  23697688.1644   -1129128.19345   -813009.59461
 90  7 26 17 18 15.0000000  0  4G 2G 6G11G18
  22027993.8054     570509.92547    413133.83362
  21787062.8754    -925522.51447   -669277.93462
  21987659.3674     458529.71047    334232.55362
  23689986.0394   -1169611.90745   -844555.30661
 90  7 26 17 18 30.0000000  0  4G 2G 6G11G18
  22031932.8984     591190.80047    429248.76362
  21780850.9144    -958161.79147   -694711.11862
  21991120.0234     476735.61247    348418.94262
  23682298.3834   -1210004.87545   -876030.29561
 90  7 26 17 18 45.0000000  0  4G 2G 6G11G18
  22035866.1484     611876.18547    445367.18562
  21774642.5634    -990786.33047   -720132.83162
  21994608.8134     495048.84447    362688.95462
  23674623.8524   -1250312.60945   -907438.88461
 90  7 26 17 19  0.0000000  0  4G 2G 6G11G18
  22039806.6414     632563.13347    461486.85062
  21768435.8284   -1023398.63146   -745544.99262
  21998109.2424     513466.45447    377040.31962
  23666973.0314   -1290536.73045   -938782.28861
 90  7 26 17 19 15.0000000  0  4G 2G 6G11G18
  22043740.6174     653255.69147    477610.89662
  21762233.4774   -1055994.60246   -770944.43062
  22001639.5234     531992.07547    391475.83962
  23659336.5314   -1330672.53745   -970056.88861
 90  7 26 17 19 30.0000000  0  4G 2G 6G11G18
  22047681.5234     673953.08147    493738.69562
  21756033.6954   -1088574.93646   -796331.67962
  22005181.9224     550624.50947    405994.60262
  23651713.7424   -1370720.72745  -1001263.22561
 90  7 26 17 19 45.0000000  0  4G 2G 6G11G18
  22051622.3594     694648.18447    509864.73062
  21749835.9454   -1121146.71946   -821712.27462
  22008745.7274     569356.17447    420590.68062
  23644106.9454   -1410688.79045  -1032407.09661
 90  7 26 17 20  0.0000000  0  4G 2G 6G11G18
  22055558.6804     715349.36047    525995.48562
  21743640.5474   -1153702.24147   -847080.20562
  22012333.5234     588194.16647    435269.61062
  23636521.0864   -1450569.62645  -1063483.02761
 90  7 26 17 20 15.0000000  0  4G 2G 6G11G18
  22059498.3754     736056.33647    542130.75262
  21737449.2274   -1186241.72547   -872435.63362
  22015939.9534     607137.81947    450030.88062
  23628949.4774   -1490365.28545  -1094492.58361
 90  7 26 17 20 30.0000000  0  4G 2G 6G11G18
  22063436.2424     756767.23347    558269.07862
  21731258.8364   -1218766.71247   -897779.75662
  22019563.2584     626185.10347    464872.90062
  23621387.6564   -1530078.13345  -1125437.60961
 90  7 26 17 20 45.0000000  0  4G 2G 6G11G18
  22067380.7424     777489.26847    574416.10562
  21725073.2814   -1251270.11147   -923107.04862
  22023208.8984     645342.60047    479800.80462
  23613844.3204   -1569702.16345  -1156313.38661
 90  7 26 17 21  0.0000000  0  4G 2G 6G11G18
  22071327.0704     798218.33247    590568.57762
  21718891.1024   -1283755.03247   -948419.96162
  22026875.3134     664606.59147    494811.68062
  23606318.5394   -1609242.76145  -1187124.20761
 90  7 26 17 21 15.0000000  0  6G 2G 6G11G18G 9G13
  22075273.0394     818952.11047    606724.73462
  21712713.0704   -1316222.29847   -973719.11562
  22030560.5394     683975.78847    509904.53462
  23598815.3054   -1648701.52545  -1217871.25461
  24015674.4774         -0.16152
  24254933.0234     -65144.16745
 90  7 26 17 21 30.0000000  0  6G 2G 6G11G18G 9G13
  22079221.3914     839691.13047    622884.96362
  21706540.1094   -1348670.27147   -999003.23362
  22034265.2424     703451.26247    525080.20162
  23591319.4384   -1688077.53345  -1248553.81861
  24006226.2114     -49699.65742
  24242538.6024    -130278.62045
 90  7 26 17 21 45.0000000  0  6G 2G 6G11G18G 9G13
  22083169.4774     860436.19247    639049.91862
  21700367.1484   -1381097.10047  -1024270.86362
  22037990.0944     723034.36647    540339.74362
  23583844.6724   -1727367.92845  -1279169.65961
  23996764.0164     -99427.06142
  24230149.1804    -195401.36245
 90  7 26 17 22  0.0000000  0  6G 2G 6G11G18G 9G13
  22087114.7114     881188.56947    655220.57962
  21694202.7194   -1413502.30447  -1049521.64662
  22041741.9844     742725.17447    555683.21062
  23576384.2194   -1766572.35145  -1309718.52461
  23987301.5704    -149182.04642
  24217758.2814    -260511.75245
 90  7 26 17 22 15.0000000  0  6G 2G 6G11G18G 9G13
  22091067.1954     901944.11947    671393.69062
  21688040.1024   -1445889.65547  -1074758.52062
  22045506.4614     762519.12247    571107.03362
  23568941.6414   -1805694.56545  -1340203.31561
  23977821.7114    -198968.78742
  24205369.2424    -325613.73845
 90  7 26 17 22 30.0000000  0  6G 2G 6G11G18G 9G13
  22095017.5704     922704.54647    687570.60462
  21681880.7344   -1478255.85747  -1099978.90762
  22049290.3674     782419.19147    586613.55862
  23561512.9144   -1844729.99045  -1370620.48361
  23968347.3054    -248783.98242
  24192982.1724    -390703.66445
 90  7 26 17 22 45.0000000  0  6G 2G 6G11G18G 9G13
  22098969.3444     943470.90247    703752.16362
  21675725.1024   -1510599.13747  -1125181.43162
  22053100.4384     802426.55047    602203.70662
  23554101.9384   -1883674.86445  -1400967.05461
  23958863.6254    -298625.74743
  24180601.1334    -455779.69345
 90  7 26 17 23  0.0000000  0  6G 2G 6G11G18G 9G13
  22102920.3054     964239.80747    719935.68262
  21669574.9844   -1542921.56347  -1150367.72562
  22056928.0164     822538.73647    617875.51162
  23546705.8524   -1922529.78745  -1431243.56561
  23949377.1804    -348496.33143
  24168218.6954    -520843.74945        -0.25371
 90  7 26 17 23 15.0000000  0  6G 2G 6G11G18G 9G13
  22106877.7584     985017.24947    736125.85462
  21663428.0864   -1575216.82046  -1175532.84862
  22060774.1804     842761.47847    633633.44962
  23539332.2344   -1961285.95145  -1461443.12561
  23939878.4534    -398389.63843
  24155840.0234    -585889.18645    -50684.94361
 90  7 26 17 23 30.0000000  0  6G 2G 6G11G18G 9G13
  22110829.7424    1005800.09947    752320.25462
  21657287.8444   -1607489.13647  -1200680.07962
  22064644.8834     863090.07147    649473.87762
  23531977.0084   -1999946.31745  -1491568.03061
  23930374.8524    -448310.04443
  24143465.8984    -650920.25845   -101358.44761
 90  7 26 17 23 45.0000000  0  6G 2G 6G11G18G 9G13
  22114786.7424    1026591.95147    768521.66062
  21651152.0164   -1639735.37947  -1225806.99662
  22068534.1484     883526.94047    665398.68962
  23524638.8914   -2038506.88945  -1521615.17761
  23920880.3204    -498254.29044
  24131095.2424    -715933.80145   -152018.22761
 90  7 26 17 24  0.0000000  0  6G 2G 6G11G18G 9G13
  22118746.1334    1047395.14547    784731.90562
  21645022.4924   -1671954.75847  -1250912.98662
  22072443.0394     904072.43447    681408.13462
  23517318.8754   -2076967.60745  -1551584.50161
  23911364.2734    -548221.99743
  24118725.4384    -780928.82745   -202663.67261
 90  7 26 17 24 15.0000000  0  6G 2G 6G11G18G 9G13
  22122708.3914    1068214.74847    800954.93262
  21638896.6024   -1704142.72747  -1275994.50662
  22076372.2664     924730.64447    697505.41762
  23510019.3054   -2115324.37045  -1581472.84861
  23901854.5394    -598208.20943        -0.45771
  24106365.2504    -845900.72745   -253291.05961
 90  7 26 17 24 30.0000000  0  6G 2G 6G11G18G 9G13
  22126670.9844    1089044.26647
  21632775.3914   -1736304.28447  -1301055.44062
  22080324.7344     945495.72847
  23502738.3284   -2153582.98345  -1611284.71261
  23892338.9454    -648218.50343    -38969.42961
  24094005.3674    -910854.73845   -303904.48061
 90  7 26 17 24 45.0000000  0  6G 2G 6G11G18G 9G13
  22130639.5474    1109886.15647
  21626661.4774   -1768437.43047  -1326094.23662
  22084295.4224     966369.36947
  23495474.2344   -2191742.60045  -1641019.43561
  23882813.3914    -698250.85543    -77955.60061
  24081641.2584    -975788.59445   -354502.21561
 90  7 26 17 25  0.0000000  0  6G 2G 6G11G18G 9G13
  22134608.1024    1130740.47947    849676.16662
  21620552.1564   -1800542.04247  -1351110.80062
  22088289.8914     987351.06647    746300.47062
  23488232.3204   -2229804.04445  -1670677.66861
  23873292.1884    -748305.10143   -116958.84961
  24069280.6804   -1040701.69844   -405083.77361
 90  7 26 17 25 15.0000000  0  6G 2G 6G11G18G 9G13
  22138574.0704    1151604.94247    865934.15662
  21614447.2424   -1832621.50447  -1376107.77062
  22092304.9924    1008437.09847    762731.12262
  23481010.5004   -2267771.03945  -1700262.29361
  23863761.2344    -798384.81143   -155981.89561
  24056940.2274   -1105597.45845   -455651.84561
 90  7 26 17 25 30.0000000  0  6G 2G 6G11G18G 9G13
  22142545.7584    1172476.41747    882197.60162
  21608346.5234   -1864677.89947  -1401086.76962
  22096336.7734    1029624.65147    779240.87362
  23473800.1644   -2305648.28045  -1729776.97261
  23854218.5394    -848492.20643   -195026.48561
  24044596.6954   -1170478.04645   -506208.04261
 90  7 26 17 25 45.0000000  0  6G 2G 6G11G18G 9G13
  22146523.5634    1193358.66247    898469.44062
  21602251.9144   -1896706.07447  -1426043.77162
  22100385.9924    1050918.31047    795833.30862
  23466610.6334   -2343431.73845  -1759218.57461
  23844688.6954    -898622.30444   -234088.83861
  24032255.6174   -1235338.11145   -556748.27761
 90  7 26 17 26  0.0000000  0  6G 2G 6G11G18G 9G13
  22150498.0634    1214249.21347    914747.75862
  21596161.7274   -1928707.42347  -1450979.86762
  22104458.7814    1072316.24047    812507.00162
  23459443.7034   -2381122.95445  -1788588.30461
  23835143.0634    -948776.46345   -273169.92161
  24019913.1174   -1300178.71545   -607273.32361
 90  7 26 17 26 15.0000000  0  6G 2G 6G11G18G 9G13
  22154472.8834    1235150.00247    931034.04062
  21590079.8984   -1960678.93647  -1475892.71862
  22108554.1254    1093820.92947    829263.87862
  23452282.8754   -2418719.01145  -1817883.87261
  23825594.9614    -998951.88345   -312267.57161
  24007574.6954   -1364996.93945   -657780.94061
 90  7 26 17 26 30.0000000  0  6G 2G 6G11G18G 9G13
  22158456.7894    1256058.69147    947326.49062
  21583999.7814   -1992620.25847  -1500782.04362
  22112661.4064    1115432.17647    846103.77662
  23445146.0314   -2456219.56745  -1847105.03761
  23816043.3284   -1049148.04845   -351381.42661
  23995245.9064   -1429792.45345   -708270.89061
 90  7 26 17 26 45.0000000  0  6G 2G 6G11G18G 9G13
  22162431.3834    1276969.45047    963620.54962
  21577926.8834   -2024535.66747  -1525651.18362
  22116795.2274    1137145.10047    863022.91162
  23438031.9304   -2493628.46045  -1876254.78161
  23806483.5234   -1099369.63045   -390515.06661
  23982923.1884   -1494569.42545   -758746.32961
 90  7 26 17 27  0.0000000  0  6G 2G 6G11G18G 9G13
  22166413.8364    1297884.76047    979918.15462
  21571860.3524   -2056421.73847  -1550497.45862
  22120946.3674    1158962.54147    880023.49062
  23430927.3834   -2530940.64845  -1905329.19261
  23796920.2034   -1149613.25844   -429665.85561
  23970598.4614   -1559324.44345   -809204.70161
 90  7 26 17 27 15.0000000  0  6G 2G 6G11G18G 9G13
  22170394.6724    1318803.76047    996218.64262
  21565796.9694   -2088278.38847  -1575320.80662
  22125119.7194    1180884.13047    897105.22162
  23423846.6174   -2568154.62245  -1934327.04061
  23787358.5944   -1199878.77344   -468833.76461
  23958283.2344   -1624056.99045   -859645.54361
 90  7 26 17 27 30.0000000  0  6G 2G 6G11G18G 9G13
  22174372.5704    1339725.66747   1012521.38562
  21559740.5474   -2120106.54947  -1600121.95662
  22129311.6174    1202908.37347    914266.93762
  23416787.5084   -2605273.23845  -1963250.58461
  23777792.3594   -1250167.38244   -508019.60761
  23945968.3054   -1688767.86745   -910069.51361
 90  7 26 17 27 45.0000000  0  6G 2G 6G11G18G 9G13
  22178357.3134    1360651.80147   1028827.40662
  21553690.0394   -2151904.65647  -1624899.68962
  22133520.0554    1225036.05147    931509.25462
  23409741.6414   -2642294.27645  -1992098.11761
  23768219.2584   -1300477.63243   -547222.30961
  23933657.0474   -1753455.56945   -960475.41661
 90  7 26 17 28  0.0000000  0  6G 2G 6G11G18G 9G13
  22182342.5864    1381582.59547   1045137.07862
  21547644.2814   -2183674.53347  -1649655.41862
  22137748.6254    1247265.02247    948830.50562
  23402713.1954   -2679218.48845  -2020870.18661
  23758640.1174   -1350811.38443   -586443.30761
  23921350.6564   -1818121.68845  -1010864.51061
 90  7 26 17 28 15.0000000  0  6G 2G 6G11G18G 9G13
  22186325.7344    1402521.59846   1061453.14862
  21541605.0314   -2215413.13347  -1674386.77462
  22142000.5314    1269597.65547    966232.53462
  23395705.5164   -2716043.53945  -2049564.97161
  23749054.6804   -1401165.59043   -625680.28061
  23909050.4064   -1882763.06245  -1061234.30461
 90  7 26 17 28 30.0000000  0  6G 2G 6G11G18G 9G13
  22190313.2584    1423465.59446   1077773.09962
  21535570.8204   -2247122.85447  -1699095.63262
  22146268.6884    1292030.86547    983712.92862
  23388716.5864   -2752771.54445  -2078184.17261
  23739466.2974   -1451542.98243   -664935.27061
  23896755.3594   -1947382.39945  -1111586.95861
 90  7 26 17 28 45.0000000  0  6G 2G 6G11G18G 9G13
  22194299.6724    1444417.04546   1094098.87362
  21529541.4144   -2278802.02047  -1723780.68062
  22150557.5314    1314566.09947   1001272.81762
  23381745.4224   -2789400.62645  -2106726.29061
  23729881.1414   -1501941.67043   -704206.89761
  23884466.3754   -2011977.60845  -1161920.75361
 90  7 26 17 29  0.0000000  0  6G 2G 6G11G18G 9G13
  22198287.9614    1465376.58047   1110430.94262
  21523517.9454   -2310450.83147  -1748442.07762
  22154864.4064    1337202.38947   1018911.45262
  23374799.9844   -2825930.16645  -2135190.83061
  23720283.6094   -1552362.15544   -743495.47261
  23872176.5234   -2076548.70345  -1212235.80261
 90  7 26 17 29 15.0000000  0  6G 2G 6G11G18G 9G13
  22202279.5084    1486349.71447   1126773.60361
  21517502.7194   -2342064.62347  -1773076.18762
  22159191.2034    1359943.73047   1036631.94362
  23367869.1644   -2862355.62445  -2163574.27761
  23710684.1644   -1602799.87044   -782797.51061
  23859892.4454   -2141091.08045  -1262528.50461
 90  7 26 17 29 30.0000000  0  6G 2G 6G11G18G 9G13
  22206269.0314    1507332.58347   1143123.83362
  21511492.6414   -2373646.75347  -1797685.62062
  22163540.6724    1382786.41347   1054431.41562
  23360954.9774   -2898682.61746  -2191880.97261
  23701077.8364   -1653258.09444   -822115.55861
  23847612.9064   -2205607.95645  -1312801.27461
 90  7 26 17 29 45.0000000  0  6G 2G 6G11G18G 9G13
  22210264.2664    1528330.03046   1159485.42562
  21505490.1884   -2405190.96047  -1822265.50162
  22167908.0474    1405736.21647   1072314.33962
  23354059.7274   -2934904.30846  -2220105.61361
  23691476.5704   -1703730.74344   -861444.81561
  23835346.2734   -2270092.89445  -1363049.20561
 90  7 26 17 30  0.0000000  0  6G 2G 6G11G18G 9G13
  22214264.5784    1549335.76746   1175853.49562
  21499494.1174   -2436701.63747  -1846819.25862
  22172292.4924    1428787.98647   1090276.73862
  23347188.3524   -2971023.53745  -2248250.41261
  23681867.1644   -1754222.40044   -900788.91761
  23823082.5394   -2334550.38145  -1413275.72661
 90  7 26 17 30 15.0000000  0  6G 2G 6G11G18G 9G13
  22218260.6804    1570352.74646   1192230.34262
  21493505.3914   -2468174.46347  -1871343.52762
  22176702.0394    1451945.60947   1108321.61162
  23340332.7504   -3007036.61245  -2276312.50361
  23672251.3914   -1804728.71944   -940144.38961
  23810820.0314   -2398975.66745  -1463477.14361
 90  7 26 17 30 30.0000000  0  6G 2G 6G11G18G 9G13
  22222261.5704    1591371.38146   1208608.45362
  21487523.5234   -2499616.31447  -1895843.65962
  22181126.0944    1475201.48747   1126443.05062
  23333499.8594   -3042949.91945  -2304296.87461
  23662637.8054   -1855256.75245   -979516.85061
  23798565.8364   -2463375.69145  -1513658.89361
 90  7 26 17 30 45.0000000  0  6G 2G 6G11G18G 9G13
  22226263.0784    1612398.00547   1224992.78762
  21481545.7584   -2531020.84847  -1920314.70662
  22185573.6954    1498561.22847   1144645.41662
  23326682.5554   -3078757.61445  -2332198.94061
  23653029.0704   -1905800.31345  -1018901.33861
  23786315.0164   -2527744.25545  -1563816.11661
 90  7 26 17 31  0.0000000  0  6G 2G 6G11G18G 9G13
  22230269.0084    1633430.84847   1241381.98761
  21475577.1644   -2562390.77547  -1944758.78862
  22190035.8754    1522021.85447   1162926.39862
  23319890.2894   -3114461.53045  -2360020.13761
  23643403.3284   -1956362.08945  -1058300.04761
  23774071.6644   -2592083.60045  -1613950.57161
 90  7 26 17 31 15.0000000  0  6G 2G 6G11G18G 9G13
  22234267.6484    1654469.45646   1257775.66062
  21469615.4384   -2593725.24947  -1969175.24762
  22194520.4844    1545583.55447   1181286.13862
  23313115.0394   -3150062.31346  -2387760.95561
  23633776.6094   -2006941.27245  -1097712.32361
  23761838.5084   -2656392.89445  -1664061.62061
 90  7 26 17 31 30.0000000  0  6G 2G 6G11G18G 9G13
  22238270.6954    1675506.18346   1274167.87462
  21463656.5704   -2625031.47447  -1993569.69162
  22199021.2424    1569238.53647   1199718.56762
  23306358.5474   -3185568.50246  -2415428.07661
  23624148.7424   -2057545.28645  -1137143.94061
  23749598.9224   -2720679.35445  -1714154.87861
 90  7 26 17 31 45.0000000  0  6G 2G 6G11G18G 9G13
  22242278.3914    1696553.42746   1290568.29262
  21457705.1884   -2656298.24247  -2017933.39562
  22203540.0004    1592997.51047   1218232.01862
  23299623.4304   -3220967.75346  -2443011.85461
  23614514.7584   -2108162.87245  -1176586.15161
  23737372.1644   -2784931.90645  -1764221.70961
 90  7 26 17 32  0.0000000  0  6G 2G 6G11G18G 9G13
  22246285.9774    1717612.23446   1306977.71461
  21451764.6644   -2687526.15947  -2042266.82063
  22208081.2424    1616859.30647   1236825.60062
  23292905.6414   -3256259.72146  -2470512.05061
  23604882.0394   -2158794.85945  -1216039.55561
  23725152.6414   -2849150.79045  -1814262.32061
 90  7 26 17 32 15.0000000  0  6G 2G 6G11G18G 9G13
  22250297.4064    1738687.54047   1323399.98762
  21445830.7734   -2718712.04847  -2066567.50062
  22212642.4224    1640826.41847   1255501.25162
  23286212.3754   -3291442.96946  -2497927.52761
  23595244.3364   -2209438.23945  -1255501.85061
  23712938.9224   -2913332.68045  -1864274.05461
 90  7 26 17 32 30.0000000  0  6G 2G 6G11G18G 9G13
  22254309.6954    1759777.89147   1339833.99362
  21439902.4774   -2749858.41247  -2090837.38662
  22217224.8524    1664895.72247   1274256.52462
  23279534.2894   -3326519.34945  -2525259.72361
  23585603.2974   -2260095.35045  -1294974.85561
  23700736.1334   -2977480.11245  -1914258.96461
 90  7 26 17 32 45.0000000  0  6G 2G 6G11G18G 9G13
  22258323.8134    1780881.86046   1356278.60061
  21433983.4694   -2780966.49647  -2115077.43862
  22221824.5234    1689065.47647   1293090.05962
  23272876.5084   -3361490.01345  -2552509.57261
  23575966.2274   -2310767.71745  -1334459.72661
  23688533.2034   -3041594.18345  -1964217.85061
 90  7 26 17 33  0.0000000  0  6G 2G 6G11G18G 9G13
  22262343.8444    1801999.97647   1372734.23761
  21428070.9064   -2812036.38047  -2139287.72562
  22226441.3364    1713334.84247   1312001.20762
  23266245.2974   -3396355.65045  -2579677.58261
  23566318.8054   -2361455.61145  -1373956.71861
  23676337.9454   -3105674.87345  -2014150.80661
 90  7 26 17 33 15.0000000  0  6G 2G 6G11G18G 9G13
  22266367.8444    1823133.42847   1389201.83861
  21422166.8524   -2843064.55947  -2163465.51162
  22231079.2504    1737706.77647   1330992.28962
  23259633.6644   -3431112.80445  -2606761.05861
  23556667.8754   -2412155.40845  -1413462.99161
  23664149.7664   -3169718.66345  -2064054.94961
 90  7 26 17 33 30.0000000  0  6G 2G 6G11G18G 9G13
  22270392.2664    1844281.05947   1405680.47061
  21416271.1644   -2874052.08447  -2187611.61562
  22235735.9384    1762179.85447   1350062.19862
  23253041.1644   -3465762.22545  -2633760.58061
  23547017.5394   -2462868.23945  -1452979.40461
  23651972.3594   -3233726.36045  -2113931.00861
 90  7 26 17 33 45.0000000  0  6G 2G 6G11G18G 9G13
  22274419.3524    1865445.74747   1422172.39161
  21410380.1954   -2904995.54847  -2211723.39362
  22240413.5084    1786756.76647   1369213.00962
  23246467.2504   -3500300.28945  -2660673.30461
  23537365.5164   -2513590.95945  -1492503.52861
  23639798.0474   -3297694.50645  -2163776.20161
 90  7 26 17 34  0.0000000  0  6G 2G 6G11G18G 9G13
  22278446.5234    1886621.96147   1438673.30961
  21404500.7814   -2935898.80547  -2235803.84362
  22245112.1414    1811433.06647   1388441.25862
  23239914.0474   -3534731.29545  -2687502.62761
  23527708.2814   -2564327.29845  -1532038.27861
  23627630.9774   -3361626.98645  -2213593.60961
 90  7 26 17 34 15.0000000  0  6G 2G 6G11G18G 9G13
  22282480.0004    1907808.63547   1455182.36661
  21398628.3134   -2966761.92347  -2259853.02262
  22249824.5314    1836208.20947   1407746.52562
  23233383.5004   -3569056.25845  -2714249.31261
  23518052.5234   -2615077.39245  -1571583.75861
  23615473.3594   -3425523.73945  -2263383.26861
 90  7 26 17 34 30.0000000  0  6G 2G 6G11G18G 9G13
  22286514.3674    1929006.04247   1471699.78561
  21392764.5084   -2997582.67847  -2283869.18562
  22254556.6334    1861083.71547   1427130.01061
  23226872.4534   -3603273.74045  -2740912.26161
  23508390.1254   -2665839.33345  -1611138.40661
  23603324.2894   -3489382.29645  -2313143.06761
 90  7 26 17 34 45.0000000  0  6G 2G 6G11G18G 9G13
  22290548.8204    1950213.58647   1488225.12061
  21386906.2274   -3028359.41447  -2307851.04062
  22259313.1174    1886060.61247   1446592.49861
  23220385.7424   -3637380.99445  -2767489.32561
  23498730.3364   -2716611.40645  -1650700.98561
  23591178.0554   -3553201.09345  -2362871.89261
 90  7 26 17 35  0.0000000  0  6G 2G 6G11G18G 9G13
  22294585.5004    1971423.39246   1504752.20061
  21381057.1884   -3059099.48447  -2331804.32562
  22264081.6644    1911130.99347   1466127.83061
  23213915.0704   -3671386.26445  -2793986.91161
  23489067.7194   -2767401.02245  -1690277.27861
  23579037.8754   -3616987.44345  -2412575.43861
 90  7 26 17 35 15.0000000  0  6G 2G 6G11G18G 9G13
  22298622.9694    1992641.38447   1521285.65961
  21375216.4924   -3089796.43947  -2355724.01262
  22268871.9454    1936300.50947   1485740.40062
  23207462.7194   -3705283.78145  -2820400.54361
  23479398.0784   -2818202.18145  -1729862.51061
  23566909.0164   -3680734.88645  -2462248.70161
 90  7 26 17 35 30.0000000  0  6G 2G 6G11G18G 9G13
  22302663.6724    2013869.16647   1537826.74361
  21369381.5784   -3120449.71947  -2379609.67662
  22273678.7734    1961569.50047   1505430.48161
  23201032.4144   -3739072.00145  -2846729.00261
  23469728.0634   -2869013.94045  -1769456.03361
  23554785.8364   -3744442.46545  -2511890.87961
 90  7 26 17 35 45.0000000  0  6G 2G 6G11G18G 9G13
  22306706.6414    2035108.59447   1554376.91761
  21363556.1884   -3151059.73747  -2403461.62962
  22278504.5944    1986936.83147   1525197.21061
  23194621.9064   -3772752.14145  -2872973.24261
  23460059.7584   -2919837.00045  -1809058.34461
  23542669.3054   -3808110.58445  -2561502.31361
 90  7 26 17 36  0.0000000  0  6G 2G 6G11G18G 9G13
  22310747.2424    2056356.73746   1570933.87761
  21357739.3134   -3181628.79347  -2427281.65562
  22283353.8054    2012399.53647   1545038.25061
  23188233.6644   -3806326.50745  -2899135.06161
  23450387.4304   -2970673.87745  -1848671.39061
  23530559.1644   -3871741.76345  -2611084.99161
 90  7 26 17 36 15.0000000  0  6G 2G 6G11G18G 9G13
  22314791.7344    2077616.75646   1587500.09061
  21351931.7114   -3212154.90147  -2451068.22662
  22288217.7504    2037959.16247   1564954.80361
  23181866.6334   -3839791.92445  -2925211.99761
  23440710.3284   -3021522.37145  -1888293.55661
  23518459.6024   -3935333.70245  -2660637.03761
 90  7 26 17 36 30.0000000  0  6G 2G 6G11G18G 9G13
  22318839.2734    2098885.03246   1604072.72661
  21346130.1884   -3242641.46447  -2474823.97762
  22293098.1334    2063611.48147   1584943.59461
  23175516.9144   -3873150.83145  -2951205.91761
  23431025.8834   -3072386.12045  -1927927.55961
  23506364.2974   -3998889.75745  -2710161.17361
 90  7 26 17 36 45.0000000  0  6G 2G 6G11G18G 9G13
  22322890.3284    2120167.68547   1620656.57661
  21340339.3134   -3273081.84347  -2498543.73562
  22297998.7974    2089362.66947   1605009.42461
  23169190.8674   -3906394.89445  -2977110.36061
  23421346.0234   -3123258.52145  -1967568.33061
  23494279.2664   -4062403.19845  -2759652.08461
 90  7 26 17 37  0.0000000  0  6G 2G 6G11G18G 9G13
  22326942.0784    2141465.50646   1637252.25561
  21334554.1484   -3303475.40147  -2522227.02562
  22302917.8444    2115212.79447   1625152.35061
  23162887.2114   -3939524.50145  -3002925.61661
  23411667.1334   -3174139.23745  -2007215.56361
  23482201.9774   -4125873.34445  -2809109.24961
 90  7 26 17 37 15.0000000  0  6G 2G 6G11G18G 9G13
  22330998.1174    2162778.77946   1653859.94961
  21328778.2974   -3333821.98447  -2545873.70662
  22307855.8444    2141161.38247   1645371.99561
  23156606.0314   -3972538.66446  -3028650.91061
  23401981.6094   -3225027.78145  -2046868.91161
  23470131.0474   -4189299.88745  -2858532.43361
 90  7 26 17 37 30.0000000  0  6G 2G 6G11G18G 9G13
  22335055.6094    2184107.38046   1670479.60261
  21323014.3984   -3364121.10847  -2569483.40462
  22312812.2814    2167208.26347   1665668.22661
  23150345.3674   -4005435.57946  -3054284.82961
  23392299.7734   -3275924.08845  -2086528.30661
  23458074.2814   -4252682.31945  -2907921.23761
 90  7 26 17 37 45.0000000  0  6G 2G 6G11G18G 9G13
  22339116.5474    2205455.92546   1687114.79861
  21317257.1954   -3394367.39947  -2593051.93062
  22317788.8444    2193358.34047   1686044.87762
  23144105.0784   -4038209.71646  -3079823.08761
  23382608.2584   -3326822.75845  -2126189.53961
  23446022.3524   -4316015.14445  -2957271.40961
 90  7 26 17 38  0.0000000  0  6G 2G 6G11G18G 9G13
  22343182.7894    2226822.38846   1703763.95661
  21311512.1804   -3424560.84447  -2616579.28562
  22322783.2344    2219610.85347   1706501.35561
  23137891.2274   -4070861.62246  -3105266.09961
  23372922.8444   -3377723.82645  -2165852.63861
  23433977.7424   -4379298.41145  -3006582.93261
 90  7 26 17 38 15.0000000  0  6G 2G 6G11G18G 9G13
  22347253.5004    2248194.04046   1720417.14861
  21305773.4534   -3454712.12247  -2640073.78062
  22327795.8284    2245954.62847   1727028.94261
  23131693.8054   -4103401.55845  -3130621.85661
  23363234.0394   -3428637.90645  -2205525.86061
  23421942.4534   -4442542.59645  -3055864.02761
 90  7 26 17 38 30.0000000  0  6G 2G 6G11G18G 9G13
  22351322.1484    2269576.02046   1737078.38861
  21300045.0864   -3484815.57547  -2663531.01262
  22332828.1174    2272394.71847   1747631.57161
  23125531.6564   -4135824.55445  -3155886.50661
  23353545.7584   -3479559.79045  -2245205.17461
  23409913.8834   -4505741.91945  -3105110.12661
 90  7 26 17 38 45.0000000  0  6G 2G 6G11G18G 9G13
  22355391.3054    2290966.66646   1753746.38461
  21294326.8364   -3514872.20947  -2686951.76462
  22337877.9844    2298929.45647   1768307.96161
  23119381.6094   -4168132.50646  -3181061.51661
  23343859.3054   -3530490.43145  -2284891.31961
  23397893.0084   -4568897.40445  -3154322.09861
 90  7 26 17 39  0.0000000  0  6G 2G 6G11G18G 9G13
  22359465.0474    2312363.94346   1770419.54961
  21288614.0004   -3544884.02147  -2710337.58762
  22342944.5004    2325556.26347   1789056.08961
  23113257.3134   -4200328.68546  -3206149.41961
  23334161.3984   -3581431.65645  -2324585.70661
  23385886.5234   -4632010.88545  -3203501.32761
 90  7 26 17 39 15.0000000  0  6G 2G 6G11G18G 9G13
  22363537.3284    2333777.43946   1787105.36061
  21282915.1954   -3574840.26247  -2733680.11062
  22348031.3444    2352285.27147   1809883.86261
  23107152.2194   -4232403.45546  -3231142.72261
  23324470.3524   -3632373.10945  -2364280.28761
  23373883.0864   -4695071.67745  -3252639.49861
 90  7 26 17 39 30.0000000  0  6G 2G 6G11G18G 9G13
  22367617.4694    2355213.13046   1803808.46061
  21277225.8754   -3604735.33147  -2756974.95562
  22353138.3674    2379121.48347   1830795.16362
  23101072.8444   -4264351.39446  -3256037.19461
  23314769.2504   -3683309.16845  -2403970.64061
  23361892.2114   -4758073.78245  -3301731.89961
 90  7 26 17 39 45.0000000  0  6G 2G 6G11G18G 9G13
  22371698.7894    2376662.46346   1820522.17961
  21271545.3834   -3634577.44647  -2780228.54262
  22358264.0084    2406055.95747   1851783.02561
  23095014.9224   -4296182.64646  -3280840.74561
  23305081.2274   -3734248.12045  -2443663.25461
  23349919.2814   -4821025.78545  -3350785.31461
 90  7 26 17 40  0.0000000  0  6G 2G 6G11G18G 9G13
  22375785.9454    2398130.00546   1837250.09661
  21265878.3134   -3664362.10847  -2803437.35662
  22363406.8754    2433092.53047   1872850.44961
  23088982.3054   -4327894.57446  -3305551.30861
  23295387.8204   -3785185.56345  -2483354.69861
  23337950.5864   -4883922.95946  -3399795.97361
 90  7 26 17 40 15.0000000  0  6G 2G 6G11G18G 9G13
  22379873.2584    2419610.10346   1853987.79861
  21260219.9224   -3694094.98247  -2826605.81662
  22368571.3364    2460225.02147   1893992.62362
  23082967.6254   -4359491.87546  -3330172.54961
  23285694.4144   -3836127.19845  -2523049.40261
  23325988.7894   -4946770.88546  -3448768.24661
 90  7 26 17 40 30.0000000  0  6G 2G 6G11G18G 9G13
  22383961.9694    2441105.13246   1870737.12461
  21254575.3834   -3723773.87747  -2849732.21662
  22373752.8054    2487455.18347   1915210.90362
  23076976.2424   -4390971.27246  -3354701.92161
  23276005.2734   -3887070.86646  -2562745.69761
  23314040.6954   -5009567.15746  -3497700.28761
 90  7 26 17 40 45.0000000  0  6G 2G 6G11G18G 9G13
  22388056.0474    2462616.52246   1887499.19962
  21248936.2504   -3753397.93947  -2872815.88562
  22378952.3204    2514783.23547   1936505.45962
  23071010.5944   -4422332.74446  -3379139.40461
  23266305.3134   -3938015.77945  -2602442.94661
  23302097.3524   -5072310.86545  -3546591.36461
 90  7 26 17 41  0.0000000  0  6G 2G 6G11G18G 9G13
  22392151.8914    2484142.64446   1904272.76961
  21243308.7894   -3782968.17647  -2895857.61462
  22384172.1484    2542207.47747   1957874.96561
  23065064.7584   -4453577.27546  -3403485.76661
  23256611.7974   -3988963.16045  -2642142.13661
  23290163.1804   -5135003.10245  -3595442.32461
 90  7 26 17 41 15.0000000  0  6G 2G 6G11G18G 9G13
  22396249.2274    2505683.31946   1921057.66561
  21237693.3054   -3812483.95747  -2918856.90862
  22389409.0004    2569727.79447   1979319.34161
  23059140.5234   -4484703.83346  -3427740.19061
  23246919.5704   -4039912.39745  -2681842.74461
  23278248.0944   -5197643.29845  -3644252.75661
 90  7 26 17 41 30.0000000  0  6G 2G 6G11G18G 9G13
  22400341.8054    2527179.21046   1937807.66761
  21232075.4924   -3842006.00447  -2941861.58462
  22394651.5944    2597283.04647   2000790.43661
  23053231.2344   -4515771.36646  -3451948.61561
  23237205.4064   -4090924.20945  -2721592.12161
  23266323.6254   -5260291.82545  -3693069.66561
 90  7 26 17 41 45.0000000  0  6G 2G 6G11G18G 9G13
  22404436.9224    2548690.59946   1954569.74662
  21226466.6254   -3871474.32447  -2964823.89862
  22399914.2194    2624932.56547   2022335.47761
  23047343.4304   -4546718.82046  -3476063.50161
  23227500.7194   -4141938.69545  -2761343.58861
  23254412.5634   -5322888.61545  -3741846.27761
 90  7 26 17 42  0.0000000  0  6G 2G 6G11G18G 9G13
  22408533.2664    2570217.76146   1971344.10761
  21220870.0164   -3900888.49547  -2987744.01563
  22405192.9774    2652676.00147   2043953.69761
  23041472.3204   -4577544.48046  -3500083.46061
  23217790.3524   -4192955.51345  -2801096.88461
  23242512.2664   -5385433.41845  -3790582.36761
 90  7 26 17 42 15.0000000  0  6G 2G 6G11G18G 9G13
  22412631.4694    2591761.17746   1988131.15061
  21215283.3524   -3930247.34247  -3010621.02862
  22410490.3364    2680513.93447   2065645.56061
  23035631.1414   -4608246.25646  -3524006.87361
  23208086.6094   -4243973.77446  -2840851.29361
  23230620.9844   -5447925.01845  -3839276.97361
 90  7 26 17 42 30.0000000  0  6G 2G 6G11G18G 9G13
  22416735.8524    2613319.71146   2004929.96561
  21209707.0784   -3959551.34447  -3033455.29762
  22415805.1724    2708445.52647   2087410.40561
  23029812.1644   -4638824.96946  -3547834.42461
  23198372.2504   -4294993.77346  -2880607.04661
  23218738.3754   -5510363.67845  -3887930.37461
 90  7 26 17 42 45.0000000  0  6G 2G 6G11G18G 9G13
  22420841.0704    2634892.14146   2021739.61161
  21204140.3674   -3988801.07347  -3056247.28063
  22421139.4384    2736469.47347   2109247.21561
  23024017.5554   -4669283.79846  -3571568.53961
  23188663.4614   -4346016.12446  -2920364.64561
  23206865.5554   -5572749.82245  -3936542.82661
 90  7 26 17 43  0.0000000  0  6G 2G 6G11G18G 9G13
  22424946.8594    2656482.46846   2038563.19861
  21198585.5164   -4017991.85247  -3078993.32562
  22426491.8054    2764589.77047   2131159.09461
  23018244.5554   -4699618.85146  -3595206.23461
  23178957.1334   -4397036.47946  -2960120.69261
  23195005.0864   -5635078.84545  -3985110.75661
 90  7 26 17 43 15.0000000  0  6G 2G 6G11G18G 9G13
  22429060.7344    2678090.27546   2055400.40461
  21193042.9534   -4047123.79347  -3101693.52463
  22431858.8754    2792805.67847   2153145.48461
  23012490.2034   -4729829.77345  -3618747.19261
  23169246.3674   -4448054.86246  -2999875.19061
  23183153.1094   -5697350.64145  -4033634.11761
 90  7 26 17 43 30.0000000  0  6G 2G 6G11G18G 9G13
  22433179.2034    2699723.59946   2072257.50261
  21187512.1024   -4076189.34647  -3124341.99663
  22437247.2034    2821124.11447   2175211.75861
  23006771.0944   -4759909.63746  -3642186.03161
  23159541.8594   -4499063.74946  -3039622.30061
  23171319.3834   -5759557.62445  -4082106.95361
 90  7 26 17 43 45.0000000  0  6G 2G 6G11G18G 9G13
  22437297.8594    2721376.87146   2089130.14561
  21181992.1414   -4105193.74547  -3146942.81063
  22442657.3914    2849539.34147   2197353.46061
  23001073.4064   -4789865.76646  -3665528.43561
  23149834.6484   -4550068.43646  -3079366.14561
  23159492.6174   -5821705.11345  -4130533.47761
 90  7 26 17 44  0.0000000  0  6G 2G 6G11G18G 9G13
  22441422.7584    2743048.23346   2106016.87561
  21176484.5944   -4134136.44147  -3169495.55063
  22448081.2274    2878051.22047   2219570.46761
  22995391.5314   -4819699.20046  -3688775.24261
  23140127.3444   -4601068.42845  -3119106.31661
  23147675.0314   -5883792.33045  -4178913.01461
 90  7 26 17 44 15.0000000  0  6G 2G 6G11G18G 9G13
  22445547.9614    2764735.30546   2122915.85061
  21170987.7584   -4163019.10647  -3192001.50863
  22453526.3054    2906657.45847   2241861.00061
  22989739.6414   -4849413.66646  -3711929.34561
  23130425.1644   -4652065.78846  -3158844.45261
  23135870.9694   -5945820.87145  -4227246.81761
 90  7 26 17 44 30.0000000  0  6G 2G 6G11G18G 9G13
  22449679.2034    2786438.86146   2139827.66461
  21165503.1174   -4191839.97947  -3214459.31463
  22458986.7894    2935359.17747   2264225.93461
  22984105.5474   -4879009.11446  -3734990.70361
  23120719.7194   -4703058.46446  -3198578.91861
  23124080.3834   -6007789.02245  -4275533.58361
 90  7 26 17 44 45.0000000  0  6G 2G 6G11G18G 9G13
  22453808.8204    2808142.82846   2156739.79961
  21160027.9534   -4220615.73847  -3236881.97763
  22464464.2194    2964139.03047   2286651.74361
  22978497.7344   -4908501.50446  -3757971.77261
  23111020.0554   -4754063.19546  -3238322.81361
  23112297.5394   -6069713.53745  -4323786.33961
 90  7 26 17 45  0.0000000  0  6G 2G 6G11G18G 9G13
  22457940.6414    2829859.24746   2173661.64461
  21154561.6804   -4249334.53947  -3259260.25362
  22469957.9844    2993008.14847   2309147.12461
  22972905.0634   -4937877.00546  -3780861.75361
  23101308.5314   -4805068.48146  -3278067.10961
  23100525.9304   -6131582.37346  -4371995.71961
 90  7 26 17 45 15.0000000  0  6G 2G 6G11G18G 9G13
  22462078.5784    2851595.77546   2190599.16561
  21149109.4534   -4277988.13447  -3281587.71862
  22475467.6644    3021974.32147   2331718.12361
  22967342.7114   -4967125.08546  -3803652.45361
  23091605.0394   -4856065.78346  -3317805.18661
  23088763.9454   -6193387.14746  -4420155.14461
 90  7 26 17 45 30.0000000  0  6G 2G 6G11G18G 9G13
  22466218.9924    2873364.17246   2207561.50461
  21143670.9924   -4306563.95947  -3303854.58262
  22481003.5164    3051049.50447   2354374.07161
  22961801.5394   -4996233.94246  -3826334.66361
  23081902.7424   -4907042.77346  -3357527.44461
  23077020.1024   -6255115.55746  -4468255.09661
 90  7 26 17 45 45.0000000  0  6G 2G 6G11G18G 9G13
  22470363.5314    2895145.60646   2224534.01161
  21138247.3674   -4335080.25047  -3326075.05762
  22486552.4304    3080214.74247   2377100.18561
  22956281.4534   -5025222.05146  -3848922.77961
  23072205.0704   -4958017.75846  -3397248.13261
  23065282.1174   -6316785.39046  -4516309.40461
 90  7 26 17 46  0.0000000  0  6G 2G 6G11G18G 9G13
  22474511.6334    2916938.81246   2241515.68861
  21132830.4144   -4363537.59447  -3348249.60162
  22492118.9064    3109468.83047   2399895.53261
  22950789.7344   -5054088.31445  -3871415.95161
  23062504.1804   -5008991.50846  -3436967.87261
  23053556.0864   -6378397.17445  -4564318.49061
 90  7 26 17 46 15.0000000  0  6G 2G 6G11G18G 9G13
  22478662.6884    2938756.92446   2258516.77561
  21127428.0784   -4391922.83447  -3370367.95962
  22497705.2584    3138824.27247   2422769.86261
  22945324.0704   -5082818.68445  -3893803.22961
  23052807.7584   -5059950.89346  -3476676.40861
  23041844.4454   -6439937.77445  -4612272.10961
 90  7 26 17 46 30.0000000  0  6G 2G 6G11G18G 9G13
  22482821.2274    2960603.53546   2275540.06761
  21122041.3524   -4420232.36647  -3392427.32362
  22503311.9144    3168284.09047   2445725.51361
  22939886.4064   -5111407.84046  -3916080.48861
  23043113.0944   -5110892.27346  -3516370.92161
  23030148.1724   -6501403.68746  -4660167.52961
 90  7 26 17 46 45.0000000  0  6G 2G 6G11G18G 9G13
  22486983.4774    2982463.98746   2292574.13361
  21116666.6954   -4448480.42047  -3414438.78362
  22508932.9454    3197833.36746   2468750.87361
  22934467.9534   -5139868.27246  -3938257.43461
  23033419.2584   -5161829.95446  -3556062.53161
  23018464.2894   -6562809.07046  -4708015.76561
 90  7 26 17 47  0.0000000  0  6G 2G 6G11G18G 9G13
  22491144.7114    3004343.07646   2309622.73561
  21111305.4144   -4476662.30947  -3436398.68562
  22514574.0394    3227476.20146   2491849.14461
  22929076.4924   -5168194.82746  -3960330.05961
  23023729.9454   -5212759.11646  -3595747.51761
  23006792.4694   -6624149.00146  -4755812.97761
 90  7 26 17 47 15.0000000  0  6G 2G 6G11G18G 9G13
  22495311.9924    3026253.34646   2326695.63661
  21105956.4924   -4504765.28347
  22520235.1094    3257224.70446   2515029.74461
  22923713.2504   -5196377.21346
  23014041.7274   -5263667.42246  -3635416.24461
  22995135.2894   -6685410.74146  -4803549.29861
 90  7 26 17 47 30.0000000  0  6G 2G 6G11G18G 9G13
  22499487.3054    3048194.69846   2343792.74661
  21100623.5004   -4532789.68947
  22525915.9694    3287077.94047   2538291.96261
  22918378.2194   -5224417.83646
  23004357.9924   -5314555.26046  -3675069.02761
  22983491.6094   -6746594.63846  -4851224.96261
 90  7 26 17 47 45.0000000  0  6G 2G 6G11G18G 9G13
  22503670.1644    3070168.70146   2360915.30561
  21095304.7894   -4560733.83247
  22531618.5944    3317036.94147   2561636.60061
  22913068.6484   -5252315.34546
  22994676.0634   -5365420.70246  -3714704.36261
  22971862.0234   -6807698.90246  -4898838.57361
 90  7 26 17 48  0.0000000  0  6G 2G 6G11G18G 9G13
  22507853.7584    3092148.12146   2378042.08761
  21089997.1564   -4588625.10947  -3523642.37863
  22537334.9064    3347073.78847   2585041.88661
  22907783.0164   -5280096.98146  -4047526.46861
  22984996.9224   -5416291.28646  -3754343.70361
  22960243.5944   -6868750.63046  -4946411.24961
 90  7 26 17 48 15.0000000  0  6G 2G 6G11G18G 9G13
  22512035.4534    3114120.07546   2395163.04361
  21084697.2664   -4616475.92147  -3545344.30463
  22543061.5864    3377175.18647   2608497.47761
  22902515.5704   -5307775.00746  -4069093.73761
  22975313.5634   -5467179.65446  -3793996.88561
  22948631.3054   -6929762.53346  -4993952.89761
 90  7 26 17 48 30.0000000  0  6G 2G 6G11G18G 9G13
  22516222.3204    3136129.38746   2412313.10861
  21079412.9224   -4644240.87647  -3566979.32363
  22548811.5234    3407386.06547   2632038.38361
  22897280.4304   -5335304.57046  -4090545.31861
  22965635.4144   -5518040.51046  -3833628.64861
  22937036.5394   -6990689.08045  -5041428.02961
 90  7 26 17 48 45.0000000  0  6G 2G 6G11G18G 9G13
  22520415.9384    3158155.19746   2429476.03261
  21074142.3444   -4671941.03447  -3588563.85163
  22554576.9924    3437684.71247   2655647.67561
  22892061.1564   -5362706.66046  -4111897.57861
  22955955.6094   -5568894.65946  -3873255.17261
  22925457.2034   -7051551.15746  -5088852.90861
 90  7 26 17 49  0.0000000  0  6G 2G 6G11G18G 9G13
  22524606.0234    3180187.01346   2446643.63461
  21068882.4924   -4699586.79747  -3610105.99563
  22560357.1484    3468059.95847   2679316.64861
  22886867.3444   -5389992.27746  -4133159.09261
  22946277.9384   -5619752.69846  -3912884.73461
  22913886.9064   -7112359.35846  -5136235.81061
 90  7 26 17 49 15.0000000  0  6G 2G 6G11G18G 9G13
  22528798.1564    3202209.12346   2463803.67361
  21063628.3134   -4727193.97547  -3631618.07462
  22566147.2344    3498495.44847   2703032.57061
  22881695.5084   -5417178.70146  -4154343.30261
  22936598.0004   -5670630.71346  -3952529.85761
  22902317.8444   -7173129.34446  -5183588.94061
 90  7 26 17 49 30.0000000  0  6G 2G 6G11G18G 9G13
  22532995.1564    3224260.03346   2480986.15761
  21058389.3444   -4754722.56747  -3653068.91663
  22571958.5634    3529030.76246   2726826.28361
  22876551.1174   -5444225.23446  -4175418.50061
  22926921.7424   -5721488.63246  -3992159.33261
  22890772.6724   -7233821.08146  -5230881.10961
 90  7 26 17 49 45.0000000  0  6G 2G 6G11G18G 9G13
  22537193.4774    3246317.37346   2498173.65761
  21053162.8134   -4782194.24747  -3674475.41463
  22577783.9844    3559643.44346   2750680.27561
  22871425.8204   -5471151.86446  -4196400.27561
  22917242.0164   -5772347.97346  -4031789.91061
  22879236.3914   -7294456.12746  -5278129.08861
 90  7 26 17 50  0.0000000  0  6G 2G 6G11G18G 9G13
  22541393.4384    3268394.21546   2515376.34061
  21047946.9534   -4809595.12547  -3695826.73162
  22583629.6414    3590346.61447   2774604.77761
  22866326.8834   -5497945.03146  -4217278.05261
  22907565.3594   -5823195.12246  -4071411.00261
  22867712.1254   -7355020.48546  -5325321.99761
 90  7 26 17 50 15.0000000  0  6G 2G 6G11G18G 9G13
  22545593.0234    3290462.97046   2532572.71261
  21042742.4774   -4836952.36447  -3717144.05163
  22589482.5944    3621112.66147   2798578.26961
  22861248.6484   -5524631.54246  -4238072.72261
  22897888.3594   -5874057.01246  -4111043.56461
  22856192.6254   -7415541.21146  -5372480.90561
 90  7 26 17 50 30.0000000  0  6G 2G 6G11G18G 9G13
  22549795.7344    3312557.06146   2549788.83661
  21037553.0784   -4864232.33047  -3738401.15763
  22595356.5554    3651974.48746   2822626.40061
  22856196.3984   -5551178.63946  -4258758.76161
  22888210.7194   -5924900.40846  -4150661.70961
  22844692.2114   -7475984.63546  -5419579.57061
 90  7 26 17 50 45.0000000  0  6G 2G 6G11G18G 9G13
  22554001.1414    3334654.20046   2567007.34761
  21032370.1484   -4891457.62247  -3759615.16162
  22601242.5704    3682908.92746   2846731.11461
  22851167.5314   -5577610.58846  -4279354.57461
  22878536.2504   -5975747.86746  -4190282.53961
  22833200.6644   -7536373.45546  -5466635.69961
 90  7 26 17 51  0.0000000  0  6G 2G 6G11G18G 9G13
  22558209.7894    3356770.79946   2584241.01261
  21027204.2584   -4918611.70047  -3780774.16762
  22607145.0704    3713931.81946   2870904.75061
  22846159.4614   -5603912.12546  -4299849.76361
  22868859.2504   -6026582.99046  -4229894.24861
  22821721.3134   -7596691.01946  -5513636.30161
 90  7 26 17 51 15.0000000  0  6G 2G 6G11G18G 9G13
  22562418.9844    3378887.33946   2601474.63561
  21022046.1724   -4945713.55247  -3801892.48262
  22613059.5704    3745023.58246   2895132.05261
  22841178.1644   -5630104.18446  -4320259.14661
  22859187.1644   -6077424.63646  -4269511.04461
  22810252.2974   -7656956.42346  -5560596.25161
 90  7 26 17 51 30.0000000  0  6G 2G 6G11G18G 9G13
  22566632.2194    3401028.95846   2618727.78961
  21016902.6024   -4972736.82747  -3822949.57362
  22618996.3834    3776209.85946   2919432.99761
  22836218.3054   -5656161.73646  -4340563.72461
  22849514.3284   -6128246.47046  -4309112.39961
  22798800.9844   -7717143.11746  -5607494.88261
 90  7 26 17 51 45.0000000  0  6G 2G 6G11G18G 9G13
  22570843.0784    3423163.33146   2635975.30161
  21011771.1174   -4999713.70347  -3843970.50962
  22624943.7734    3807457.79546   2943781.99061
  22831278.6174   -5682117.05846  -4360788.63761
  22839842.1804   -6179080.88346  -4348723.56861
  22787357.4924   -7777283.35546  -5654357.29561
 90  7 26 17 52  0.0000000  0  6G 2G 6G11G18G 9G13
  22575061.1024    3445332.49246   2653249.92661
  21006654.0004   -5026602.87747  -3864923.10362
  22630908.5084    3838808.17946   2968210.81561
  22826370.8134   -5707929.26446  -4380902.02361
  22830173.4924   -6229886.52346  -4388312.31061
  22775929.2424   -7837335.69746  -5701151.24461
 90  7 26 17 52 15.0000000  0  6G 2G 6G11G18G 9G13
  22579278.3284    3467490.09546   2670515.53361
  21001542.0634   -5053451.69947  -3885844.25262
  22636884.2504    3870213.00546   2992682.06961
  22821477.0784   -5733645.42846  -4400940.57861
  22820500.0234   -6280710.69646  -4427915.49461
  22764506.6254   -7897347.37146  -5747913.49361
 90  7 26 17 52 30.0000000  0  6G 2G 6G11G18G 9G13
  22583502.6174    3489682.95146   2687808.61461
  20996451.5084   -5080212.57047  -3906696.87062
  22642878.7584    3901719.09846   3017232.22961
  22816610.1564   -5759216.89946  -4420866.38861
  22810838.2814   -6331506.08446  -4467496.25461
  22753103.2344   -7957270.78146  -5794606.96661
 90  7 26 17 52 45.0000000  0  6G 2G 6G11G18G 9G13
  22587727.8914    3511878.81246   2705104.05161
  20991370.2114   -5106917.57747  -3927505.95662
  22648888.1804    3933293.90746   3041835.92761
  22811761.1024   -5784677.25946  -4440705.61361
  22801168.9454   -6382304.70046  -4507079.51961
  22741712.2424   -8017138.21646  -5841256.82861
 90  7 26 17 53  0.0000000  0  6G 2G 6G11G18G 9G13
  22591955.2894    3534093.64946   2722414.26261
  20986302.1254   -5133550.45747  -3948258.84462
  22654913.1254    3964952.97946   3066505.28761
  22806943.2974   -5810008.65346  -4460444.35661
  22791507.7814   -6433090.30846  -4546652.65361
  22730336.1024   -8076933.08846  -5887850.14561
 90  7 26 17 53 15.0000000  0  6G 2G 6G11G18G 9G13
  22596188.2194    3556340.06446   2739749.08661
  20981250.7664   -5160098.19247  -3968945.38362
  22660956.9224    3996708.69946   3091249.95661
  22802152.4384   -5835196.30546  -4480071.08461
  22781844.8754   -6483850.05146  -4586205.63061
  22718971.7664   -8136642.44146  -5934376.82061
 90  7 26 17 53 30.0000000  0  6G 2G 6G11G18G 9G13
  22600417.4694    3578579.50246   2757078.45861
  20976206.4614   -5186599.69747  -3989595.89062
  22667010.4224    4028521.56746   3116039.16161
  22797376.1414   -5860277.84846  -4499615.14261
  22772183.9384   -6534622.62346  -4625768.60761
  22707617.8284   -8196305.06846  -5980867.07861
 90  7 26 17 53 45.0000000  0  6G 2G 6G11G18G 9G13
  22604653.7584    3600841.53346   2774425.45261
  20971177.7894   -5213024.85947  -4010186.91462
  22673081.0004    4060420.97746   3140895.79661
  22792629.2344   -5885221.70546  -4519051.90161
  22762525.0394   -6585378.13346  -4665318.29161
  22696281.7344   -8255890.84646  -6027297.44661
 90  7 26 17 54  0.0000000  0  6G 2G 6G11G18G 9G13
  22608895.2664    3623121.34546   2791786.29661
  20966162.9694   -5239379.38847  -4030722.90662
  22679165.1954    4092400.70646   3165815.01561
  22787912.2034   -5910031.39246  -4538384.10361
  22752870.5784   -6636122.44846  -4704859.26161
  22684957.0084   -8315405.53046  -6073672.43761
 90  7 26 17 54 15.0000000  0  6G 2G 6G11G18G 9G13
  22613137.2034    3645413.60746   2809156.82761
  20961160.6724   -5265667.77947  -4051207.35762
  22685266.3594    4124455.36346   3190792.62261
  22783214.4924   -5934711.57546  -4557615.40861
  22743211.3914   -6686859.93246  -4744394.90261
  22673644.1414   -8374853.56646  -6119995.48261
 90  7 26 17 54 30.0000000  0  6G 2G 6G11G18G 9G13
  22617384.5554    3667732.24046   2826547.91761
  20956175.1804   -5291874.12247  -4071627.87062
  22691382.1254    4156600.31946   3215840.59261
  22778544.5554   -5959247.56046  -4576734.34261
  22733564.9144   -6737574.72446  -4783912.86661
  22662345.1254   -8434218.85946  -6166254.06561
 90  7 26 17 54 45.0000000  0  6G 2G 6G11G18G 9G13
  22621635.1644    3690065.17446   2843950.16861
  20951200.9924   -5318009.02947  -4091992.72462
  22697512.5704    4188824.26746   3240950.13161
  22773898.9304   -5983652.13546  -4595750.87761
  22723912.0394   -6788277.63346  -4823421.57061
  22651061.7344   -8493512.32046  -6212456.65861
 90  7 26 17 55  0.0000000  0  6G 2G 6G11G18G 9G13
  22625880.4224    3712383.96046   2861341.36761
  20946235.8364   -5344100.91547  -4112324.05362
  22703655.8524    4221098.10446   3266098.53361
  22769272.9064   -6007955.08546  -4614688.22861
  22714265.9064   -6838996.98346  -4862943.08261
  22639786.7974   -8552762.19846  -6258625.32061
 90  7 26 17 55 15.0000000  0  6G 2G 6G11G18G 9G13
  22630133.9064    3734734.89246   2878757.63361
  20941286.1804   -5370103.14347  -4132585.51562
  22709816.5164    4253468.14046   3291321.88261
  22764680.1884   -6032109.18246  -4633509.58561
  22704616.7114   -6889686.06046  -4902440.99561
  22628530.9064   -8611921.44046  -6304723.32961
 90  7 26 17 55 30.0000000  0  6G 2G 6G11G18G 9G13
  22634389.5784    3757092.69346   2896179.23961
  20936351.1024   -5396039.90647  -4152795.96962
  22715989.0784    4285909.49246   3316600.80861
  22760106.5554   -6056140.43546  -4652235.22661
  22694975.8364   -6940369.39946  -4941934.44561
  22617284.8054   -8671014.34846  -6350769.64361
 90  7 26 17 55 45.0000000  0  6G 2G 6G11G18G 9G13
  22638647.5004    3779462.41946   2913610.13561
  20931429.4774   -5421904.62047  -4172950.28662
  22722176.5314    4318427.91346   3341939.78361
  22755557.6024   -6080044.14746  -4670861.48161
  22685330.8054   -6991040.32346  -4981418.21061
  22606051.1644   -8730034.54246  -6396759.32161
 90  7 26 17 56  0.0000000  0  6G 2G 6G11G18G 9G13
  22642905.1094    3801846.75846   2931052.42461
  20926521.6094   -5447693.44447  -4193045.46562
  22728379.3594    4351026.57046   3367341.28461
  22751033.3834   -6103817.39346  -4689386.07461
  22675691.2424   -7041694.89746  -5020889.24361
  22594836.3284   -8788977.87946  -6442689.10561
 90  7 26 17 56 15.0000000  0  6G 2G 6G11G18G 9G13
  22647161.2974    3824226.22346   2948490.92061
  20921624.6724   -5473425.06447  -4213096.06362
  22734596.9534    4383686.14946   3392790.25961
  22746532.1334   -6127480.14346  -4707824.56161
  22666053.2034   -7092351.91046  -5060362.17861
  22583629.4304   -8847863.16646  -6488573.64561
 90  7 26 17 56 30.0000000  0  6G 2G 6G11G18G 9G13
  22651424.2974    3846613.50046   2965935.50561
  20916743.8284   -5499086.45347  -4233091.94263
  22740824.7194    4416419.19146   3418296.46861
  22742048.5004   -6151021.16046  -4726168.18361
  22656414.6334   -7142998.24746  -5099826.80861
  22572439.4454   -8906677.23446  -6534402.70261
 90  7 26 17 56 45.0000000  0  6G 2G 6G11G18G 9G13
  22655689.7034    3869016.12246   2983392.04861
  20911873.2734   -5524670.11247  -4253027.25163
  22747068.2194    4449232.47646   3443865.20661
  22737595.8674   -6174433.52146  -4744411.55361
  22646783.3674   -7193626.72046  -5139277.50961
  22561260.3594   -8965412.98646  -6580170.74661
 90  7 26 17 57  0.0000000  0  6G 2G 6G11G18G 9G13
  22659956.7734    3891434.89546   3000861.16661
  20907019.4384   -5550176.83647  -4272902.60863
  22753328.3914    4482124.55546   3469495.34861
  22733166.1724   -6197716.69946  -4762554.27761
  22637147.4774   -7244238.17746  -5178714.95661
  22550100.8284   -9024070.89946  -6625878.11861
 90  7 26 17 57 15.0000000  0  6G 2G 6G11G18G 9G13
  22664223.6644    3913867.18746   3018340.81161
  20902180.5634   -5575609.83647  -4292720.52663
  22759602.0554    4515091.60846   3495183.91961
  22728756.8134   -6220871.20246  -4780596.73461
  22627521.7814   -7294835.35946  -5218141.27861
  22538951.6724   -9082653.99546  -6671527.18361
 90  7 26 17 57 30.0000000  0  6G 2G 6G11G18G 9G13
  22668490.0084    3936291.10646   3035813.94261
  20897349.7034   -5600990.17647  -4312497.40663
  22765886.3834    4548111.72846   3520913.83361
  22724373.3054   -6243917.68246  -4798555.00961
  22617888.1094   -7345439.96346  -5257573.38861
  22527813.7504   -9141183.25246  -6717134.30261
 90  7 26 17 57 45.0000000  0  6G 2G 6G11G18G 9G13
  22672759.6884    3958730.96246   3053299.48561
  20892536.3364   -5626293.11447  -4332213.97663
  22772185.2584    4581209.13346   3546703.96961
  22720015.1024   -6266830.70046  -4816409.29961
  22608265.4774   -7396026.92646  -5296991.73561
  22516691.2814   -9199634.15346  -6762680.37561
 90  7 26 17 58  0.0000000  0  6G 2G 6G11G18G 9G13
  22677035.6564    3981195.10746   3070803.95461
  20887735.9844   -5651511.25347  -4351864.46563
  22778499.4924    4614390.67646   3572559.66361
  22715679.2114   -6289601.32146  -4834152.61761
  22598641.9384   -7446588.99546  -5336390.68461
  22505582.0634   -9257999.23246  -6808159.57661
 90  7 26 17 58 15.0000000  0  6G 2G 6G11G18G 9G13
  22681307.3134    4003657.06746   3088306.72061
  20882947.7424   -5676671.95447  -4371470.20463
  22784820.2424    4647628.35046   3598459.09561
  22711369.0864   -6312255.66646  -4851805.33961
  22589020.7034   -7497153.66246  -5375791.66561
  22494487.5234   -9316305.86346  -6853593.23761
 90  7 26 17 58 30.0000000  0  6G 2G 6G11G18G 9G13
  22685584.0314    4026136.14146   3105822.84361
  20878175.2504   -5701756.38247  -4391016.50363
  22791158.7194    4680940.14346   3624416.29261
  22707083.1174   -6334775.21446  -4869353.02261
  22579401.0234   -7547701.86546  -5415179.81961
  22483406.0864   -9374535.08646  -6898966.58861
 90  7 26 17 58 45.0000000  0  6G 2G 6G11G18G 9G13
  22689871.2894    4048654.09146   3123369.25561
  20873421.6334   -5726743.19047  -4410486.73263
  22797517.4144    4714347.03246   3650447.59361
  22702825.8594   -6357139.25746  -4886779.54461
  22569791.1954   -7598212.46546  -5454538.68161
  22472345.1804   -9432665.48946  -6944262.91461
 90  7 26 17 59  0.0000000  0  6G 2G 6G11G18G 9G13
  22694158.0234    4071178.34546   3140920.56861
  20868676.8364   -5751664.43547  -4429905.88262
  22803888.4384    4747816.11846   3676527.35461
  22698595.6484   -6379378.40346  -4904108.73561
  22560176.8364   -7648717.49946  -5493893.19461
  22461297.3054   -9490729.35246  -6989507.39761
 90  7 26 17 59 15.0000000  0  6G 2G 6G11G18G 9G13
  22698452.2814    4093730.26246   3158493.44061
  20863951.0554   -5776498.47247  -4449257.08163
  22810274.0704    4781368.57646   3702672.07661
  22694391.3444   -6401470.93946  -4921323.67761
  22550572.8984   -7699195.44846  -5533226.61261
  22450265.5554   -9548704.66346  -7034682.88461
 90  7 26 17 59 30.0000000  0  6G 2G 6G11G18G 9G13
  22702746.0944    4116303.64946   3176083.02061
  20859243.3754   -5801249.45647  -4468543.55962
  22816672.5864    4814999.49946   3728877.93961
  22690214.4694   -6423423.63946  -4938429.67161
  22540972.1484   -7749650.49346  -5572542.16561
  22439247.8914   -9606595.62746  -7079792.65961
 90  7 26 17 59 45.0000000  0  6G 2G 6G11G18G 9G13
  22707039.9614    4138877.04346   3193672.62561
  20854544.4614   -5825938.65347  -4487781.88762
  22823083.8364    4848687.00946   3755127.89161
  22686060.0634   -6445260.19846  -4955445.16161
  22531370.3984   -7800103.66646  -5611856.27061
  22428242.6724   -9664423.46646  -7124853.21061
 90  7 26 18  0  0.0000000  0  6G 2G 6G11G18G 9G13
  22711341.0784    4161469.53246   3211277.11961
  20849861.6804   -5850546.64747  -4506956.94362
  22829507.5004    4882449.87246   3781436.56461
  22681927.2344   -6466962.57846  -4972356.10261
  22521774.0164   -7850535.73046  -5651153.92361
  22417255.5634   -9722168.92346  -7169849.60461
 90  7 26 18  0 15.0000000  0  6G 2G 6G11G18G 9G13
  22715645.0394    4184084.00746   3228898.73861
  20845195.0784   -5875070.17947  -4526066.18762
  22835946.3594    4916290.61146   3807805.92161
  22677824.9454   -6488528.48446  -4989160.69361
  22512180.7274   -7900943.46746  -5690432.61661
  22406281.9064   -9779828.73646  -7214779.26061
 90  7 26 18  0 30.0000000  0  6G 2G 6G11G18G 9G13
  22719950.4304    4206704.66646   3246525.17361
  20840540.5164   -5899523.27346  -4545120.53562
  22842400.3524    4950194.65646   3834224.61161
  22673743.8364   -6509973.17446  -5005870.82461
  22502590.3364   -7951341.08246  -5729703.42661
  22395323.4224   -9837416.71746  -7259652.94161
 90  7 26 18  0 45.0000000  0  6G 2G 6G11G18G 9G13
  22724256.8284    4229346.70346   3264168.25961
  20835904.7034   -5923890.58847  -4564108.04262
  22848867.1254    4984176.75346   3860704.11061
  22669690.7584   -6531282.06446  -5022475.14861
  22493003.5314   -8001713.01946  -5768954.23361
  22384381.4694   -9894917.72546  -7304458.84761
 90  7 26 18  1  0.0000000  0  6G 2G 6G11G18G 9G13
  22728565.0004    4251990.68146   3281812.86461
  20831279.7894   -5948189.76247  -4583042.45262
  22855342.3444    5018218.49946   3887230.10261
  22665657.6254   -6552472.15946  -5038986.89561
  22483419.8594   -8052077.08446  -5808198.90661
  22373451.0944   -9952349.17546  -7349210.54161
 90  7 26 18  1 15.0000000  0  6G 2G 6G11G18G 9G13
  22732876.3754    4274640.06246   3299461.69061
  20826669.7424   -5972416.66147  -4601920.54962
  22861833.3204    5052323.45546   3913805.34661
  22661646.2274   -6573538.17746  -5055401.97461
  22473837.9454   -8102428.89746  -5847434.02861
  22362536.5314  -10009706.71446  -7393904.65161
 90  7 26 18  1 30.0000000  0  6G 2G 6G11G18G 9G13
  22737191.8754    4297314.88146   3317130.32561
  20822078.3674   -5996550.71047  -4620726.29462
  22868338.6334    5086511.49746   3940445.32461
  22657665.5784   -6594460.34546  -5071704.96561
  22464265.3204   -8152748.29346  -5886643.89961
  22351641.6644  -10066970.00746  -7438525.33061
 90  7 26 18  1 45.0000000  0  6G 2G 6G11G18G 9G13
  22741505.5234    4319988.73146   3334798.19661
  20817497.3914   -6020618.66947  -4639480.53262
  22874857.1414    5120755.23546   3967128.71461
  22653708.2584   -6615265.39046  -5087916.68261
  22454687.3834   -8203061.78446  -5925849.16261
  22340756.4144  -10124165.71546  -7483093.33361
 90  7 26 18  2  0.0000000  0  6G 2G 6G11G18G 9G13
  22745821.7734    4342674.23346   3352475.16661
  20812931.0864   -6044607.80246  -4658173.35362
  22881386.2344    5155066.75246   3993864.91061
  22649773.8444   -6635939.74546  -5104026.55661
  22445120.0474   -8253356.82746  -5965040.05361
  22329885.2734  -10181281.09346  -7527598.76161
 90  7 26 18  2 15.0000000  0  6G 2G 6G11G18G 9G13
  22750143.7894    4365378.68446   3370166.88861
  20808381.9924   -6068510.44346  -4676798.77662
  22887928.1254    5189453.11546   4020659.42861
  22645863.4774   -6656474.85646  -5120027.94061
  22435552.3204   -8303625.62346  -6004210.49061
  22319034.9144  -10238308.42746  -7572035.56961
 90  7 26 18  2 30.0000000  0  6G 2G 6G11G18G 9G13
  22754464.9064    4388093.81646   3387866.93361
  20803850.1724   -6092334.38347  -4695362.87862
  22894482.4774    5223905.88346   4047505.69661
  22641982.4454   -6676877.08146  -5135925.79061
  22425989.6804   -8353876.02046  -6043366.58661
  22308198.8914  -10295255.62146  -7616409.94061
 90  7 26 18  2 45.0000000  0  6G 2G 6G11G18G 9G13
  22758791.3674    4410814.06246   3405570.96261
  20799330.9694   -6116086.68647  -4713871.15463
  22901051.3754    5258417.30046   4074397.65761
  22638124.9224   -6697154.21646  -5151726.15361
  22416430.8674   -8404114.94146  -6082513.74261
  22297374.8914  -10352129.76446  -7660727.37861
 90  7 26 18  3  0.0000000  0  6G 2G 6G11G18G 9G13
  22763116.2424    4433542.83746   3423281.63361
  20794825.8444   -6139764.64247  -4732321.49162
  22907630.4064    5292989.46746   4101336.96461
  22634290.1094   -6717304.00846  -5167427.28161
  22406870.8984   -8454340.08646  -6121650.17061
  22286565.8754  -10408928.04346  -7704985.69961
 90  7 26 18  3 15.0000000  0  6G 2G 6G11G18G 9G13
  22767442.1724    4456291.15746   3441007.53861
  20790333.3284   -6163357.53946  -4750705.55662
  22914222.3444    5327632.58146   4128331.54061
  22630481.4614   -6737316.51446  -5183021.44361
  22397320.4534   -8504540.35346  -6160767.21561
  22275772.9694  -10465639.54046  -7749176.40461
 90  7 26 18  3 30.0000000  0  6G 2G 6G11G18G 9G13
  22771773.9064    4479053.62046   3458744.47661
  20785860.4304   -6186871.25746  -4769027.93162
  22920828.7974    5362339.93846   4155376.17961
  22626697.2034   -6757198.97646  -5198514.27961
  22387769.9774   -8554721.92346  -6199869.69161
  22264998.4384  -10522270.23946  -7793304.14961
 90  7 26 18  3 45.0000000  0  6G 2G 6G11G18G 9G13
  22776110.3054    4501837.08146   3476497.77761
  20781401.3594   -6210299.27747  -4787283.52062
  22927445.0084    5397117.42146   4182475.46661
  22622942.9224   -6776945.57346  -5213901.23661
  22378227.8754   -8604878.11046  -6238952.38161
  22254239.3594  -10578813.42346  -7837363.70361
 90  7 26 18  4  0.0000000  0  6G 2G 6G11G18G 9G13
  22780449.9844    4524641.42546   3494267.34761
  20776960.7034   -6233640.80047  -4805471.71463
  22934074.6954    5431965.18746   4209629.51861
  22619208.3364   -6796556.93746  -5229182.81961
  22368687.5634   -8655008.28746  -6278014.80861
  22243496.3984  -10635268.49646  -7881354.60061
 90  7 26 18  4 15.0000000  0  6G 2G 6G11G18G 9G13
  22784790.4304    4547463.78546   3512050.94661
  20772536.1334   -6256898.02847  -4823594.22262
  22940722.0784    5466880.41046   4236836.14261
  22615498.1254   -6816034.26846  -5244359.97161
  22359155.7034   -8705114.46546  -6317058.53161
  22232768.1334  -10691637.95546  -7925278.78061
 90  7 26 18  4 30.0000000  0  6G 2G 6G11G18G 9G13
  22789137.5164    4570298.99146   3529844.56361
  20768123.2814   -6280076.45646  -4841655.33262
  22947376.8284    5501856.95846   4264090.54261
  22611823.0234   -6835384.52946  -5259438.10161
  22349619.4454   -8755202.25846  -6356087.93761
  22222056.3594  -10747927.06246  -7969140.35361
 90  7 26 18  4 45.0000000  0  6G 2G 6G11G18G 9G13
  22793485.4384    4593155.26246   3547654.58561
  20763729.3834   -6303169.09547  -4859649.58762
  22954045.7814    5536901.29246   4291397.76961
  22608164.4534   -6854602.19446  -5274412.90161
  22340096.4534   -8805264.67146  -6395097.55761
  22211363.4304  -10804128.65446  -8012933.72161
 90  7 26 18  5  0.0000000  0  6G 2G 6G11G18G 9G13
  22797839.9534    4616028.28346   3565477.67061
  20759350.5634   -6326179.66847  -4877579.90162
  22960726.9774    5572008.98846   4318754.36561
  22604530.2344   -6873692.68546  -5289288.61261
  22330569.9064   -8855305.35546  -6434090.24061
  22200683.9694  -10860246.44546  -8056661.80361
 90  7 26 18  5 15.0000000  0  6G 2G 6G11G18G 9G13
  22802196.2664    4638921.84346   3583316.75361
  20754988.5784   -6349102.87947  -4895442.13662
  22967422.0474    5607184.76446   4346164.00361
  22600923.8674   -6892650.51546  -5304060.93861
  22321056.5004   -8905319.28646  -6473062.08261
  22190023.3054  -10916275.26546  -8100320.55661
 90  7 26 18  5 30.0000000  0  6G 2G 6G11G18G 9G13
  22806554.1024    4661824.73446   3601163.10161
  20750641.9224   -6371948.41146  -4913243.83862
  22974127.0634    5642418.20146   4373618.56761
  22597341.5004   -6911483.51146  -5318735.99961
  22311538.0474   -8955315.85946  -6512020.39861
  22179376.2814  -10972224.71246  -8143917.45361
 90  7 26 18  5 44.9990000  0  6G 2G 6G11G18G 9G13
  22810913.1364    4684735.61446   3619015.70261
  20746309.6284   -6394713.76946  -4930983.07362
  22980842.2454    5677707.24146   4401116.45861
  22593781.8394   -6930188.51246  -5333311.32261
  22302030.4094   -9005290.84646  -6550961.90161
  22168744.1124  -11028089.95946  -8187448.74761
 90  7 26 18  5 59.9990000  0  6G 2G 6G11G18G 9G13
  22815278.5734    4707659.66346   3636878.55461
  20741992.0974   -6417399.72646  -4948660.43362
  22987567.1834    5713058.25846   4428662.64661
  22590243.1594   -6948766.95446  -5347788.02561
  22292520.9564   -9055248.69546  -6589890.03761
  22158129.5264  -11083876.28446  -8230918.54161
 90  7 26 18  6 14.9990000  0  6G 2G 6G11G18G 9G13
  22819643.6364    4730602.33246   3654755.90361
  20737693.2064   -6439998.06047  -4966269.52462
  22994304.1834    5748474.93446   4456260.00461
  22586734.2844   -6967209.74346  -5362159.03061
  22283025.1514   -9105179.41046  -6628797.03361
  22147529.2844  -11139573.24846  -8274318.71061
 90  7 26 18  6 29.9990000  0  6G 2G 6G11G18G 9G13
  22824014.7144    4753569.24546   3672652.13561
  20733410.3624   -6462503.97247  -4983806.59062
  23001060.6904    5783961.45246   4483911.79361
  22583253.4484   -6985512.31546  -5376420.78461
  22273525.2064   -9155078.10646  -6667679.08261
  22136948.4404  -11195175.87246  -8317645.35161
 90  7 26 18  6 44.9990000  0  6G 2G 6G11G18G 9G13
  22828390.7764    4776558.61346   3690565.86961
  20729143.8784   -6484918.18547  -5001272.19963
  23007826.7534    5819516.47346   4511616.95761
  22579794.6674   -7003675.82646  -5390574.16661
  22264038.1204   -9204945.61246  -6706536.82661
  22126385.4484  -11250685.00246  -8360899.14461
 90  7 26 18  6 59.9990000  0  6G 2G 6G11G18G 9G13
  22832763.9094    4799553.34346   3708483.78861
  20724893.3314   -6507255.27247  -5018677.71963
  23014602.9724    5855124.75746   4539363.61461
  22576361.6984   -7021714.17446  -5404630.02361
  22254550.1054   -9254796.39246  -6745381.53761
  22115835.8864  -11306115.41146  -8404091.60561
 90  7 26 18  7 14.9990000  0  6G 2G 6G11G18G 9G13
  22837140.2534    4822547.91146   3726401.59361
  20720658.3554   -6529518.87647  -5036025.97362
  23021388.5194    5890782.13146   4567148.52761
  22572951.6984   -7039630.50746  -5418590.80961
  22245069.8004   -9304634.04446  -6784216.02761
  22105303.0894  -11361470.58846  -8447225.45161
 90  7 26 18  7 29.9990000  0  6G 2G 6G11G18G 9G13
  22841524.2844    4845576.20046   3744345.67761
  20716440.5584   -6551674.28847  -5053289.91962
  23028189.8154    5926522.52646   4594998.12861
  22569575.5194   -7057389.08746  -5432428.65461
  22235592.1284   -9354424.14046  -6823013.44461
  22094788.6834  -11416715.66646  -8490273.48861
 90  7 26 18  7 44.9990000  0  6G 2G 6G11G18G 9G13
  22845908.1444    4868623.25646   3762304.36861
  20712242.4334   -6573736.82647  -5070481.49963
  23035004.3084    5962329.99246   4622899.99361
  22566223.9874   -7075006.01246  -5446156.14261
  22226126.5584   -9404181.67146  -6861785.49161
  22084294.6754  -11471866.04946  -8533247.74161
 90  7 26 18  7 59.9990000  0  6G 2G 6G11G18G 9G13
  22850302.2454    4891695.50446   3780282.69861
  20708062.5504   -6595700.79747  -5087596.27262
  23041830.5894    5998209.58546   4650858.06261
  22562898.8154   -7092477.56546  -5459770.33761
  22216660.1364   -9453901.05746  -6900527.80361
  22073821.2224  -11526916.06946  -8576143.78561
 90  7 26 18  8 14.9990000  0  6G 2G 6G11G18G 9G13
  22854702.8554    4914827.74646   3798307.75061
  20703907.6674   -6617530.34447  -5104606.29362
  23048679.7694    6034196.59746   4678899.84561
  22559607.3864   -7109767.89446  -5473243.32461
  22207214.6204   -9503546.49846  -6939212.51961
  22063371.0894  -11581829.87946  -8618933.69661
 90  7 26 18  8 29.9990000  0  6G 2G 6G11G18G 9G13
  22859105.3084    4937974.28946   3816343.96861
  20699771.8394   -6639269.17847  -5121545.63063
  23055539.8704    6070246.61146   4706990.71061
  22556343.6984   -7126920.83746  -5486609.25861
  22197771.0194   -9553161.65246  -6977873.62161
  22052936.4954  -11636651.28946  -8661651.60861
 90  7 26 18  8 44.9990000  0  6G 2G 6G11G18G 9G13
  22863512.6284    4961134.14746   3834390.56161
  20695651.2694   -6660916.77247  -5138413.87863
  23062411.8624    6106359.64146   4735130.68561
  22553106.2694   -7143936.37146  -5499868.11461
  22188337.5654   -9602745.94846  -7016510.68461
  22042523.5974  -11691379.34846  -8704296.77461
 90  7 26 18  8 59.9990000  0  6G 2G 6G11G18G 9G13
  22867927.9804    4984326.28046   3852462.29361
  20691552.5424   -6682453.85847  -5155196.01163
  23069299.7064    6142554.20646   4763334.18461
  22549899.6594   -7160794.36546  -5513004.21261
  22178908.4564   -9652280.22346  -7055108.76461
  22032130.6124  -11745994.96546  -8746854.32461
 90  7 26 18  9 14.9990000  0  6G 2G 6G11G18G 9G13
  22872342.4954    5007531.87946   3870544.52461
  20687472.1904   -6703900.29247  -5171907.51062
  23076197.2304    6178809.98946   4791585.40061
  22546716.3864   -7177515.12346  -5526033.35261
  22169494.1204   -9701784.18646  -7093683.22361
  22021755.2764  -11800518.14346  -8789339.84561
 90  7 26 18  9 29.9990000  0  6G 2G 6G11G18G 9G13
  22876758.7304    5030748.03746   3888634.97361
  20683408.4174   -6725260.79547  -5188552.05063
  23083107.0654    6215121.51746   4819880.03961
  22543557.1984   -7194102.11146  -5538958.26961
  22160075.0504   -9751262.52246  -7132237.71061
  22011395.6444  -11854953.63746  -8831757.04561
 90  7 26 18  9 44.9990000  0  6G 2G 6G11G18G 9G13
  22881180.6364    5053985.33746   3906741.91761
  20679360.0654   -6746524.70247  -5205121.32162
  23090031.4874    6251498.67746   4848225.82361
  22540427.3234   -7210543.98046  -5551770.11061
  22150667.0344   -9800704.53846  -7170763.90361
  22001055.8154  -11909290.76346  -8874097.59361
 90  7 26 18  9 59.9990000  0  6G 2G 6G11G18G 9G13
  22885608.6754    5077239.19846   3924861.74561
  20675332.9874   -6767696.33447  -5221618.69062
  23096964.7844    6287936.54646   4876618.89961
  22537326.6054   -7226845.53646  -5564472.63461
  22141261.7064   -9850114.86746  -7209265.41161
  21990733.6674  -11963534.01246  -8916364.99361
 90  7 26 18 10 14.9990000  0  6G 2G 6G11G18G 9G13
  22890034.5344    5100505.02146   3942990.89561
  20671321.3154   -6788779.56247  -5238047.16862
  23103907.2454    6324430.85346   4905055.96561
  22534249.4724   -7243011.11946  -5577069.19361
  22131865.0424   -9899497.05246  -7247744.98161
  21980430.2374  -12017686.82746  -8958561.92161
 90  7 26 18 10 29.9990000  0  6G 2G 6G11G18G 9G13
  22894467.3944    5123791.95346   3961136.50061
  20667326.9174   -6809765.40447  -5254399.76463
  23110867.2694    6360989.79146   4933543.39661
  22531203.7764   -7259031.98946  -5589552.99561
  22122476.8864   -9948842.19046  -7286195.68961
  21970144.2764  -12071740.45446  -9000681.56461
 90  7 26 18 10 44.9990000  0  6G 2G 6G11G18G 9G13
  22898897.8004    5147083.60946   3979285.77061
  20663348.2374   -6830671.43547  -5270690.17262
  23117833.2224    6397595.14646   4962066.99561
  22528175.4094   -7274926.55946  -5601938.37161
  22113090.3314   -9998167.83846  -7324631.20361
  21959873.5194  -12125712.33246  -9042737.49361
 90  7 26 18 10 59.9990000  0  6G 2G 6G11G18G 9G13
  22903332.8234    5170394.24646   3997449.86061
  20659388.4724   -6851484.44047  -5286908.08962
  23124810.1364    6434259.62046   4990636.64861
  22525176.1754   -7290681.40246  -5614214.86961
  22103707.2144  -10047460.68546  -7363041.16061
  21949621.1984  -12179589.15346  -9084719.37361
 90  7 26 18 11 14.9990000  0  6G 2G 6G11G18G 9G13
  22907773.3314    5193728.92746   4015632.68461
  20655445.6674   -6872199.62547  -5303049.78662
  23131796.1204    6470987.10246   5019255.40661
  22522207.7924   -7306294.16246  -5626380.64861
  22094335.9644  -10096716.11246  -7401421.96361
  21939386.4564  -12233366.24346  -9126623.52361
 90  7 26 18 11 29.9990000  0  6G 2G 6G11G18G 9G13
  22912222.7144    5217094.20146   4033839.32861
  20651523.9404   -6892809.98447  -5319109.80462
  23138798.4644    6507784.13846   5047928.37361
  22519266.0894   -7321759.83746  -5638431.81561
  22084972.4334  -10145926.90246  -7439767.99361
  21929172.7224  -12287036.60346  -9168444.51661
 90  7 26 18 11 44.9990000  0  6G 2G 6G11G18G 9G13
  22916669.9254    5240476.22246   4052059.02061
  20647620.4094   -6913329.14347  -5335098.75762
  23145811.9954    6544636.41246   5076644.36761
  22516346.6364   -7337094.20046  -5650380.67761
  22075615.3474  -10195106.86546  -7478089.99161
  21918978.9334  -12340613.91146  -9210192.99561
 90  7 26 18 11 59.9990000  0  6G 2G 6G11G18G 9G13
  22921124.9404    5263879.93046   4070295.61661
  20643731.7844   -6933751.51846  -5351012.29662
  23152838.1054    6581548.92746   5105407.30661
  22513455.5424   -7352294.35146  -5662224.95361
  22066263.9254  -10244250.35146  -7516383.56861
  21908799.9724  -12394092.54446  -9251864.59461
 90  7 26 18 12 14.9990000  0  6G 2G 6G11G18G 9G13
  22925585.8704    5287315.89146   4088557.33961
  20639867.0344   -6954068.21846  -5366843.48262
  23159874.9014    6618530.05046   5134223.71161
  22510588.3234   -7367353.23946  -5673959.13461
  22056919.6904  -10293348.32246  -7554641.67461
  21898645.5654  -12447463.51146  -9293452.30661
 90  7 26 18 12 29.9990000  0  6G 2G 6G11G18G 9G13
  22930046.4724    5310783.05646   4106843.38461
  20636020.4724   -6974280.73746  -5382593.49062
  23166926.1754    6655577.53146   5163091.82061
  22507753.3084   -7382272.33746  -5685584.40261
  22047583.3314  -10342402.17846  -7592865.40861
  21888508.1284  -12500728.50346  -9334957.43161
 90  7 26 18 12 44.9990000  0  6G 2G 6G11G18G 9G13
  22934521.1594    5334279.99646   4125152.63661
  20632194.4804   -6994389.54546  -5398262.68762
  23173989.5114    6692690.28246   5192010.79261
  22504939.6124   -7397052.17746  -5697101.15861
  22038259.6514  -10391412.60446  -7631055.29561
  21878394.2374  -12553888.03846  -9376380.36561
 90  7 26 18 12 59.9990000  0  6G 2G 6G11G18G 9G13
  22938993.3394    5357793.74146   4143474.97261
  20628383.9254   -7014406.28946  -5413860.15062
  23181059.8314    6729856.01646   5220971.04261
  22502149.2844   -7411703.71346  -5708517.93861
  22028938.6754  -10440391.14346  -7669220.34161
  21868295.8704  -12606953.86346  -9417730.29561
 90  7 26 18 13 14.9990000  0  6G 2G 6G11G18G 9G13
  22943472.2764    5381334.65646   4161818.48461
  20624595.3004   -7034318.90246  -5429376.47562
  23188142.1594    6767086.12846   5249981.46161
  22499390.7844   -7426215.95546  -5719826.18761
  22019624.0654  -10489325.45246  -7707350.93461
  21858216.9094  -12659913.55046  -9458997.52661
 90  7 26 18 13 29.9990000  0  6G 2G 6G11G18G 9G13
  22947959.6124    5404903.29346   4180183.59961
  20620827.8624   -7054126.03546  -5444810.60162
  23195238.4564    6804381.40846   5279042.66861
  22496655.5114   -7440586.45046  -5731023.97861
  22010322.6364  -10538214.61746  -7745446.33961
  21848158.6984  -12712765.81046  -9500181.03961
 90  7 26 18 13 44.9990000  0  6G 2G 6G11G18G 9G13
  22952451.2144    5428503.80646   4198573.54061
  20617079.8234   -7073823.17547  -5460159.02362
  23202349.3784    6841745.86346   5308157.78161
  22493944.6124   -7454808.08746  -5742105.78461
  22001030.2374  -10587053.76046  -7783502.76861
  21838121.5264  -12765506.30746  -9541277.47961
 90  7 26 18 13 59.9990000  0  6G 2G 6G11G18G 9G13
  22956945.5114    5452123.50246   4216978.43861
  20613347.6674   -7093421.06546  -5475430.10162
  23209471.6834    6879167.98346   5337317.82961
  22491263.9804   -7468890.08646  -5753078.76961
  21991743.8394  -10635853.65946  -7821528.60761
  21828105.5264  -12818145.70246  -9582295.12261
 90  7 26 18 14 14.9990000  0  6G 2G 6G11G18G 9G13
  22961442.5424    5475759.39546   4235395.96461
  20609640.5584   -7112922.10146  -5490625.71162
  23216603.0344    6916644.88946   5366520.55961
  22488617.1514   -7482833.48246  -5763943.75961
  21982463.0584  -10684616.78146  -7859525.79961
  21818109.0114  -12870686.21946  -9623235.73261
 90  7 26 18 14 29.9990000  0  6G 2G 6G11G18G 9G13
  22965938.5894    5499379.58446   4253801.24761
  20605939.3784   -7132355.91646  -5505768.94162
  23223739.9484    6954146.15646   5395742.27561
  22485981.9484   -7496667.09046  -5774723.19461
  21973186.3704  -10733372.78746  -7897517.43361
  21808122.4174  -12923157.78046  -9664122.59961
 90  7 26 18 14 44.9990000  0  6G 2G 6G11G18G 9G13
  22970435.0734    5523029.44546   4272229.65461
  20602265.2454   -7151674.35247  -5520822.26362
  23230889.6124    6991719.32346   5425020.02061
  22483375.3944   -7510341.48546  -5785378.57761
  21963917.9014  -10782073.14246  -7935465.72561
  21798159.7064  -12975512.15446  -9704918.14361
 90  7 26 18 14 59.9990000  0  6G 2G 6G11G18G 9G13
  22974938.5814    5546674.66446   4290654.45761
  20598603.3154   -7170911.21646  -5535812.02462
  23238048.2304    7029330.04246   5454327.02861
  22480798.8314   -7523890.83246  -5795936.50161
  21954651.0424  -10830751.87646  -7973397.15361
  21788212.1594  -13027782.98446  -9745648.59861
 90  7 26 18 15 14.9990000  0  6G 2G 6G11G18G 9G13
  22979441.6594    5570329.16546   4309086.48461
  20594958.5974   -7190053.19446  -5550727.85062
  23245213.0194    7066990.82946   5483673.03261
  22478251.2614   -7537302.84546  -5806387.40861
  21945399.6904  -10879395.57046  -8011301.29161
  21778282.4564  -13079957.09146  -9786303.68061
 90  7 26 18 15 29.9990000  0  6G 2G 6G11G18G 9G13
  22983941.6904    5593989.17446   4327522.78261
  20591334.3084   -7209105.21546  -5565573.58462
  23252388.5974    7104696.30846   5513053.88461
  22475722.4724   -7550582.46346  -5816735.16361
  21936147.1834  -10928009.24446  -8049182.01961
  21768374.7454  -13132039.36346  -9826887.20561
 90  7 26 18 15 44.9990000  0  6G 2G 6G11G18G 9G13
  22988450.3234    5617667.03646   4345973.00061
  20587728.1674   -7228055.69046  -5580340.18762
  23259575.1754    7142457.47146   5542478.11461
  22473220.9724   -7563717.87246  -5826970.52761
  21926903.0974  -10976581.24346  -8087030.28561
  21758482.5344  -13184018.22046  -9867390.15261
 90  7 26 18 15 59.9990000  0  6G 2G 6G11G18G 9G13
  22992958.9334    5641358.03846   4364433.45361
  20584142.1364   -7246908.95347  -5595031.03862
  23266770.8004    7180269.33546   5571941.84561
  22470747.3944   -7576715.02546  -5837098.17161
  21917666.5734  -11025115.71946  -8124849.29961
  21748609.7534  -13235898.15646  -9907816.00361
 90  7 26 18 16 14.9990000  0  6G 2G 6G11G18G 9G13
  22997469.2144    5665066.30246   4382907.37061
  20580573.2064   -7265660.85646  -5609642.90462
  23273976.7224    7218135.38446   5601447.79961
  22468304.1594   -7589571.81146  -5847116.45661
  21908441.9404  -11073608.50846  -8162635.84861
  21738757.0894  -13287674.96646  -9948161.49561
 90  7 26 18 16 29.9990000  0  6G 2G 6G11G18G 9G13
  23001982.9174    5688791.56445   4401394.52461
  20577021.3944   -7284313.42646  -5624177.37962
  23281192.3394    7256052.97346   5630993.91161
  22465884.1364   -7602292.50146  -5857028.69461
  21899218.8554  -11122061.86146  -8200391.66161
  21728922.7534  -13339350.64946  -9988428.20361
 90  7 26 18 16 44.9990000  0  6G 2G 6G11G18G 9G13
  23006503.5584    5712536.65146   4419897.14061
  20573492.6904   -7302864.40946  -5638632.70162
  23288419.2454    7294023.79446   5660581.50361
  22463487.9874   -7614875.29946  -5866833.48661
  21890009.3234  -11170473.19446  -8238114.73461
  21719107.8314  -13390923.00046 -10028614.38961
 90  7 26 18 16 59.9990000  0  6G 2G 6G11G18G 9G13
  23011026.4334    5736304.02246   4438417.11061
  20569981.4014   -7321313.88946  -5653008.91562
  23295654.3154    7332047.01346   5690209.91861
  22461121.0814   -7627321.07046  -5876531.49761
  21880802.6904  -11218842.74446  -8275805.24661
  21709312.3624  -13442392.20346 -10068720.19361
 90  7 26 18 17 14.9990000  0  6G 2G 6G11G18G 9G13
  23015549.0424    5760093.15845   4456954.02261
  20566491.0654   -7339663.97546  -5667307.67562
  23302899.5654    7370120.02946   5719877.14361
  22458779.3394   -7639633.28446  -5886125.44461
  21871608.9804  -11267172.35946  -8313464.63861
  21699539.8944  -13493760.22946 -10108747.18061
 90  7 26 18 17 29.9990000  0  6G 2G 6G11G18G 9G13
  23020084.5974    5783903.80746   4475507.72761
  20563016.9804   -7357914.20846  -5681528.64162
  23310152.9014    7408242.69346   5749583.04361
  22456459.9094   -7651810.87546  -5895614.48361
  21862417.4174  -11315461.71646  -8351092.65561
  21689783.7454  -13545026.57446 -10148694.91761
 90  7 26 18 17 44.9990000  0  6G 2G 6G11G18G 9G13
  23024618.0974    5807733.33446   4494076.10361
  20559562.1984   -7376066.69346  -5695673.43963
  23317416.7454    7446412.25346   5779325.49261
  22454167.9254   -7663856.40446  -5905000.60461
  21853237.6904  -11363712.81646  -8388690.86561
  21680045.7064  -13596193.28946 -10188565.02161
 90  7 26 18 17 59.9990000  0  6G 2G 6G11G18G 9G13
  23029151.8864    5831575.63546   4512654.44561
  20556125.7694   -7394125.88546  -5709745.53562
  23324686.6594    7484623.69446   5809100.58261
  22451902.5734   -7675774.68346  -5914287.56261
  21844057.9254  -11411930.11746  -8426262.73961
  21670328.7694  -13647265.00546 -10228361.10261
 90  7 26 18 18 14.9990000  0  6G 2G 6G11G18G 9G13
  23033694.7614    5855449.66546   4531257.53361
  20552711.6124   -7412071.83847  -5723729.39662
  23331968.0974    7522896.29746   5838923.33761
  22449661.7064   -7687546.81346  -5923460.65461
  21834895.4254  -11460093.56646  -8463792.66061
  21660633.4174  -13698221.64546 -10268067.51461
 90  7 26 18 18 29.9990000  0  6G 2G 6G11G18G 9G13
  23038244.3234    5879354.85345   4549884.86761
  20549316.3154   -7429906.32946  -5737626.40262
  23339264.6904    7561227.56046   5868791.79861
  22447446.5504   -7699174.31446  -5932521.05561
  21825740.2614  -11508204.73846  -8501281.82861
  21650956.8004  -13749064.94546 -10307685.61661
 90  7 26 18 18 44.9990000  0  6G 2G 6G11G18G 9G13
  23042797.6204    5903287.90045   4568533.93661
  20545945.0194   -7447630.53046  -5751437.46962
  23346570.2924    7599615.81846   5898704.66361
  22445259.9404   -7710657.81446  -5941469.24861
  21816594.6834  -11556265.02346  -8538731.35361
  21641300.2064  -13799796.39146 -10347216.55761
 90  7 26 18 18 59.9990000  0  6G 2G 6G11G18G 9G13
  23047352.6674    5927239.25045   4587197.26661
  20542590.0424   -7465251.29046  -5765167.92762
  23353884.5814    7638053.55646   5928656.08961
  22443104.2224   -7722003.16046  -5950309.76761
  21807455.3004  -11604281.31046  -8576146.58961
  21631668.7694  -13850422.96946 -10386665.77261
 90  7 26 18 19 14.9990000  0  6G 2G 6G11G18G 9G13
  23051922.5114    5951210.96646   4605876.44561
  20539260.0974   -7482765.69247  -5778815.51462
  23361207.1054    7676543.12146   5958647.89761
  22440970.4334   -7733208.32946  -5959041.06061
  21798329.4014  -11652250.29846  -8613524.98161
  21622056.1514  -13900941.50646 -10426030.80561
 90  7 26 18 19 29.9990000  0  6G 2G 6G11G18G 9G13
  23056483.4404    5975196.34646   4624566.27961
  20535945.2534   -7500177.87046  -5792383.43862
  23368543.5814    7715079.73946   5988676.37761
  22438863.9804   -7744276.76446  -5967665.82261
  21789209.9014  -11700176.10046  -8650869.71461
  21612459.4254  -13951355.98346 -10465314.75161
 90  7 26 18 19 44.9990000  0  6G 2G 6G11G18G 9G13
  23061049.9484    5999190.45246   4643262.90661
  20532651.2374   -7517491.67346  -5805874.70862
  23375886.0504    7753658.98146   6018738.05961
  22436784.7454   -7755212.14846  -5976186.90261
  21780094.9874  -11748062.87446  -8688184.03961
  21602887.5424  -14001670.27646 -10504520.63061
 90  7 26 18 19 59.9990000  0  6G 2G 6G11G18G 9G13
  23065619.9874    6023188.32646   4661962.49561
  20529374.4014   -7534713.22146  -5819294.09262
  23383232.7374    7792274.08346   6048827.67161
  22434725.8004   -7766021.54046  -5984609.81861
  21770990.2534  -11795916.26246  -8725472.35061
  21593330.1444  -14051890.76446 -10543653.41161
 90  7 26 18 20 14.9990000  0  6G 2G 6G11G18G 9G13
  23070188.9334    6047212.94246   4680682.88461
  20526119.1674   -7551819.62546  -5832623.75862
  23390589.4954    7830947.24746   6078962.54861
  22432695.4644   -7776682.11146  -5992916.76161
  21761893.2304  -11843713.66246  -8762717.02661
  21583797.9564  -14101994.68346 -10582695.36461
 90  7 26 18 20 29.9990000  0  6G 2G 6G11G18G 9G13
  23074763.3154    6071253.06546   4699415.38061
  20522882.8234   -7568822.83546  -5845873.00862
  23397959.3864    7869665.96146   6109132.92361
  22430693.1444   -7787205.73346  -6001116.99461
  21752806.5114  -11891466.81346  -8799927.23261
  21574279.7374  -14151993.76846 -10621655.62761
 90  7 26 18 20 44.9990000  0  6G 2G 6G11G18G 9G13
  23079342.9404    6095312.14246   4718162.64061
  20519668.2454   -7585719.27846  -5859039.06262
  23405336.3624    7908433.51946   6139341.33261
  22428719.7374   -7797588.09446  -6009207.15461
  21743728.7534  -11939172.00446  -8837100.07061
  21564789.2764  -14201884.23546 -10660531.24961
 90  7 26 18 20 59.9990000  0  6G 2G 6G11G18G 9G13
  23083922.3704    6119382.27646   4736918.52661
  20516472.8314   -7602516.75346  -5872127.99362
  23412719.1834    7947241.16646   6169581.00661
  22426769.7224   -7807837.76146  -6017193.91261
  21734658.0584  -11986837.07446  -8874241.64261
  21555313.8704  -14251674.25746 -10699328.61561
 90  7 26 18 21 14.9990000  0  6G 2G 6G11G18G 9G13
  23088505.6054    6143468.35946   4755686.82861
  20513294.1904   -7619212.39046  -5885137.58062
  23420113.6124    7986091.13546   6199853.64761
  22424842.7064   -7817953.02746  -6025075.94261
  21725596.3084  -12034459.14346  -8911349.70961
  21545856.8084  -14301361.01546 -10738045.51761
 90  7 26 18 21 29.9990000  0  6G 2G 6G11G18G 9G13
  23093092.7924    6167574.06946   4774470.44061
  20510135.6834   -7635803.28446  -5898065.54262
  23427517.1594    8024985.93146   6230161.22961
  22422943.6754   -7827931.57846  -6032851.43061
  21716541.7924  -12082035.14446  -8948421.86761
  21536423.9254  -14350941.57146 -10776679.65561
 90  7 26 18 21 44.9990000  0  6G 2G 6G11G18G 9G13
  23097684.9404    6191696.82546   4793267.32861
  20506998.8624   -7652292.88846  -5910914.58362
  23434928.3154    8063921.47846   6260500.54261
  22421073.0734   -7837776.04646  -6040522.44961
  21707497.3624  -12129568.62046  -8985460.89261
  21527007.1204  -14400419.32846 -10815233.69661
 90  7 26 18 21 59.9990000  0  6G 2G 6G11G18G 9G13
  23102274.7454    6215839.40846   4812079.65461
  20503880.3004   -7668679.78846  -5923683.59262
  23442345.1514    8102898.48246   6290872.17861
  22419225.0194   -7847485.73746  -6048088.43861
  21698460.9094  -12177057.73546  -9022465.35761
  21517612.9014  -14449793.01847 -10853706.64761
 90  7 26 18 22 14.9990000  0  6G 2G 6G11G18G 9G13
  23106873.3154    6240005.56046   4830910.36061
  20500783.6904   -7684958.98546  -5936368.68062
  23449768.8624    8141921.48446   6321279.61761
  22417401.6674   -7857056.08446  -6055545.85261
  21689433.0034  -12224497.71146  -9059431.53961
  21508237.6514  -14499057.47647 -10892094.48061
 90  7 26 18 22 29.9990000  0  6G 2G 6G11G18G 9G13
  23111479.7144    6264195.35446   4849759.48461
  20497707.8624   -7701129.18046  -5948968.82762
  23457204.2304    8180990.93046   6351723.28061
  22415605.5114   -7866486.12346  -6062893.93461
  21680416.5264  -12271887.13346  -9096358.32061
  21498884.6904  -14548211.52647 -10930396.27561
 90  7 26 18 22 44.9990000  0  6G 2G 6G11G18G 9G13
  23116084.6754    6288403.08046   4868622.57261
  20494648.0974   -7717194.98446  -5961487.62362
  23464646.2144    8220101.71446   6382199.14961
  22413838.3474   -7875781.10646  -6070136.77761
  21671405.8704  -12319230.73646  -9133249.38861
  21489550.5654  -14597259.72447 -10968615.59461
 90  7 26 18 22 59.9990000  0  6G 2G 6G11G18G 9G13
  23120696.1204    6312634.34546   4887504.02161
  20491611.2144   -7733150.58046  -5973920.55662
  23472096.2064    8259259.23745   6412711.43661
  22412100.9094   -7884937.33246  -6077271.50061
  21662405.8004  -12366522.20946  -9170099.83261
  21480238.5584  -14646196.26347 -11006747.90261
 90  7 26 18 23 14.9990000  0  6G 2G 6G11G18G 9G13
  23125310.6984    6336882.76146   4906398.83361
  20488596.8554   -7749001.71746  -5986272.08662
  23479552.2224    8298457.16645   6443255.21061
  22410382.1984   -7893961.35146  -6084303.22261
  21653414.9484  -12413767.56546  -9206914.35261
  21470945.8084  -14695026.85646 -11044797.65461
 90  7 26 18 23 29.9990000  0  6G 2G 6G11G18G 9G13
  23129927.8784    6361152.82646   4925310.51461
  20485601.2614   -7764742.93647  -5998537.97162
  23487021.9724    8337700.12445   6473834.08061
  22408689.9644   -7902848.11846  -6091227.99862
  21644433.3314  -12460961.17746  -9243688.54461
  21461675.9564  -14743746.17346 -11082760.70761
 90  7 26 18 23 44.9990000  0  6G 2G 6G11G18G 9G13
  23134552.7454    6385440.45046   4944235.86461
  20482626.9254   -7780378.02947  -6010721.15262
  23494496.9874    8376983.79946   6504444.66761
  22407023.7144   -7911601.00146  -6098048.43861
  21635463.8314  -12508106.79446  -9280425.34661
  21452423.8004  -14792357.96546 -11120639.97561
 90  7 26 18 23 59.9990000  0  6G 2G 6G11G18G 9G13
  23139177.6904    6409744.11246   4963173.73161
  20479670.1284   -7795907.64346  -6022822.14262
  23501981.0584    8416306.96646   6535086.02661
  22405383.9174   -7920221.84046  -6104765.99161
  21626500.1284  -12555204.98846  -9317125.19361
  21443193.8784  -14840862.91747 -11158435.99461
 90  7 26 18 24 14.9990000  0  6G 2G 6G11G18G 9G13
  23143804.5264    6434064.05546   4982124.26861
  20476736.8084   -7811330.55546  -6034839.99162
  23509474.3784    8455670.22846   6565758.62961
  22403765.8084   -7928711.92346  -6111381.65261
  21617548.6984  -12602254.46046  -9353787.07061
  21433983.6674  -14889259.87347 -11196147.86961
 90  7 26 18 24 29.9990000  0  6G 2G 6G11G18G 9G13
  23148435.6054    6458404.56046   5001090.79961
  20473820.6754   -7826642.40246  -6046771.29462
  23516972.6754    8495077.36746   6596465.41661
  22402176.7764   -7937067.14146  -6117892.21661
  21608605.1054  -12649250.71946  -9390407.48261
  21424793.7064  -14937544.48347 -11233772.18261
 90  7 26 18 24 44.9990000  0  6G 2G 6G11G18G 9G13
  23153068.0894    6482755.19446   5020065.25361
  20470928.1124   -7841854.18846  -6058624.63062
  23524478.9014    8534517.01246   6627197.55261
  22400608.1904   -7945298.27946  -6124306.09461
  21599667.2694  -12696204.69346  -9426994.94761
  21415627.2064  -14985727.71047 -11271317.49561
 90  7 26 18 24 59.9990000  0  6G 2G 6G11G18G 9G13
  23157706.9954    6507115.72545   5039047.42661
  20468050.7764   -7856966.49346  -6070400.45062
  23531989.2304    8573987.67146   6657953.83861
  22399067.4954   -7953407.08246  -6130624.64461
  21590738.4954  -12743117.08446  -9463550.02461
  21406478.5894  -15033810.25847 -11308784.36661
 90  7 26 18 25 14.9990000  0  6G 2G 6G11G18G 9G13
  23162345.2924    6531499.26245   5058047.52361
  20465196.9094   -7871966.43946  -6082088.71062
  23539508.5114    8613501.87646   6688744.05561
  22397549.8784   -7961378.88746  -6136836.44461
  21581824.2454  -12789974.75446  -9500062.44861
  21397350.0974  -15081779.19247 -11346162.69961
 90  7 26 18 25 29.9990000  0  6G 2G 6G11G18G 9G13
  23166988.6364    6555900.94745   5077061.75261
  20462363.9804   -7886857.43946  -6093692.08262
  23547034.3474    8653055.52746   6719565.01861
  22396059.4954   -7969215.35246  -6142942.78361
  21572920.8004  -12836781.04646  -9536534.84661
  21388240.4404  -15129637.82847 -11383455.09361
 90  7 26 18 25 44.9990000  0  6G 2G 6G11G18G 9G13
  23171632.9014    6580321.46645   5096090.66361
  20459550.6674   -7901639.29346  -6105210.41062
  23554570.0654    8692648.27446   6750416.43461
  22394593.8704   -7976915.59446  -6148942.98561
  21564018.6984  -12883535.60946  -9572966.92461
  21379156.2694  -15177386.07447 -11420661.45861
 90  7 26 18 25 59.9990000  0  6G 2G 6G11G18G 9G13
  23176286.2924    6604761.89545   5115135.08461
  20456759.0654   -7916310.84246  -6116642.78662
  23562112.7224    8732280.67346   6781298.74361
  22393155.4094   -7984479.46246  -6154836.90561
  21555134.3864  -12930237.38546  -9609357.87561
  21370090.2764  -15225023.02347 -11457781.11261
 90  7 26 18 26 14.9990000  0  6G 2G 6G11G18G 9G13
  23180944.4174    6629225.58945   5134197.61761
  20453987.6054   -7930868.24746  -6127986.21262
  23569660.3314    8771955.89846   6812214.43161
  22391744.3624   -7991902.63446  -6160621.20861
  21546255.7694  -12976882.34046  -9645704.55061
  21361047.5584  -15272544.85647 -11494811.06161
 90  7 26 18 26 29.9990000  0  6G 2G 6G11G18G 9G13
  23185600.4644    6653708.53145   5153275.16561
  20451238.9174   -7945315.93846  -6139244.14462
  23577217.8314    8811668.99346   6843159.61661
  22390358.0424   -7999187.24146  -6166297.53861
  21537391.7844  -13023474.82046  -9682010.33461
  21352025.2844  -15319955.85247 -11531754.63961
 90  7 26 18 26 44.9990000  0  6G 2G 6G11G18G 9G13
  23190262.8474    6678209.29045   5172366.61061
  20448511.7844   -7959654.05946  -6150416.70462
  23584781.3704    8851419.25946   6874133.78161
  22388995.8154   -8006331.66246  -6171864.63361
  21528534.3234  -13070014.82946  -9718275.23062
  21343023.1514  -15367256.38547 -11568612.14661
 90  7 26 18 26 59.9990000  0  6G 2G 6G11G18G 9G13
  23194929.4404    6702724.62845   5191469.40261
  20445801.4254   -7973883.58346  -6161504.63862
  23592353.0034    8891205.06146   6905135.63961
  22387664.4874   -8013337.42046  -6177323.68762
  21519690.5424  -13116503.34146  -9754500.00562
  21334043.8314  -15414447.05347 -11605384.04661
 90  7 26 18 27 14.9990000  0  6G 2G 6G11G18G 9G13
  23199593.6364    6727247.19145   5210577.81561
  20443113.5974   -7988012.10646  -6172513.87562
  23599925.8084    8931018.26445   6936158.84261
  22386354.4954   -8020212.08646  -6182680.57362
  21510847.7924  -13162947.89746  -9790690.52062
  21325084.1444  -15461535.77047 -11642076.49361
 90  7 26 18 27 29.9990000  0  6G 2G 6G11G18G 9G13
  23204265.6754    6751788.69645   5229701.01361
  20440446.3314   -8002027.62946  -6183435.05862
  23607509.5504    8970870.32645   6967212.33261
  22385073.7844   -8026943.68946  -6187926.00562
  21502023.9484  -13209336.31346  -9826837.30261
  21316143.9644  -15508510.44347 -11678680.07561
 90  7 26 18 27 44.9990000  0  6G 2G 6G11G18G 9G13
  23208939.2614    6776340.56045   5248832.27261
  20437799.7844   -8015939.08046  -6194275.14962
  23615100.5814    9010751.65145   6998288.62161
  22383819.2144   -8033543.72546  -6193068.91562
  21493203.4174  -13255677.58646  -9862947.33461
  21307225.8394  -15555380.39847 -11715202.06461
 90  7 26 18 27 59.9990000  0  6G 2G 6G11G18G 9G13
  23213613.3474    6800902.00345   5267970.99661
  20435172.8234   -8029748.00446  -6205035.34562
  23622697.1834    9050660.23346   7029386.14861
  22382584.4174   -8040015.16446  -6198111.60461
  21484397.2844  -13301973.02247  -9899021.64862
  21298326.5814  -15602146.91647 -11751643.45661
 90  7 26 18 28 14.9990000  0  6G 2G 6G11G18G 9G13
  23218292.9094    6825479.31145   5287122.06761
  20432565.5974   -8043446.67746  -6215709.63762
  23630297.8474    9090603.13746   7060510.41761
  22381380.4644   -8046350.59646  -6203048.31961
  21475593.8474  -13348214.87046  -9935054.21762
  21289444.8474  -15648802.25047 -11787998.20661
 90  7 26 18 28 29.9990000  0  6G 2G 6G11G18G 9G13
  23222969.7844    6850076.06845   5306288.29661
  20429981.3554   -8057031.55546  -6226295.25662
  23637906.0654    9130583.41046   7091663.78761
  22380196.8234   -8052546.91546  -6207876.61761
  21466807.6754  -13394399.48247  -9971042.19062
  21280589.6594  -15695342.87947 -11824263.57361
 90  7 26 18 28 44.9990000  0  6G 2G 6G11G18G 9G13
  23227656.4174    6874689.00345   5325467.15461
  20427415.6834   -8070505.13646  -6236794.15162
  23645518.5114    9170598.02246   7122843.93061
  22379044.2374   -8058608.31545  -6212599.78861
  21458026.6054  -13440529.19847 -10006987.37562
  21271756.5734  -15741771.26547 -11860441.48661
 90  7 26 18 28 59.9990000  0  6G 2G 6G11G18G 9G13
  23232344.6674    6899324.53545   5344663.59161
  20424874.6204   -8083861.01546  -6247201.33162
  23653140.6834    9210652.73646   7154055.33261
  22377919.2374   -8064531.22646  -6217215.06761
  21449258.1364  -13486597.57747 -10042884.77461
  21262944.1054  -15788081.06047 -11896526.99461
 90  7 26 18 29 14.9990000  0  6G 2G 6G11G18G 9G13
  23237028.6284    6923967.77845   5363866.06161
  20422350.5504   -8097115.97246  -6257529.86562
  23660767.7144    9250730.26645   7185284.48161
  22376815.5114   -8070334.56645  -6221737.15461
  21440503.4564  -13532621.28547 -10078747.35462
  21254149.4334  -15834289.11247 -11932533.21861
 90  7 26 18 29 29.9990000  0  6G 2G 6G11G18G 9G13
  23241725.7614    6948625.22645   5383079.60061
  20419848.2374   -8110265.23846  -6267776.04562
  23668399.1284    9290834.71545   7216534.61861
  22375733.1204   -8076013.06345  -6226161.96461
  21431754.2374  -13578595.39647 -10114571.27961
  21245376.8084  -15880390.67247 -11968456.46361
 90  7 26 18 29 44.9990000  0  6G 2G 6G11G18G 9G13
  23246420.4954    6973298.54945   5402305.49761
  20417369.1754   -8123305.66446  -6277937.41962
  23676034.5734    9330968.62246   7247807.72961
  22374678.1594   -8081564.09146  -6230487.44361
  21423018.2224  -13624516.83446
  21236624.5974  -15926382.76747
 90  7 26 18 29 59.9990000  0  6G 2G 6G11G18G 9G13
  23251118.0584    6997992.18545   5421547.20061
  20414908.0194   -8136232.20546  -6288010.05062
  23683681.4334    9371136.58046   7279107.36261
  22373649.7064   -8086982.97746  -6234709.95061
  21414286.3154  -13670380.41246
  21227893.6594  -15972260.29447
 90  7 26 18 30 14.9990000  0  6G 2G 6G11G18G 9G13
  23255821.7534    7022704.99045   5440803.86661
  20412471.1284   -8149045.12346  -6297994.13962
  23691331.8154    9411337.70646   7310432.84261
  22372642.4804   -8092269.59046  -6238829.39861
  21405573.2144  -13716186.21947
  21219187.4334  -16018023.68247
 90  7 26 18 30 29.9990000  0  6G 2G 6G11G18G 9G13
  23260523.6444    7047435.57845   5460074.40161
  20410052.5894   -8161745.32346  -6307890.39862
  23698989.3624    9451570.69346   7341783.12161
  22371661.7614   -8097424.80246  -6242846.44961
  21396864.2224  -13761934.96746 -10257433.09862
  21210500.7304  -16063673.73347 -12111274.25761
 90  7 26 18 30 44.9990000  0  6G 2G 6G11G18G 9G13
  23265234.4484    7072183.10745   5479358.12161
  20407658.0114   -8174333.05446  -6317699.02662
  23706653.2144    9491834.46446   7373157.40661
  22370703.5034   -8102449.33746  -6246761.67861
  21388168.2924  -13807626.87846 -10293037.13462
  21201835.9804  -16109210.65047 -12146757.52361
 90  7 26 18 30 59.9990000  0  6G 2G 6G11G18G 9G13
  23269943.5894    7096942.55245   5498651.11261
  20405283.9874   -8186812.54046  -6327423.30362
  23714319.7224    9532124.26846   7404551.97861
  22369773.2224   -8107348.43246  -6250579.18061
  21379485.7064  -13853266.04646 -10328600.07962
  21193191.4564  -16154638.81747 -12182156.03761
 90  7 26 18 31 14.9990000  0  6G 2G 6G11G18G 9G13
  23274660.3474    7121713.37645   5517952.98461
  20402927.6364   -8199184.78846  -6337064.01962
  23721991.4644    9572438.68346   7435965.73361
  22368868.6674   -8112123.46946  -6254299.99161
  21370813.1984  -13898853.55047 -10364122.76362
  21184565.1364  -16199959.17947 -12217470.56361
 90  7 26 18 31 29.9990000  0  6G 2G 6G11G18G 9G13
  23279375.9874    7146508.12945   5537273.48361
  20400597.4254   -8211436.57646  -6346610.86462
  23729668.1674    9612790.31846   7467408.46761
  22367990.1284   -8116760.39346  -6257913.19461
  21362150.4254  -13944376.05447 -10399594.79562
  21175962.8474  -16245158.70947 -12252690.92861
 90  7 26 18 31 44.9990000  0  6G 2G 6G11G18G 9G13
  23284095.9174    7171320.10645   5556607.40261
  20398290.0654   -8223572.06046  -6356067.08962
  23737351.1834    9653174.42446   7498876.54161
  22367127.8004   -8121262.68546  -6261421.49061
  21353498.3004  -13989837.26946 -10435019.08262
  21167384.3084  -16290241.40447 -12287820.25761
 90  7 26 18 31 59.9990000  0  6G 2G 6G11G18G 9G13
  23288823.7064    7196145.88345   5575952.09861
  20395999.9954   -8235593.01746  -6365434.06962
  23745042.7144    9693588.64946   7530368.04661
  22366293.2764   -8125634.52946  -6264828.12961
  21344855.4334  -14035239.26446 -10470397.21861
  21158827.4404  -16335209.21547 -12322860.05361
 90  7 26 18 32 14.9990000  0  6G 2G 6G11G18G 9G13
  23293552.9174    7220986.31645   5595308.21361
  20393735.2374   -8247499.77146  -6374712.06262
  23752743.1904    9734032.33546   7561882.51761
  22365488.6984   -8129876.07146  -6268133.25161
  21336230.3944  -14080581.94347 -10505729.13262
  21150290.5504  -16380062.36847 -12357810.51461
 90  7 26 18 32 29.9990000  0  6G 2G 6G11G18G 9G13
  23298287.4804    7245845.09045   5614678.60261
  20391493.1124   -8259287.52146  -6383897.32262
  23760440.5114    9774509.52245   7593423.10461
  22364710.4804   -8133983.40046  -6271333.78361
  21327614.1514  -14125860.67847 -10541011.21862
  21141779.9954  -16424796.10847 -12392667.92761
 90  7 26 18 32 44.9990000  0  6G 2G 6G11G18G 9G13
  23303019.9254    7270717.95946   5634059.97261
  20389270.2454   -8270960.24246  -6392992.95162
  23768148.1204    9815015.81045   7624986.36961
  22363950.1904   -8137960.70546  -6274433.00061
  21319006.7224  -14171079.07147 -10576246.28661
  21133291.1204  -16469414.42747 -12427435.40261
 90  7 26 18 32 59.9990000  0  6G 2G 6G11G18G 9G13
  23307754.9404    7295610.18346   5653456.43561
  20387070.8554   -8282514.10846  -6401995.96462
  23775863.8864    9855554.42446   7656574.83261
  22363219.3784   -8141804.33846  -6277428.07061
  21310417.4334  -14216233.27746 -10611431.34162
  21124820.8154  -16513913.61647 -12462110.05261
 90  7 26 18 33 14.9990000  0  6G 2G 6G11G18G 9G13
  23312493.5034    7320514.09545   5672862.00961
  20384892.9094   -8293957.42646  -6410912.83562
  23783583.8704    9896116.50546   7688181.56661
  22362511.7454   -8145522.53046  -6280325.37561
  21301833.0894  -14261331.47247 -10646572.76062
  21116376.0584  -16558302.01947 -12496698.37161
 90  7 26 18 33 29.9990000  0  6G 2G 6G11G18G 9G13
  23317235.8784    7345434.22545   5692280.22661
  20382739.8394   -8305285.96946  -6419740.27562
  23791308.6834    9936705.69346   7719809.43161
  22361825.8234   -8149109.57746  -6283120.49461
  21293266.6834  -14306369.42247 -10681667.22261
  21107947.4804  -16602575.44147 -12531197.08961
 90  7 26 18 33 44.9990000  0  6G 2G 6G11G18G 9G13
  23321979.3154    7370369.11345   5711709.92161
  20380604.5654   -8316501.17246  -6428479.39762
  23799036.1444    9977319.92645   7751456.81361
  22361169.1754   -8152566.32446  -6285814.07061
  21284704.3084  -14351348.39047 -10716715.72061
  21099546.6594  -16646735.32047 -12565607.34661
 90  7 26 18 33 59.9990000  0  6G 2G 6G11G18G 9G13
  23326729.7144    7395319.20945   5731151.48861
  20378491.5424   -8327602.44146  -6437129.73762
  23806766.6284   10017959.36345   7783123.83161
  22360537.9484   -8155893.99246  -6288407.08561
  21276157.5114  -14396267.48547 -10751717.57361
  21091163.5654  -16690781.00947 -12599928.61561
 90  7 26 18 34 14.9990000  0  6G 2G 6G11G18G 9G13
  23331479.8944    7420284.25745   5750604.69461
  20376400.9724   -8338591.88346  -6445692.94362
  23814507.0504   10058621.28645   7814808.36861
  22359928.9954   -8159094.79346  -6290901.23761
  21267620.9484  -14441128.95447 -10786674.53261
  21082804.4094  -16734714.64447 -12634162.56361
 90  7 26 18 34 29.9990000  0  6G 2G 6G11G18G 9G13
  23336236.9804    7445271.83945   5770075.44961
  20374333.0814   -8349463.52246  -6454164.35462
  23822249.7694   10099311.23145   7846514.74161
  22359344.5034   -8162162.47146  -6293291.65461
  21259096.2534  -14485926.55647 -10821581.71461
  21074465.4724  -16778530.29147 -12668304.57961
 90  7 26 18 34 44.9990000  0  6G 2G 6G11G18G 9G13
  23340990.7454    7470277.20045   5789560.04761
  20372285.2924   -8360222.97246  -6462548.35062
  23829997.2694   10140022.99245   7878238.10261
  22358783.5424   -8165103.25546  -6295583.19861
  21250583.5114  -14530665.74547 -10856443.37861
  21066148.9564  -16822233.65247 -12702359.09861
 90  7 26 18 34 59.9990000  0  6G 2G 6G11G18G 9G13
  23345756.2694    7495307.82545   5809064.35261
  20370259.9954   -8370863.75746  -6470839.87562
  23837748.1284   10180762.55345   7909983.12261
  22358247.3784   -8167911.21346  -6297771.26361
  21242079.5974  -14575339.96947 -10891254.42361
  21057857.9404  -16865818.36747 -12736321.16761
 90  7 26 18 35 14.9990000  0  6G 2G 6G11G18G 9G13
  23350523.0424    7520360.61046   5828585.91861
  20368258.5654   -8381387.96446  -6479040.55262
  23845506.2144   10221527.24745   7941747.73561
  22357737.2374   -8170589.41846  -6299858.20261
  21233589.4644  -14619951.17347 -10926016.36061
  21049583.6984  -16909286.53347 -12770192.42261
 90  7 26 18 35 29.9990000  0  6G 2G 6G11G18G 9G13
  23355294.4094    7545432.56745   5848122.43161
  20366276.3394   -8391797.33046  -6487151.74462
  23853268.3944   10262314.79445   7973530.16061
  22357251.9484   -8173140.95946  -6301846.44561
  21225114.9254  -14664500.88947 -10960730.39661
  21041334.1444  -16952639.84247 -12803974.17461
 90  7 26 18 35 44.9990000  0  6G 2G 6G11G18G 9G13
  23360068.0424    7570526.15545   5867675.79361
  20364316.9874   -8402089.55246  -6495171.65562
  23861033.4724   10303127.04045   8005331.82661
  22356793.7374   -8175565.31946  -6303735.59161
  21216649.4174  -14708986.91447 -10995394.79662
  21033105.8704  -16995876.02147 -12837664.66161
 90  7 26 18 35 59.9990000  0  6G 2G 6G11G18G 9G13
  23364847.0504    7595641.22745   5887245.90361
  20362381.0894   -8412263.90046  -6503099.72062
  23868806.3394   10343964.05345   8037152.76761
  22356355.7454   -8177863.52846  -6305526.43861
  21208196.1364  -14753408.32547 -11030008.84561
  21024900.3704  -17038994.80347 -12871263.66761
 90  7 26 18 36 14.9990000  0  6G 2G 6G11G18G 9G13
  23369629.0504    7620773.33845   5906829.30561
  20360465.7694   -8422325.19446  -6510939.68462
  23876582.0734   10384820.47945   8068988.86061
  22355937.4174   -8180040.61746  -6307222.90361
  21199750.9254  -14797769.72847 -11064576.13461
  21016720.3944  -17082000.70047 -12904774.70261
 90  7 26 18 36 29.9990000  0  6G 2G 6G11G18G 9G13
  23374419.6984    7645927.78245   5926430.07761
  20358575.4954   -8432268.41946  -6518687.65262
  23884360.0584   10425700.91545   8100843.66061
  22355552.8004   -8182089.66446  -6308819.59161
  21191323.2924  -14842066.06347 -11099092.72961
  21008558.5734  -17124888.74447 -12938193.92461
 90  7 26 18 36 44.9990000  0  6G 2G 6G11G18G 9G13
  23379209.2614    7671101.87445   5946046.16661
  20356704.7304   -8442094.05146  -6526343.98662
  23892142.5974   10466604.40145   8132716.42161
  22355183.7844   -8184010.85546  -6310316.64861
  21182906.3394  -14886297.47147 -11133558.72662
  21000417.6674  -17167659.38647 -12971521.64961
 90  7 26 18 36 59.9990000  0  6G 2G 6G11G18G 9G13
  23384003.2064    7696296.89845   5965678.55761
  20354859.2454   -8451798.40146  -6533905.81962
  23899934.0894   10507534.02545   8164609.55261
  22354842.5584   -8185800.06346  -6311710.85061
  21174502.4874  -14930460.31047 -11167971.28662
  20992303.4094  -17210309.03047 -13004755.09261
 90  7 26 18 37 14.9990000  0  6G 2G 6G11G18G 9G13
  23388803.4014    7721505.29245   5985321.38361
  20353034.4954   -8461387.80946  -6541378.08562
  23907726.3704   10548482.80645   8196517.61561
  22354528.9484   -8187463.49346  -6313007.04361
  21166109.5424  -14974560.84947 -11202335.31262
  20984209.8554  -17252844.13447 -13037899.28861
 90  7 26 18 37 29.9990000  0  6G 2G 6G11G18G 9G13
  23393600.7224    7746723.58245   6004971.89861
  20351229.5974   -8470865.09246  -6548762.98962
  23915520.2454   10589447.36145   8228437.95161
  22354233.8474   -8189004.30346  -6314207.69461
  21157728.0114  -15018601.62747 -11236652.76561
  20976136.4954  -17295267.54147 -13070956.43361
 90  7 26 18 37 44.9990000  0  6G 2G 6G11G18G 9G13
  23398397.7924    7771957.41345   6024634.53661
  20349448.1904   -8480224.65446  -6556056.15562
  23923317.7374   10630432.93545   8260374.69261
  22353965.2534   -8190415.71646  -6315307.51461
  21149361.9094  -15062576.90547 -11270919.18761
  20968085.3784  -17337573.67147 -13103922.20661
 90  7 26 18 37 59.9990000  0  6G 2G 6G11G18G 9G13
  23403204.5584    7797206.61245   6044309.15461
  20347691.3084   -8489465.21746  -6563256.59162
  23931121.8314   10671440.29845   8292328.39261
  22353721.6444   -8191694.86346  -6316304.26661
  21141006.9334  -15106485.24847 -11305133.44262
  20960056.6754  -17379761.22847 -13136795.58661
 90  7 26 18 38 14.9990000  0  6G 2G 6G11G18G 9G13
  23408016.2614    7822468.44145   6063993.62961
  20345954.4484   -8498588.79546  -6570365.87462
  23938932.2304   10712466.91345   8324297.09661
  22353506.6594   -8192842.17846  -6317198.29061
  21132665.6984  -15150328.58547 -11339297.05762
  20952049.2224  -17421832.22147 -13169578.13261
 90  7 26 18 38 29.9990000  0  6G 2G 6G11G18G 9G13
  23412827.1834    7847745.36045   6083689.83261
  20344242.3084   -8507592.90046  -6577382.07162
  23946741.8704   10753514.76145   8356282.35761
  22353314.1364   -8193854.81946  -6317987.38661
  21124332.9804  -15194104.26147 -11373407.94862
  20944064.3234  -17463784.38747 -13202268.09261
 90  7 26 18 38 44.9990000  0  6G 2G 6G11G18G 9G13
  23417635.9334    7873036.95045   6103397.48361
  20342551.3314   -8516476.51346  -6584304.36762
  23954553.8704   10794584.31945   8388284.53261
  22353147.5264   -8194733.33946  -6318671.98361
  21116017.2144  -15237811.15047 -11407465.23362
  20936105.1594  -17505616.74947 -13234864.70261
 90  7 26 18 38 59.9990000  0  6G 2G 6G11G18G 9G13
  23422452.1514    7898338.07345   6123112.58161
  20340883.5894   -8525242.63146  -6591135.11462
  23962372.2694   10835672.04645   8420300.86561
  22353005.3084   -8195482.97846  -6319256.14461
  21107708.7694  -15281452.01147 -11441471.05462
  20928167.7924  -17547332.11947 -13267370.13661
 90  7 26 18 39 14.9990000  0  6G 2G 6G11G18G 9G13
  23427267.3394    7923651.40545   6142837.18061
  20339237.4404   -8533889.29646  -6597872.77862
  23970196.0584   10876779.28245   8452332.39361
  22352886.7304   -8196103.25146  -6319739.50861
  21099421.2224  -15325024.96347 -11475423.97462
  20920250.0194  -17588928.74047 -13299783.04561
 90  7 26 18 39 29.9990000  0  6G 2G 6G11G18G 9G13
  23432088.9804    7948977.32745   6162571.58761
  20337614.5654   -8542417.01846  -6604517.76162
  23978022.8474   10917905.04945   8484378.37561
  22352789.6284   -8196595.48446  -6320123.09561
  21091141.9094  -15368530.27447 -11509324.18562
  20912357.9254  -17630407.02647 -13332103.74761
 90  7 26 18 39 44.9990000  0  6G 2G 6G11G18G 9G13
  23436909.1444    7974321.74345   6182320.40261
  20336015.3864   -8550819.64046  -6611065.26462
  23985853.3394   10959054.93245   8516443.12361
  22352721.4484   -8196953.95446  -6320402.45761
  21082874.9954  -15411961.53847 -11543166.69962
  20904490.5584  -17671761.00947 -13364327.58461
 90  7 26 18 39 59.9990000  0  6G 2G 6G11G18G 9G13
  23441735.7924    7999680.14445   6202080.13161
  20334440.5504   -8559101.79946  -6617518.90562
  23993686.0194   11000223.91345   8548522.77461
  22352679.1124   -8197183.79846
  21074626.8314  -15455323.20347 -11576954.97962
  20896642.1834  -17712995.32547 -13396458.17361
 90  7 26 18 40 14.9990000  0  6G 2G 6G11G18G 9G13
  23446565.1594    8025051.02745   6221849.57361
  20332886.5344   -8567265.30546  -6623880.08062
  24001521.6204   11041409.67145   8580615.50061
  22352658.3474   -8197288.00046
  21066384.2764  -15498617.10047 -11610690.44562
  20888819.7224  -17754111.79347 -13428496.93361
 90  7 26 18 40 29.9990000  0  6G 2G 6G11G18G 9G13
  23451393.7534    8050436.84645   6241630.64061
  20331355.4804   -8575308.86546  -6630147.79662
  24009363.0424   11082613.08845   8612721.99161
  22352665.1444   -8197266.81746
  21058161.5584  -15541841.69647 -11644371.91362
  20881015.3004  -17795109.01147 -13460442.78061
 90  7 26 18 40 44.9990000  0  6G 2G 6G11G18G 9G13
  23456230.1124    8075841.47045   6261426.35061
  20329848.4334   -8583227.87746  -6636318.45262
  24017211.3474   11123838.17745   8644845.36461
  22352694.0974   -8197116.94246
  21049947.4254  -15584992.25947 -11677995.69662
  20873238.0654  -17835982.64547 -13492292.32661
 90  7 26 18 40 59.9990000  0  6G 2G 6G11G18G 9G13
  23461067.8004    8101261.18645   6281233.84161
  20328364.3864   -8591026.51446  -6642395.31962
  24025060.2844   11165080.24945   8676981.95861
  22352745.7614   -8196843.33346
  21041751.6674  -15628072.79747 -11711564.90861
  20865483.8624  -17876736.90847 -13524048.85061
 90  7 26 18 41 14.9990000  0  6G 2G 6G11G18G 9G13
  23465909.7614    8126698.82745   6301055.30361
  20326902.4334   -8598705.04646  -6648378.59962
  24032914.6834   11206338.46545   8709131.12861
  22352821.4724   -8196446.28246
  21033565.1594  -15671083.46147 -11745079.67562
  20857751.5034  -17917372.20347 -13555712.68961
 90  7 26 18 41 29.9990000  0  6G 2G 6G11G18G 9G13
  23470752.8944    8152154.92445   6320891.15161
  20325463.7304   -8606265.05446  -6654269.52862
  24040764.4404   11247610.72445   8741291.25361
  22352919.7454   -8195926.85146        -0.36271
  21025396.7224  -15714025.61247 -11778541.06762
  20850038.4174  -17957890.10347 -13587285.04361
 90  7 26 18 41 44.9990000  0  6G 2G 6G11G18G 9G13
  23475595.9174    8177633.46845   6340744.52861
  20324049.9874   -8613702.66946  -6660065.07262
  24048621.6124   11288900.43845   8773464.98461
  22353041.3314   -8195281.26246       502.67161
  21017236.9254  -15756895.24647 -11811945.94162
  20842355.9254  -17998286.87747 -13618763.00161
 90  7 26 18 41 59.9990000  0  6G 2G 6G11G18G 9G13
  23480451.1054    8203133.76245   6360614.83761
  20322657.1364   -8621018.38346  -6665765.63262
  24056483.4804   11330206.68645   8805651.58461
  22353187.9954   -8194511.42246      1102.50761
  21009094.1364  -15799692.60147 -11845294.49162
  20834687.4334  -18038562.71147 -13650146.72861
 90  7 26 18 42 14.9990000  0  6G 2G 6G11G18G 9G13
  23485310.4094    8228659.44145   6380504.91461
  20321288.3704   -8628209.48546  -6671369.09662
  24064344.8704   11371531.67245   8837852.79261
  22353356.6444   -8193615.48546      1800.61661
  21000965.3784  -15842415.04347 -11878584.67062
  20827048.0504  -18078715.17847 -13681434.33261
 90  7 26 18 42 29.9990000  0  6G 2G 6G11G18G 9G13
  23490174.8084    8254208.79045   6400413.39961
  20319943.0814   -8635278.09846  -6676877.11962
  24072211.9804   11412872.77745   8870066.56861
  22353555.2304   -8192595.47046      2595.42061
  20992844.6754  -15885064.40647 -11911817.90462
  20819432.6444  -18118746.35247 -13712627.41461
 90  7 26 18 42 44.9990000  0  6G 2G 6G11G18G 9G13
  23495037.2924    8279784.26545   6420342.23961
  20318621.6754   -8642221.70846  -6682287.73462
  24080086.6444   11454232.08345   8902294.53661
  22353773.1674   -8191448.36746      3489.24861
  20984745.8154  -15927637.98847 -11944992.10062
  20811836.3394  -18158653.95747 -13743724.20961
 90  7 26 18 42 59.9990000  0  6G 2G 6G11G18G 9G13
  23499903.7144    8305383.87445   6440289.90261
  20317323.7304   -8649043.60846  -6687603.50662
  24087959.7454   11495605.78645   8934533.69861
  22354012.5814   -8190178.17146      4478.98461
  20976659.0974  -15970138.81747 -11978109.59862
  20804264.1754  -18198441.13747 -13774727.16861
 90  7 26 18 43 14.9990000  0  6G 2G 6G11G18G 9G13
  23504781.9094    8331004.31845   6460253.78961
  20316047.4014   -8655747.48046  -6692827.31762
  24095833.7614   11536989.59345   8966780.74961
  22354277.8624   -8188789.58546      5560.97661
  20968585.3084  -16012570.62347 -12011173.31262
  20796715.4014  -18238111.65447 -13805639.22461
 90  7 26 18 43 29.9990000  0  6G 2G 6G11G18G 9G13
  23509667.2064    8356653.21245   6480239.86061
  20314795.7144   -8662323.86746  -6697951.78362
  24103709.5264   11578392.61145   8999042.74761
  22354566.0814   -8187272.46046      6743.12961
  20960521.8944  -16054923.63947 -12044175.63562
  20789193.7694  -18277656.00047 -13836452.96861
 90  7 26 18 43 44.9990000  0  6G 2G 6G11G18G 9G13
  23514548.7454    8382321.97945   6500241.39461
  20313569.1204   -8668778.63946  -6702981.48762
  24111590.9564   11619808.40245   9031314.73761
  22354875.6904   -8185632.87645      8020.71361
  20952477.6674  -16097203.70547 -12077121.11562
  20781691.7374  -18317080.34347 -13867173.19961
 90  7 26 18 43 59.9990000  0  6G 2G 6G11G18G 9G13
  23519436.9484    8408010.84445   6520258.60161
  20312363.7764   -8675110.14646  -6707915.14062
  24119474.5114   11661238.20145   9063597.61861
  22355210.3314   -8183869.43245      9394.80661
  20944446.3784  -16139408.81047 -12110008.17762
  20774210.9014  -18356382.86547 -13897798.50861
 90  7 26 18 44 14.9990000  0  6G 2G 6G11G18G 9G13
  23524332.3864    8433722.53745   6540293.58861
  20311182.3004   -8681314.87446  -6712750.00962
  24127363.6204   11702684.94145   9095893.70461
  22355570.7304   -8181977.71045     10868.85461
  20936428.7534  -16181535.31747 -12142833.99562
  20766753.2224  -18395560.29147 -13928326.33361
 90  7 26 18 44 29.9990000  0  6G 2G 6G11G18G 9G13
  23529227.8084    8459452.33645   6560342.68661
  20310025.1364   -8687395.93746  -6717488.51762
  24135257.6204   11744145.06945   9128200.22361
  22355956.1284   -8179959.40345     12441.52361
  20928430.5424  -16223586.31647 -12175600.98162
  20759320.7614  -18434615.78347 -13958759.14261
 90  7 26 18 44 44.9990000  0  6G 2G 6G11G18G 9G13
  23534130.4254    8485197.64545   6580403.88961
  20308892.2694   -8693354.36346  -6722131.44962
  24143144.2614   11785617.08845   9160515.99361
  22356365.0504   -8177815.71246     14111.90661
  20920441.0424  -16265562.56147 -12208309.71662
  20751911.6904  -18473550.13347 -13989097.56561
 90  7 26 18 44 59.9990000  0  6G 2G 6G11G18G 9G13
  23539032.1984    8510960.52645   6600478.78261
  20307781.6204   -8699187.52146  -6726676.77862
  24151042.4014   11827103.05445   9192842.64661
  22356799.6514   -8175545.78646     15880.66061
  20912469.5814  -16307461.16247 -12240957.94962
  20744526.5654  -18512360.97747 -14019339.74761
 90  7 26 18 45 14.9990000  0  6G 2G 6G11G18G 9G13
  23543936.6984    8536741.84245   6620568.04461
  20306696.2534   -8704893.01546  -6731122.63362
  24158937.1124   11868605.01145   9225181.75361
  22357255.1364   -8173147.90846     17749.11261
  20904509.5194  -16349279.74047 -12273543.82362
  20737167.0504  -18551045.84047 -14049483.77361
 90  7 26 18 45 29.9990000  0  6G 2G 6G11G18G 9G13
  23548842.3314    8562532.42445   6640664.50161
  20305632.1444   -8710477.47446  -6735474.17462
  24166836.7614   11910115.87345   9257527.81861
  22357733.4804   -8170628.11846     19712.56361
  20896564.0424  -16391024.56547 -12306072.23062
  20729829.0194  -18589611.63747 -14079535.00661
 90  7 26 18 45 44.9990000  0  6G 2G 6G11G18G 9G13
  23553751.3474    8588335.99645   6660771.06561
  20304593.1364   -8715936.82546  -6739728.22062
  24174738.5264   11951639.30745   9289883.66161
  22358235.4724   -8167981.86346     21774.53961
  20888634.8394  -16432691.31347 -12338539.80262
  20722514.3474  -18628054.08847 -14109490.13461
 90  7 26 18 45 59.9990000  0  5G 2G 6G18G 9G13
  23558663.0734    8614153.86845   6680888.78861
  20303579.5504   -8721269.95546  -6743883.92362
  22358763.6284   -8165210.06946     23934.33461
  20880721.1204  -16474279.12547 -12370945.85962
  20715222.3624  -18666372.12347 -14139348.30861
 90  7 26 18 46 14.9990000  0  5G 2G 6G18G 9G13
  23563581.0734    8639978.70645   6701011.94961
  20302587.6444   -8726484.53746  -6747947.24962
  22359314.3084   -8162321.07546     26185.48061
  20872822.4564  -16515795.08147 -12403295.92162
  20707952.3864  -18704573.39847 -14169115.50361
 90  7 26 18 46 29.9990000  0  5G 2G 6G18G 9G13
  23568500.1674    8665808.65645   6721139.07361
  20301617.4254   -8731583.21146  -6751920.26262
  22359883.7144   -8159318.91346     28524.79261
  20864937.3554  -16557241.89947 -12435592.11962
  20700702.4724  -18742660.73047 -14198793.90461
 90  7 26 18 46 44.9990000  0  5G 2G 6G18G 9G13
  23573415.6284    8691651.63145   6741276.36861
  20300670.9804   -8736557.75646  -6755796.54662
  22360480.9094   -8156197.84046     30956.75861
  20857066.0344  -16598610.96047 -12467827.71862
  20693477.0264  -18780626.02847 -14228377.22161
 90  7 26 18 46 59.9990000  0  5G 2G 6G18G 9G13
  23578338.3474    8717510.21645   6761425.81361
  20299747.3944   -8741407.03246  -6759575.21762
  22361098.1444   -8152957.62446     33481.56961
  20849204.5344  -16639900.99847 -12500001.73362
  20686277.5974  -18818468.02747 -14257864.45361
 90  7 26 18 47 14.9990000  0  5G 2G 6G18G 9G13
  23583262.9484    8743383.87245   6781587.01161
  20298850.0974   -8746131.74346  -6763256.82362
  22361736.0344   -8149598.54046     36099.00661
  20841363.5814  -16681112.60747 -12532114.64162
  20679101.6594  -18856187.65847 -14287256.34161
 90  7 26 18 47 29.9990000  0  5G 2G 6G18G 9G13
  23588188.9564    8769276.46145   6801762.99661
  20297972.8394   -8750727.52246  -6766837.95962
  22362398.1444   -8146115.17846     38813.27561
  20833538.6834  -16722241.19047 -12564162.85262
  20671946.6284  -18893780.45447 -14316549.39261
 90  7 26 18 47 44.9990000  0  5G 2G 6G18G 9G13
  23593124.3474    8795186.93345   6821952.90561
  20297125.0034   -8755196.47946  -6770320.28062
  22363084.0264   -8142510.06446     41622.41861
  20825728.0894  -16763288.59647 -12596147.81862
  20664816.3314  -18931248.70947 -14345745.40261
 90  7 26 18 47 59.9990000  0  5G 2G 6G18G 9G13
  23598049.7924    8821113.88345   6842155.65861
  20296296.5034   -8759541.28246  -6773705.84962
  22363792.4804   -8138786.79646     44523.63961
  20817929.6904  -16804257.33247 -12628071.47362
  20657711.6904  -18968595.18347 -14374846.51361
 90  7 26 18 48 14.9990000  0  5G 2G 6G18G 9G13
  23602986.4094    8847062.19644   6862375.04761
  20295495.3864   -8763757.64946  -6776991.34762
  22364523.5734   -8134941.66646     47519.79361
  20810150.4954  -16845142.96647 -12659930.36762
  20650625.5814  -19005815.45847 -14403849.28961
 90  7 26 18 48 29.9990000  0  5G 2G 6G18G 9G13
  23607931.6834    8873031.67943   6882610.90961
  20294715.3554   -8767846.01746  -6780177.10462
  22365279.3314   -8130974.31546     50611.19261
  20802385.8234  -16885945.75447 -12691724.72362
  20643567.9954  -19042910.12047 -14432754.18861
 90  7 26 18 48 44.9990000  0  5G 2G 6G18G 9G13
  23612874.7064    8899018.36643   6902860.16561
  20293963.9254   -8771809.55046  -6783265.58962
  22366058.0344   -8126887.52346     53795.68261
  20794635.5114  -16926668.67647 -12723456.84262
  20636530.5584  -19079882.38347 -14461563.71361
 90  7 26 18 48 59.9990000  0  5G 2G 6G18G 9G13
  23617825.2454    8925025.44743   6923125.33061
  20293234.0344   -8775645.75346  -6786254.84362
  22366856.1984   -8122677.95546     57075.83261
  20786902.5264  -16967309.02447 -12755124.61962
  20629519.8084  -19116729.95647 -14490276.06761
 90  7 26 18 49 14.9990000  0  5G 2G 6G18G 9G13
  23622771.8474    8951053.08043   6943406.51961
  20292527.3234   -8779354.72646  -6789144.97362
  22367683.0424   -8118344.98946     60452.12161
  20779183.9174  -17007866.61247 -12786727.90262
  20622533.4644  -19153452.79347 -14518891.23761
 90  7 26 18 49 29.9990000  0  5G 2G 6G18G 9G13
  23627731.7374    8977102.63844   6963704.78561
  20291846.7844   -8782934.61246  -6791934.51462
  22368530.9804   -8113888.51046     63924.68261
  20771484.4334  -17048339.53547 -12818265.21262
  20615567.6904  -19190049.06047 -14547407.77361
 90  7 26 18 49 44.9990000  0  5G 2G 6G18G 9G13
  23632694.0424    9003180.59044   6984025.18761
  20291190.2224   -8786379.10746  -6794618.55062
  22369404.4254   -8109304.17246     67496.87661
  20763797.9014  -17088721.22847 -12849731.43262
  20608629.7064  -19226512.49547 -14575820.80361
 90  7 26 18 49 59.9990000  0  5G 2G 6G18G 9G13
  23637663.6594    9029279.11245   7004361.60361
  20290558.5814   -8789696.72546  -6797203.72062
  22370296.7844   -8104601.14046     71161.53961
  20756129.3554  -17129020.03747 -12881133.07762
  20601715.2534  -19262851.68547 -14604137.02761
 90  7 26 18 50 14.9990000  0  5G 2G 6G18G 9G13
  23642635.4724    9055400.10045   7024715.52061
  20289952.1284   -8792885.16146  -6799688.23262
  22371216.6204   -8099777.40946     74920.25461
  20748479.8004  -17169233.39347 -12912468.12962
  20594820.8554  -19299064.52747 -14632354.79861
 90  7 26 18 50 29.9990000  0  5G 2G 6G18G 9G13
  23647609.6904    9081538.58545   7045083.11061
  20289368.5814   -8795947.66546  -6802074.61562
  22372156.3944   -8094836.25846     78770.46161
  20740840.0734  -17209364.42047 -12943739.03062
  20587956.5974  -19335154.32047 -14660476.68161
 90  7 26 18 50 44.9990000  0  5G 2G 6G18G 9G13
  23652590.3624    9107691.27945   7065461.75761
  20288808.0734   -8798886.70346  -6804364.78962
  22373118.4874   -8089781.21546     82709.41761
  20733219.9804  -17249415.38147 -12974947.54862
  20581108.9334  -19371123.42547 -14688504.52561
 90  7 26 18 50 59.9990000  0  5G 2G 6G18G 9G13
  23657564.9334    9133862.36545   7085854.71461
  20288274.3474   -8801697.87946  -6806555.32762
  22374103.9954   -8084609.72446     86739.11861
  20725615.5344  -17289381.59947 -13006090.03562
  20574289.3084  -19406967.53847 -14716434.97061
 90  7 26 18 51 14.9990000  0  5G 2G 6G18G 9G13
  23662548.9564    9160052.69845   7106262.66361
  20287765.7304   -8804379.56646  -6808644.97762
  22375108.8314   -8079321.37846     90859.85061
  20718024.8864  -17329261.42747 -13037165.20162
  20567494.2304  -19442685.46247 -14744267.08661
 90  7 26 18 51 29.9990000  0  5G 2G 6G18G 9G13
  23667537.4094    9186259.93445   7126683.78761
  20287278.2064   -8806932.68846  -6810634.44062
  22376136.9404   -8073917.28946     95070.78861
  20710452.0344  -17369055.33647 -13068173.41762
  20560720.7764  -19478277.85447 -14772001.38561
 90  7 26 18 51 44.9990000  0  5G 2G 6G18G 9G13
  23672528.4094    9212485.08845   7147118.89461
  20286817.2614   -8809356.56046  -6812523.18462
  22377187.1124   -8068396.74146     99372.47661
  20702897.8314  -17408762.35147 -13099113.93062
  20553969.9094  -19513743.70347 -14799637.06961
 90  7 26 18 51 59.9990000  0  5G 2G 6G18G 9G13
  23677521.1984    9238727.41945   7167567.37361
  20286381.5194   -8811651.43946  -6814311.42062
  22378261.1754   -8062759.12546    103765.37061
  20695357.6514  -17448382.78847 -13129986.97662
  20547246.1444  -19549083.83447 -14827174.80161
 90  7 26 18 52 14.9990000  0  5G 2G 6G18G 9G13
  23682519.6514    9264984.04645   7188026.99361
  20285969.4094   -8813819.95046  -6816001.18162
  22379356.6204   -8057006.19646    108248.12561
  20687832.4564  -17487918.91447 -13160794.32162
  20540546.1284  -19584300.66347 -14854616.46361
 90  7 26 18 52 29.9990000  0  4G 6G18G 9G13
  20285580.7694   -8815859.85446  -6817590.73662
  22380469.5654   -8051136.25845    112822.06661
  20680325.2304  -17527368.51647 -13191534.24162
  20533866.9804  -19619392.17447 -14881960.46961
 90  7 26 18 52 44.9990000  0  4G 6G18G 9G13
  20285216.9874   -8817770.81846  -6819079.82062
  22381610.4014   -8045149.27945    117487.19961
  20672835.5504  -17566730.90447 -13222206.20262
  20527211.9174  -19654358.20647 -14909206.69362
 90  7 26 18 52 59.9990000  0  4G 6G18G 9G13
  20284880.3784   -8819551.74646  -6820467.57062
  22382772.7534   -8039044.46045    122244.15361
  20665363.0034  -17606004.68847 -13252809.12962
  20520583.9874  -19689197.36847 -14936354.05762
 90  7 26 18 53 14.9990000  0  4G 6G18G 9G13
  20284564.8554   -8821203.53346  -6821754.68962
  22383956.9174   -8032822.11545    127092.69161
  20657905.0344  -17645190.50647 -13283343.51262
  20513976.5344  -19723910.62847 -14963403.32362
 90  7 26 18 53 29.9990000  0  4G 6G18G 9G13
  20284274.8624   -8822718.35146  -6822935.09262
  22385163.5654   -8026473.19545    132039.86261
  20650467.0114  -17684280.24147 -13313803.02762
  20507394.1984  -19758490.15847 -14990348.38062
 90  7 26 18 53 44.9990000  0  4G 6G18G 9G13
  20284011.2144   -8824106.21146  -6824016.56362
  22386396.5344   -8020006.66145    137078.68461
  20643046.7614  -17723284.08347 -13344195.61062
  20500838.5114  -19792946.25847 -15017197.26162
 90  7 26 18 53 59.9980000  0  4G 6G18G 9G13
  20283770.4674   -8825367.18146  -6824999.15562
  22387648.5614   -8013424.31945    142207.75561
  20635641.7174  -17762199.13747 -13374519.00562
  20494306.1704  -19827276.85547 -15043948.34462
 90  7 26 18 54 14.9980000  0  4G 6G18G 9G13
  20283555.2174   -8826499.36646  -6825881.39562
  22388923.6234   -8006724.09346    147428.67861
  20628251.1154  -17801028.36247 -13404775.51862
  20487797.7094  -19861484.60847 -15070603.70562
 90  7 26 18 54 29.9980000  0  4G 6G18G 9G13
  20283365.8504   -8827496.92046  -6826658.73262
  22390223.1074   -7999901.95246    152744.60461
  20620881.8504  -17839763.07347 -13434958.38862
  20481310.8264  -19895561.14147 -15097156.81862
 90  7 26 18 54 44.9980000  0  4G 6G18G 9G13
  20283201.7954   -8828363.53946  -6827334.03462
  22391544.0294   -7992963.05846    158151.49661
  20613527.0224  -17878406.72047 -13465070.30362
  20474851.3734  -19929510.42147 -15123610.77862
 90  7 26 18 54 59.9980000  0  4G 6G18G 9G13
  20283063.6934   -8829097.30146  -6827905.81562
  22392887.7254   -7985906.04546    163650.42961
  20606190.6784  -17916957.36147 -13495109.74362
  20468415.4284  -19963330.72347 -15149964.23262
 90  7 26 18 55 14.9980000  0  4G 6G18G 9G13
  20282949.0454   -8829698.95646  -6828374.65262
  22394251.4984   -7978731.65546    169240.81961
  20598871.4754  -17955415.36747 -13525077.00562
  20462004.0614  -19997022.62447 -15176217.62562
 90  7 26 18 55 29.9980000  0  4G 6G18G 9G13
  20282856.0224   -8830167.38446  -6828739.68062
  22395638.2174   -7971437.99846    174924.16661
  20591572.1234  -17993779.49847 -13554971.10662
  20455618.5454  -20030585.25247 -15202370.29762
 90  7 26 18 55 44.9980000  0  4G 6G18G 9G13
  20282793.4824   -8830504.27346  -6829002.21062
  22397047.3114   -7964029.37746    180697.08161
  20584287.1004  -18032051.00347 -13584793.04662
  20449256.7094  -20064020.04947 -15228423.36362
 90  7 26 18 55 59.9980000  0  4G 6G18G 9G13
  20282753.7484   -8830706.33646
  22398479.4904   -7956505.18646    186560.04661
  20577023.2724  -18070226.48847 -13614540.16162
  20442919.6314  -20097323.83347 -15254374.33062
 90  7 26 18 56 14.9980000  0  4G 6G18G 9G13
  20282742.9434   -8830776.11246
  22399934.6934   -7948868.86546    192510.39161
  20569777.8034  -18108308.37547 -13644214.33562
  20436604.2404  -20130499.45047 -15280225.43762
 90  7 26 18 56 29.9980000  0  4G 6G18G 9G13
  20282756.3034   -8830712.71546
  22401406.8034   -7941119.76746    198548.61161
  20562549.1154  -18146295.70347 -13673814.83262
  20430314.1784  -20163546.13947 -15305976.08062
 90  7 26 18 56 44.9980000  0  4G 6G18G 9G13
  20282791.1314   -8830516.47146
  22402903.9984   -7933257.80646    204674.76661
  20555337.7254  -18184188.01047 -13703341.28962
  20424052.6474  -20196463.76747 -15331626.14662
 90  7 26 18 56 59.9980000  0  4G 6G18G 9G13
  20282853.0374   -8830190.75946
  22404421.4434   -7925284.72146    210887.52161
  20548142.9284  -18221988.66847 -13732796.32962
  20417814.0684  -20229255.90847 -15357178.44262
 90  7 26 18 57 14.9980000  0  4G 6G18G 9G13
  20282939.5144   -8829737.59846        -0.40172
  22405960.0924   -7917201.93945    217185.75061
  20540968.2724  -18259699.67547 -13762181.50762
  20411595.3424  -20261924.93147 -15382634.79462
 90  7 26 18 57 29.9980000  0  5G12G 6G18G 9G13
  23628630.3894         -0.49153
  20283051.5064   -8829150.91946       456.72862
  22407523.7954   -7909003.54445    223574.07361
  20533812.4824  -18297314.57547 -13791491.79862
  20405402.3574  -20294464.78947 -15407990.50062
 90  7 26 18 57 44.9980000  0  5G12G 6G18G 9G13
  23617726.1704     -57302.71243
  20283188.2404   -8828429.93446      1018.51462
  22409103.1544   -7900690.68145    230051.58961
  20526670.5144  -18334832.71547 -13820726.69062
  20399237.8574  -20326874.81947 -15433245.05162
 90  7 26 18 57 59.9980000  0  5G12G 6G18G 9G13
  23606821.9674    -114605.92843
  20283352.2644   -8827576.15446      1683.77762
  22410705.0064   -7892265.62645    236616.52061
  20519550.4364  -18372254.76647 -13849886.70862
  20393094.1004  -20359156.36147 -15458399.48062
 90  7 26 18 58 14.9980000  0  5G12G 6G18G 9G13
  23595920.3894    -171912.20643
  20283538.6474   -8826591.73346      2450.84262
  22412327.4364   -7883728.42245    243268.84761
  20512448.3034  -18409582.81847 -13878973.47762
  20386974.1394  -20391311.63247 -15483455.50762
 90  7 26 18 58 29.9980000  0  5G12G 6G18G 9G13
  23585013.2724    -229216.98543
  20283752.7874   -8825472.10746      3323.25162
  22413974.6234   -7875073.11545    250013.20361
  20505360.7484  -18446812.22347 -13907983.38462
  20380883.5454  -20423336.24647 -15508409.72062
 90  7 26 18 58 44.9980000  0  5G12G 6G18G 9G13
  23574106.6704    -286518.71344
  20283991.2174   -8824215.88846      4302.10362
  22415644.7644   -7866298.72145    256850.34661
  20498297.4984  -18483941.40547 -13936915.18762
  20374811.6234  -20455228.88947 -15533261.10062
 90  7 26 18 58 59.9980000  0  5G12G 6G18G 9G13
  23563203.6074    -343816.86944
  20284255.3734   -8822822.68346      5387.69762
  22417338.3974   -7857405.50745    263780.06661
  20491249.1784  -18520969.50847 -13965768.23262
  20368768.2014  -20486989.12347 -15558009.31462
 90  7 26 18 59 14.9980000  0  5G12G 6G18G 9G13
  23552300.0924    -401117.22144
  20284545.9754   -8821298.57646      6575.29462
  22419050.3894   -7848400.19645    270797.13561
  20484222.3974  -18557902.25847 -13994546.97662
  20362747.2954  -20518622.88147 -15582658.96562
 90  7 26 18 59 29.9980000  0  5G12G 6G18G 9G13
  23541397.5924    -458419.91644
  20284860.4044   -8819643.69946      7864.79062
  22420785.0224   -7839286.06145    277898.99561
  20477211.8734  -18594740.01047 -14023251.69462
  20356750.9364  -20550130.53647 -15607210.35462
 90  7 26 18 59 44.9980000  0  5G12G 6G18G 9G13
  23530489.8184    -515721.11144
  20285202.1004   -8817854.49046      9258.95662
  22422543.5454   -7830060.92345    285087.36061
  20470218.9824  -18631478.74347 -14051879.24962
  20350781.2094  -20581508.54447 -15631660.72262
 90  7 26 18 59 59.9980000  0  5G12G 6G18G 9G13
  23519581.8974    -573024.49945        -0.10171
  20285565.0064   -8815934.80246     10754.80062
  22424317.9434   -7820729.56046    292358.49461
  20463247.4124  -18668121.98847 -14080432.40462
  20344834.4824  -20612760.85047 -15656013.14262
 90  7 26 19  0 14.9980000  0  5G12G 6G18G 9G13
  23508685.8264    -630323.56045    -44648.63961
  20285957.7644   -8813878.38246     12357.18562
  22426113.9984   -7811283.75546    299718.80561
  20456294.1934  -18704663.09947 -14108905.97062
  20338911.8654  -20643881.34847 -15680262.85462
 90  7 26 19  0 29.9980000  0  5G12G 6G18G 9G13
  23497782.0844    -687620.77145    -89295.72861
  20286374.4904   -8811687.78646     14064.12462
  22427935.5844   -7801726.91946    307165.64161
  20449359.9754  -18741104.71147 -14137302.00862
  20333013.2954  -20674872.60747 -15704411.85862
 90  7 26 19  0 44.9980000  0  5G12G 6G18G 9G13
  23486873.9364    -744917.93845   -133942.75461
  20286817.5614   -8809365.03946     15874.02962
  22429775.2564   -7792063.38646    314695.61761
  20442444.8814  -18777448.48147 -14165621.80762
  20327140.5294  -20705736.75047 -15728461.81762
 90  7 26 19  0 59.9980000  0  5G12G 6G18G 9G13
  23475970.6704    -802212.02545   -178587.41461
  20287284.2324   -8806907.25346     17789.17262
  22431633.8184   -7782291.90146    322309.71461
  20435547.2324  -18813691.19947 -14193862.86962
  20321293.7874  -20736470.99347 -15752410.54562
 90  7 26 19  1 14.9980000  0  5G12G 6G18G 9G13
  23465072.6314    -859504.96445   -223231.16061
  20287777.4284   -8804316.43946     19807.96662
  22433514.7404   -7772413.93646    330006.79161
  20428669.0844  -18849834.63047 -14222026.55562
  20315467.2324  -20767077.29547 -15776259.58362
 90  7 26 19  1 29.9980000  0  5G12G 6G18G 9G13
  23454172.1004    -916792.03445   -267870.35961
  20288296.7324   -8801588.11646     21933.91362
  22435415.3264   -7762425.00646    337790.34861
  20421811.4904  -18885874.20147 -14250109.32462
  20309669.3894  -20797551.14947 -15800005.42562
 90  7 26 19  1 44.9980000  0  5G12G 6G18G 9G13
  23443267.1624    -974074.82645   -312506.21261
  20288842.3504   -8798724.07046     24165.61362
  22437336.7794   -7752326.54246    345659.23961
  20414971.8734  -18921811.19247 -14278112.14962
  20303895.6624  -20827894.53047 -15823649.58962
 90  7 26 19  1 59.9980000  0  5G12G 6G18G 9G13
  23432366.0614   -1031358.79645   -357143.02061
  20289412.6074   -8795730.02446     26498.61562
  22439278.4904   -7742122.16846    353610.64961
  20408153.5844  -18957651.15847 -14306039.37562
  20298143.7324  -20858112.80047 -15847196.27462
 90  7 26 19  2 14.9980000  0  5G12G 6G18G 9G13
  23421468.0614   -1088639.62545   -401777.32161
  20290005.3114   -8792601.42146     28936.46662
  22441240.3344   -7731807.35146    361648.13161
  20401349.8264  -18993389.58147 -14333887.47562
  20292419.5144  -20888201.96647 -15870642.35162
 90  7 26 19  2 29.9980000  0  5G12G 6G18G 9G13
  23410568.8654   -1145917.59045   -446409.40361
  20290628.0294   -8789339.16946     31478.45462
  22443223.0684   -7721383.09546    369770.90461
  20394569.4434  -19029026.56847 -14361656.53862
  20286716.2724  -20918162.88347 -15893988.49262
 90  7 26 19  2 44.9980000  0  5G12G 6G18G 9G13
  23399669.9044   -1203187.37345   -491035.12461
  20291274.5294   -8785938.04946     34128.65962
  22445229.0294   -7710845.12046    377982.27361
  20387809.6234  -19064557.12247 -14389342.66462
  20281041.4674  -20947990.41847 -15917230.69662
 90  7 26 19  2 59.9980000  0  5G12G 6G18G 9G13
  23388775.0924   -1260447.99045   -535653.70861
  20291949.1624   -8782397.16046     36887.77262
  22447256.5924   -7700192.08746    386283.30861
  20381066.0764  -19099979.79447 -14416944.72862
  20275392.3654  -20977683.69947 -15940368.29562
 90  7 26 19  3 14.9980000  0  5G12G 6G18G 9G13
  23377880.1394   -1317704.93845   -580269.41261
  20292647.4824   -8778722.19746     39751.36362
  22449304.9364   -7689428.56546    394670.44461
  20374346.6474  -19135300.13947 -14444467.05962
  20269766.0924  -21007248.26447 -15963405.59162
 90  7 26 19  3 29.9980000  0  5G12G 6G18G 9G13
  23366982.6004   -1374955.73844   -624880.32561
  20293373.9514   -8774910.77946     42721.27562
  22451375.2564   -7678551.70546    403145.87661
  20367645.4044  -19170515.58147 -14471907.64362
  20264162.4754  -21036681.95647 -15986340.90762
 90  7 26 19  3 44.9980000  0  5G12G 6G18G 9G13
  23356084.3034   -1432201.44244   -669487.27961
  20294124.3114   -8770964.33246     45796.41662
  22453464.2174   -7667564.99946    411706.89861
  20360965.0534  -19205627.07647 -14499267.24162
  20258585.4594  -21065986.02247 -16009175.21261
 90  7 26 19  3 59.9980000  0  5G12G 6G18G 9G13
  23345188.2174   -1489442.14344   -714090.31461
  20294901.9204   -8766883.07146     48976.59562
  22455575.1864   -7656469.94445    420352.34761
  20354301.4674  -19240634.86647 -14526546.02462
  20253035.9124  -21095160.97247 -16031908.91262
 90  7 26 19  4 14.9980000  0  5G12G 6G18G 9G13
  23334301.9364   -1546676.49144   -758688.41061
  20295704.4364   -8762665.94046     52262.64962
  22457709.1314   -7645266.94746    429081.88961
  20347658.0684  -19275537.50047 -14553742.86962
  20247510.3504  -21124205.88347 -16054541.28662
 90  7 26 19  4 29.9980000  0  5G12G 6G18G 9G13
  23323415.2484   -1603903.89245   -803281.07761
  20296533.1394   -8758312.55646     55654.87562
  22459861.9124   -7633956.91345    437894.86361
  20341038.2014  -19310334.20347 -14580857.17262
  20242006.9674  -21153120.28347 -16077071.96062
 90  7 26 19  4 44.9980000  0  5G12G 6G18G 9G13
  23312521.4754   -1661122.72145   -847867.11061
  20297387.7254   -8753821.50247     59154.37562
  22462032.4984   -7622537.90745    446792.75461
  20334438.3894  -19345023.45847 -14607887.74862
  20236528.4204  -21181902.82747 -16099499.88862
 90  7 26 19  4 59.9980000  0  5G12G 6G18G 9G13
  23301638.7954   -1718328.74345   -892443.12561
  20298267.6624   -8749188.93746     62764.14562
  22464228.1314   -7611005.81445    455778.74761
  20327859.7404  -19379600.96147 -14634831.25162
  20231075.5844  -21210549.84847 -16121822.22362
 90  7 26 19  5 14.9980000  0  5G12G 6G18G 9G13
  23290758.6624   -1775527.79145   -937013.71761
  20299174.6934   -8744420.55346     66479.74662
  22466443.0224   -7599367.82245    464847.26361
  20321299.4124  -19414072.32547 -14661692.04062
  20225650.1394  -21239067.12447 -16144043.45562
 90  7 26 19  5 29.9980000  0  5G12G 6G18G 9G13
  23279878.2484   -1832721.61745   -981580.25461
  20300109.2014   -8739518.44646     70299.54562
  22468677.4434   -7587627.95045    473995.16561
  20314759.0764  -19448439.32947 -14688471.50662
  20220248.2954  -21267456.65747 -16166165.14362
 90  7 26 19  5 44.9980000  0  5G12G 6G18G 9G13
  23268989.1474   -1889910.32945  -1026142.77561
  20301066.8574   -8734482.90946     74223.31762
  22470934.1474   -7575788.26345    483220.85361
  20308238.3574  -19482701.94847 -14715169.64362
  20214871.3034  -21295718.81547 -16188187.58162
 90  7 26 19  5 59.9980000  0  5G12G 6G18G 9G13
  23258108.7254   -1947089.98345  -1070698.28661
  20302051.5454   -8729310.22146     78253.95462
  22473203.1394   -7563844.49245    492527.62561
  20301737.4434  -19516856.26947 -14741783.38662
  20209518.1704  -21323849.83647 -16210107.83862
 90  7 26 19  6 14.9980000  0  5G12G 6G18G 9G13
  23247231.9514   -2004257.49745  -1115244.28461
  20303061.2404   -8723997.50946     82393.70962
  22475497.1234   -7551792.31145    501918.88961
  20295259.2874  -19550899.11147 -14768310.26662
  20204191.3344  -21351846.82147 -16231923.64462
 90  7 26 19  6 29.9980000  0  5G12G 6G18G 9G13
  23236355.4434   -2061414.39645  -1159782.04061
  20304097.8504   -8718546.64146     86641.10562
  22477810.4434   -7539632.30845    511394.15861
  20288802.8814  -19584831.93147 -14794751.41162
  20198889.3034  -21379711.80747 -16253636.60062
 90  7 26 19  6 44.9980000  0  5G12G 6G18G 9G13
  23225475.9284   -2118563.05645  -1204313.38561
  20305162.4514   -8712960.10946     90994.22762
  22480142.0764   -7527366.69345    520951.73261
  20282365.1314  -19618657.13547 -14821108.70662
  20193610.6474  -21407447.39847 -16275248.73062
 90  7 26 19  6 59.9980000  0  5G12G 6G18G 9G13
  23214603.1004   -2175705.58145  -1248839.96361
  20306250.3504   -8707240.31246     95451.18062
  22482501.4594   -7514999.33645    530588.58261
  20275948.8034  -19652376.84047 -14847383.79262
  20188357.2794  -21435056.05347 -16296761.94062
 90  7 26 19  7 14.9980000  0  5G12G 6G18G 9G13
  23203738.1784   -2232836.57045  -1293357.49061
  20307366.1004   -8701381.94146    100016.12162
  22484875.7014   -7502527.10645    540307.14461
  20269553.5684  -19685985.50447 -14873572.34462
  20183127.6474  -21462532.58847 -16318172.20562
 90  7 26 19  7 29.9980000  0  5G12G 6G18G 9G13
  23192868.8894   -2289949.21245  -1337860.74361
  20308508.1544   -8695378.47746    104694.11862
  22487266.7874   -7489943.84445    550112.23061
  20263179.5454  -19719476.10247 -14899668.90162
  20177925.3034  -21489870.43647 -16339474.40162
 90  7 26 19  7 44.9980000  0  5G12G 6G18G 9G13
  23181999.4824   -2347047.13045  -1382352.55961
  20309679.2174   -8689233.75346    109482.18262
  22489681.9594   -7477252.54345    560001.50561
  20256829.9514  -19752852.28547 -14925676.29862
  20172747.3654  -21517073.43747 -16360671.52562
 90  7 26 19  7 59.9980000  0  5G12G 6G18G 9G13
  23171134.4674   -2404137.02545  -1426838.09461
  20310872.0294   -8682954.81546    114374.83762
  22492115.9514   -7464459.67245    569969.91561
  20250499.1544  -19786120.97447 -14951599.93962
  20167596.3184  -21544148.85647 -16381769.23162
 90  7 26 19  8 14.9980000  0  5G12G 6G18G 9G13
  23160280.1474   -2461214.11445  -1471313.63561
  20312092.3424   -8676537.03846    119375.67262
  22494570.3034   -7451560.13946    580021.44161
  20244189.2404  -19819276.98947 -14977435.78662
  20162467.2794  -21571091.95347 -16402763.82962
 90  7 26 19  8 29.9980000  0  5G12G 6G18G 9G13
  23149416.2724   -2518278.46245  -1515779.29061
  20313342.1624   -8669980.63246    124484.53262
  22497045.4284   -7438555.21646    590155.09661
  20237900.0684  -19852320.49047 -15003183.95562
  20157367.1544  -21597902.95047 -16423655.49362
 90  7 26 19  8 44.9980000  0  5G12G 6G18G 9G13
  23138556.1004   -2575328.51145  -1560233.78961
  20314615.7014   -8663284.33946    129702.39762
  22499538.0224   -7425444.99746    600370.78761
  20231635.7174  -19885249.89047 -15028843.21862
  20152290.3114  -21624580.74147 -16444443.36562
 90  7 26 19  8 59.9980000  0  5G12G 6G18G 9G13
  23127704.3344   -2632364.89745  -1604677.65361
  20315915.0614   -8656449.05746    135028.56562
  22502053.7484   -7412231.15746    610667.22961
  20225390.6314  -19918065.71447 -15054413.97562
  20147241.2094  -21651126.42147 -16465128.28862
 90  7 26 19  9 14.9980000  0  5G12G 6G18G 9G13
  23116860.5614   -2689388.42145  -1649111.47661
  20317243.4904   -8649475.79646    140462.24162
  22504588.6004   -7398914.37246    621043.90361
  20219167.3814  -19950768.72947 -15079896.82662
  20142210.5844  -21677540.88847 -16485710.96862
 90  7 26 19  9 29.9980000  0  5G12G 6G18G 9G13
  23106010.8974   -2746397.46645  -1693533.99561
  20318595.1314   -8642363.28046    146004.44262
  22507145.0534   -7385492.81246    631502.21061
  20212966.9904  -19983357.44747 -15105290.62162
  20137209.0924  -21703823.00547 -16506190.51462
 90  7 26 19  9 44.9980000  0  5G12G 6G18G 9G13
  23095157.5844   -2803393.98145  -1737946.76861
  20319975.1784   -8635113.74046    151653.39862
  22509719.2484   -7371968.38246    642040.67161
  20206785.8654  -20015833.63647 -15130596.72962
  20132233.6544  -21729975.00947 -16526568.67862
 90  7 26 19  9 59.9980000  0  5G12G 6G18G 9G13
  23084312.7254   -2860378.18045  -1782349.97361
  20321382.7324   -8627727.46646    157408.90262
  22512310.4124   -7358340.81346    652659.49261
  20200629.0294  -20048197.57047 -15155815.36862
  20127280.5614  -21755997.33147 -16546845.79462
 90  7 26 19 10 14.9980000  0  5G12G 6G18G 9G13
  23073475.6784   -2917350.96745  -1826744.27361
  20322813.1544   -8620205.77746    163269.92862
  22514922.3734   -7344611.13646    663357.87361
  20194490.2254  -20080450.00547 -15180947.12362
  20122352.6074  -21781891.28147 -16567022.87262
 90  7 26 19 10 29.9980000  0  5G12G 6G18G 9G13
  23062638.8574   -2974310.59245  -1871128.30161
  20324269.8814   -8612547.10746    169237.69662
  22517554.1394   -7330779.07946    674136.04061
  20188374.4434  -20112589.26147 -15205990.68262
  20117452.5614  -21807655.26147 -16587098.68462
 90  7 26 19 10 44.9980000  0  5G12G 6G18G 9G13
  23051797.6394   -3031257.53845  -1915502.44661
  20325753.5374   -8604752.18746    175311.62462
  22520206.2794   -7316847.30246    684991.90461
  20182278.7564  -20144615.66747 -15230946.30262
  20112574.7094  -21833289.99347 -16607073.78162
 90  7 26 19 10 59.9980000  0  5G12G 6G18G 9G13
  23040961.4514   -3088191.62645  -1959866.60261
  20327263.6784   -8596820.97446    181491.76362
  22522877.4044   -7302817.24146    695924.35561
  20176206.4754  -20176529.01147 -15255813.82662
  20107721.8654  -21858795.61947 -16626948.26862
 90  7 26 19 11 14.9980000  0  5G12G 6G18G 9G13
  23030134.3034   -3145109.56945  -2004218.15861
  20328799.2794   -8588750.52746    187780.39162
  22525565.8424   -7288686.78346    706935.03861
  20170155.6314  -20208325.94047 -15280590.63762
  20102893.4364  -21884169.19947 -16646719.86862
 90  7 26 19 11 29.9980000  0  5G12G 6G18G 9G13
  23019308.8974   -3202009.27645  -2048555.50961
  20330361.6394   -8580538.99246    194178.95762
  22528270.9044   -7274455.25446    718024.47861
  20164128.8504  -20240004.41047 -15305275.14162
  20098087.7644  -21909409.04247 -16666387.25562
 90  7 26 19 11 44.9980000  0  5G12G 6G18G 9G13
  23008478.8114   -3258895.05245  -2092882.00761
  20331949.7874   -8572191.00246    200683.85862
  22531001.0844   -7260128.53446    729188.10261
  20158123.5534  -20271568.72847 -15329870.69362
  20093309.6934  -21934519.65747 -16685953.94362
 90  7 26 19 11 59.9980000  0  5G12G 6G18G 9G13
  22997651.8574   -3315765.74545  -2137196.75761
  20333565.9984   -8563705.69747    207295.75462
  22533743.3344   -7245705.74746    740426.58961
  20152136.4434  -20303017.70347 -15354376.37362
  20088556.4754  -21959500.30047 -16705419.36462
 90  7 26 19 12 14.9980000  0  5G12G 6G18G 9G13
  22986840.1624   -3372618.13845  -2181497.25961
  20335206.5224   -8555080.11947    214016.95162
  22536506.4514   -7231184.44146    751741.84161
  20146174.1934  -20334347.98647 -15378789.56462
  20083828.8504  -21984348.05547 -16724781.23062
 90  7 26 19 12 29.9980000  0  5G12G 6G18G 9G13
  22976026.2254   -3429452.97545  -2225784.06061
  20336875.3504   -8546315.27247    220846.66862
  22539288.9984   -7216566.90746    763132.08461
  20140234.2724  -20365560.48547 -15403110.97262
  20079124.4824  -22009063.92547 -16744040.32962
 90  7 26 19 12 44.9980000  0  5G12G 6G18G 9G13
  22965210.9204   -3486271.74145  -2270058.34961
  20338568.5454   -8537412.97647    227783.48962
  22542091.7324   -7201855.49946    774595.46161
  20134318.3734  -20396656.76547 -15427341.82662
  20074443.8894  -22033649.94347 -16763198.23862
 90  7 26 19 12 59.9980000  0  5G12G 6G18G 9G13
  22954400.0684   -3543078.19245  -2314323.03661
  20340288.7094   -8528377.30946    234824.23962
  22544906.5924   -7187052.53846    786130.18461
  20128421.9674  -20427640.31247 -15451484.83162
  20069791.4364  -22058110.18147 -16782258.14162
 90  7 26 19 13 14.9980000  0  5G12G 6G18G 9G13
  22943594.5614   -3599872.27145  -2358578.08861
  20342032.8034   -8519208.44646    241968.77762
  22547736.8894   -7172156.05946    797737.76461
  20122546.5144  -20458511.23447 -15475540.07262
  20065161.9044  -22082445.11347 -16801220.40562
 90  7 26 19 13 29.9980000  0  5G12G 6G18G 9G13
  22932788.9674   -3656647.19545  -2402818.20961
  20343803.5764   -8509899.76846    249222.26462
  22550595.0144   -7157158.55046    809424.06861
  20116695.4204  -20489262.49547 -15499502.08262
  20060553.9124  -22106647.88147 -16820079.68762
 90  7 26 19 13 44.9980000  0  5G12G 6G18G 9G13
  22921988.4044   -3713406.77745  -2447046.38561
  20345600.5294   -8500455.27446    256581.57862
  22553470.4364   -7142063.21546    821186.60061
  20110866.9124  -20519897.94447 -15523373.84662
  20055974.0374  -22130722.49347 -16838839.10462
 90  7 26 19 13 59.9980000  0  5G12G 6G18G 9G13
  22911190.0224   -3770147.39045  -2491259.78361
  20347426.0534   -8490871.76846    264049.21362
  22556361.1074   -7126865.65146    833028.79661
  20105058.6394  -20550414.02347 -15547152.59062
  20051417.1074  -22154665.74047 -16857496.15462
 90  7 26 19 14 14.9980000  0  5G12G 6G18G 9G13
  22900397.6234   -3826867.15345  -2535456.92861
  20349274.3264   -8481147.56846    271626.48462
  22559272.9984   -7111564.44646    844951.76461
  20099273.7174  -20580808.75147 -15570836.77862
  20046887.9594  -22178476.23447 -16876049.76662
 90  7 26 19 14 29.9980000  0  5G12G 6G18G 9G13
  22889608.0764   -3883569.14845  -2579640.23361
  20351151.8894   -8471286.32646    279310.53662
  22562200.1314   -7096164.82146    856951.40761
  20093513.4674  -20611085.36047 -15594428.92562
  20042379.6934  -22202157.45947 -16894502.64962
 90  7 26 19 14 44.9980000  0  5G12G 6G18G 9G13
  22878822.5454   -3940251.27745  -2623808.06261
  20353055.9754   -8461285.89546    287103.04562
  22565148.7324   -7080666.18745    869028.20361
  20087776.3344  -20641241.47147 -15617927.18162
  20037898.7254  -22225707.37847 -16912853.21562
 90  7 26 19 14 59.9980000  0  5G12G 6G18G 9G13
  22868039.9674   -3996912.42745  -2667959.54261
  20354984.2794   -8451145.61046    295004.53362
  22568116.9124   -7065068.53245    881182.17561
  20082058.1394  -20671276.19947 -15641330.84762
  20033443.3814  -22249125.38147 -16931100.99162
 90  7 26 19 15 14.9980000  0  5G12G 6G18G 9G13
  22857258.7564   -4053558.54345  -2712099.29261
  20356939.3654   -8440871.64646    303010.18662
  22571104.3264   -7049378.68545    893407.98661
  20076367.3504  -20701195.26147 -15664644.39062
  20029009.0374  -22272417.91147 -16949250.99262
 90  7 26 19 15 29.9980000  0  5G12G 6G18G 9G13
  22846484.8114   -4110184.01545  -2756222.94961
  20358920.7404   -8430458.75946    311124.09762
  22574107.2564   -7033594.07746    905707.62161
  20070697.6074  -20730993.22147 -15687863.55762
  20024598.8424  -22295579.34947 -16967298.84262
 90  7 26 19 15 44.9980000  0  5G12G 6G18G 9G13
  22835711.8574   -4166786.39145  -2800328.63061
  20360929.8654   -8419904.67046    319348.03162
  22577131.4044   -7017713.35946    918082.13861
  20065047.7874  -20760667.52047 -15710986.37562
  20020220.9674  -22318607.72047 -16985243.00162
 90  7 26 19 15 59.9980000  0  5G12G 6G18G 9G13
  22824943.7094   -4223370.09045  -2844419.74861
  20362964.9514   -8409214.26846    327678.18662
  22580170.6314   -7001743.14146    930526.40461
  20059424.4124  -20790222.60347 -15734016.29862
  20015863.8114  -22341508.03247 -17003087.38062
 90  7 26 19 16 14.9980000  0  5G12G 6G18G 9G13
  22814179.5534   -4279932.27745  -2888494.11561
  20365025.2564   -8398384.98247    336116.55962
  22583227.0844   -6985681.09946    943042.21961
  20053824.9284  -20819655.69947 -15756951.16762
  20011528.6704  -22364277.76347 -17020830.00662
 90  7 26 19 16 29.9980000  0  5G12G 6G18G 9G13
  22803416.8734   -4336474.00145  -2932552.53961
  20367112.0144   -8387418.12147    344662.13262
  22586297.5534   -6969530.05645    955627.37761
  20048246.5924  -20848967.77947 -15779791.73262
  20007221.2874  -22386918.40147 -17038472.03662
 90  7 26 19 16 44.9980000  0  5G12G 6G18G 9G13
  22792665.1624   -4392994.64545  -2976594.53561
  20369225.7324   -8376313.31947    353315.19562
  22589389.9904   -6953290.17345    968281.77261
  20042690.1624  -20878158.16547 -15802537.47562
  20002938.2954  -22409429.49747 -17056013.12662
 90  7 26 19 16 59.9980000  0  5G12G 6G18G 9G13
  22781914.1074   -4449495.90345  -3020621.42761
  20371363.4124   -8365072.65846    362074.12062
  22592499.9364   -6936962.65545    981004.46761
  20037160.2094  -20907228.63547 -15825189.77862
  19998677.5614  -22431812.93147 -17073454.74862
 90  7 26 19 17 14.9980000  0  5G12G 6G18G 9G13
  22771164.0534   -4505976.94145  -3064632.55961
  20373530.2724   -8353695.62947    370939.29562
  22595621.5454   -6920545.80545    993796.74461
  20031651.0924  -20936178.42347 -15847748.04562
  19994442.8424  -22454068.40247 -17090796.64462
 90  7 26 19 17 29.9980000  0  5G12G 6G18G 9G13
  22760423.1544   -4562437.92145  -3108628.06861
  20375720.0614   -8342182.73746    379910.34862
  22598761.0374   -6904039.05745   1006659.08061
  20026163.9754  -20965007.52447 -15870212.26862
  19990232.3424  -22476196.39747 -17108039.22362
 90  7 26 19 17 44.9980000  0  5G12G 6G18G 9G13
  22749684.3814   -4618872.17346  -3152602.72961
  20377935.8814   -8330527.48446    388992.32562
  22601922.6474   -6887436.33745   1019596.20761
  20020703.1074  -20993709.46647 -15892577.40962
  19986044.7174  -22498190.55847 -17125177.51562
 90  7 26 19 17 59.9980000  0  5G12G 6G18G 9G13
  22738951.8424   -4675281.70146  -3196558.15361
  20380182.2794   -8318732.34446    398183.30962
  22605099.5454   -6870740.74945   1032605.71061
  20015263.9594  -21022286.10047 -15914844.89862
  19981886.1934  -22520053.51147 -17142213.55962
 90  7 26 19 18 14.9980000  0  5G12G 6G18G 9G13
  22728220.2794   -4731666.96546  -3240494.64561
  20382454.2954   -8306798.08746    407482.69662
  22608294.8114   -6853952.25845   1045687.57961
  20009850.4904  -21050737.95247 -15937015.16762
  19977749.5374  -22541785.94347 -17159147.90962
 90  7 26 19 18 29.9980000  0  5G12G 6G18G 9G13
  22717495.3574   -4788031.93246  -3284415.33861
  20384750.1394   -8294729.03846    416887.11662
  22611505.4984   -6837075.88645   1058837.93861
  20004461.0764  -21079069.10347 -15959091.37862
  19973638.4044  -22563392.43747 -17175984.11462
 90  7 26 19 18 44.9980000  0  5G12G 6G18G 9G13
  22706773.6394   -4844368.98846  -3328314.27661
  20387074.2404   -8282517.80546    426402.33062
  22614733.3504   -6820103.95746   1072062.72761
  19999091.5844  -21107271.85547 -15981067.54362
  19969553.3814  -22584865.45347 -17192716.32061
 90  7 26 19 18 59.9980000  0  5G12G 6G18G 9G13
  22696055.7954   -4900683.45946  -3372195.61861
  20389422.9284   -8270170.13446    436023.85562
  22617980.4904   -6803042.21845   1085357.53061
  19993749.3734  -21135351.47947 -16002947.76462
  19965490.4984  -22606210.71247 -17209348.97461
 90  7 26 19 19 14.9980000  0  5G12G 6G18G 9G13
  22685346.2954   -4956971.99046  -3416056.73961
  20391800.2174   -8257683.01446    445754.04462
  22621244.0924   -6785887.92645   1098724.44861
  19988429.8894  -21163304.78147 -16024729.54862
  19961453.4904  -22627425.37647 -17225879.86762
 90  7 26 19 19 29.9980000  0  5G12G 6G18G 9G13
  22674642.0684   -5013235.07546  -3459898.04561
  20394202.6314   -8245057.14746    455592.35062
  22624527.1474   -6768642.47445   1112162.40561
  19983133.1074  -21191132.15747 -16046413.21162
  19957441.5144  -22648510.26447 -17242309.62762
 90  7 26 19 19 44.9980000  0  5G12G 6G18G 9G13
  22663941.3574   -5069472.33546  -3503719.21561
  20396632.9434   -8232292.46546    465538.82162
  22627827.2484   -6751307.82045   1125669.87261
  19977865.0144  -21218833.25347 -16067998.47162
  19953452.7174  -22669465.28647 -17258638.19962
 90  7 26 19 19 59.9980000  0  5G12G 6G18G 9G13
  22653240.1864   -5125687.91546  -3547523.48961
  20399085.6934   -8219393.50946    475589.92262
  22631140.1234   -6733889.78945   1139242.31461
  19972614.9514  -21246412.22347 -16089488.57462
  19949491.8574  -22690294.96647 -17274869.09962
 90  7 26 19 20 14.9980000  0  5G12G 6G18G 9G13
  22642546.8034   -5181879.11846  -3591308.78061
  20401567.3114   -8206357.81346    485747.57362
  22634469.9674   -6716384.47645   1152882.75861
  19967390.5764  -21273866.34447 -16110881.38862
  19945550.9594  -22710996.95347 -17291000.50162
 90  7 26 19 20 29.9980000  0  5G12G 6G18G 9G13
  22631859.7874   -5238046.06646  -3635075.16561
  20404073.4594   -8193185.86547    496011.39562
  22637820.5684   -6698791.58045   1166591.44061
  19962190.2954  -21301195.67347 -16132176.96362
  19941633.8424  -22731571.62047 -17307032.69062
 90  7 26 19 20 44.9980000  0  5G12G 6G18G 9G13
  22621174.5534   -5294180.47646  -3678816.19861
  20406606.5534   -8179869.94546    506387.40362
  22641188.7484   -6681104.96045   1180373.18161
  19957012.8264  -21328392.04247 -16153368.93662
  19937747.8344  -22752011.19347 -17322959.61962
 90  7 26 19 20 59.9980000  0  5G12G 6G18G 9G13
  22610495.6704   -5350289.34546  -3722537.33461
  20409166.5224   -8166417.22446    516870.01362
  22644568.3734   -6663332.05145   1194222.13361
  19951862.8504  -21355462.67247 -16174462.92462
  19933880.4044  -22772323.23947 -17338787.17162
 90  7 26 19 21 14.9980000  0  5G12G 6G18G 9G13
  22599826.6784   -5406374.89846  -3766240.30061
  20411752.2254   -8152830.38646    527457.13262
  22647963.1004   -6645475.75745   1208136.03861
  19946735.3734  -21382409.61747 -16195460.53762
  19930040.3344  -22792510.28147 -17354517.32062
 90  7 26 19 21 29.9980000  0  5G12G 6G18G 9G13
  22589161.3184   -5462433.98146  -3809922.64161
  20414365.6864   -8139106.42346    538151.09762
  22651381.3184   -6627532.15545   1222118.00961
  19941630.8894  -21409229.71647 -16216359.30462
  19926222.8814  -22812569.60547 -17370147.94062
 90  7 26 19 21 44.9980000  0  5G12G 6G18G 9G13
  22578495.7564   -5518466.49546  -3853584.26961
  20417002.6004   -8125245.69946    548951.63162
  22654810.4984   -6609503.15045   1236166.53061
  19936553.1074  -21435923.00447 -16237159.26662
  19922429.3974  -22832501.48247 -17385679.25962
 90  7 26 19 21 59.9980000  0  5G12G 6G18G 9G13
  22567836.3264   -5574473.81046  -3897226.26861
  20419664.8114   -8111249.90746    559857.40962
  22658255.0294   -6591391.01645   1250279.80261
  19931494.7014  -21462490.79347 -16257861.42762
  19918661.9044  -22852307.52247 -17401112.52662
 90  7 26 19 22 14.9980000  0  5G12G 6G18G 9G13
  22557186.9824   -5630453.36646  -3940846.63461
  20422353.9124   -8097116.88846    570870.12062
  22661721.6314   -6573191.97745   1264460.79361
  19926464.2564  -21488930.57447 -16278463.85262
  19914914.2644  -22871985.65147 -17416446.11262
 90  7 26 19 22 29.9980000  0  5G12G 6G18G 9G13
  22546539.5684   -5686399.31346  -3984440.81261
  20425072.4284   -8082841.09246    581994.08362
  22665205.0064   -6554901.21845   1278713.26861
  19921458.6234  -21515236.45147 -16298961.92962
  19911196.9824  -22891530.26947 -17431675.67262
 90  7 26 19 22 44.9980000  0  5G12G 6G18G 9G13
  22535895.9674   -5742314.51646  -4028011.03461
  20427814.0224   -8068425.78946    593226.75062
  22668698.3574   -6536524.56545   1293032.68261
  19916476.1394  -21541411.39147 -16319357.98262
  19907503.5374  -22910944.93647 -17446803.96862
 90  7 26 19 22 59.9980000  0  5G12G 6G18G 9G13
  22525263.0684   -5798200.55946  -4071558.53361
  20430584.6624   -8053872.85746    604566.65762
  22672208.9124   -6518064.88245   1307416.80261
  19911523.9514  -21567457.05847 -16339653.29962
  19903830.7644  -22930231.60147 -17461832.52861
 90  7 26 19 23 14.9980000  0  5G12G 6G18G 9G13
  22514633.8344   -5854059.68046  -4115085.05961
  20433380.3114   -8039185.08046    616011.64262
  22675740.1074   -6499524.48545   1321863.81661
  19906588.9124  -21593375.73647 -16359849.67162
  19900186.8424  -22949392.89247 -17476763.39262
 90  7 26 19 23 29.9980000  0  5G12G 6G18G 9G13
  22504009.5614   -5909888.94546  -4158588.30061
  20436200.7644   -8024359.86447    627563.72862
  22679289.3894   -6480902.22045   1336374.60961
  19901682.9674  -21619164.67847 -16379944.94062
  19896564.6544  -22968426.43347 -17491594.70661
 90  7 26 19 23 44.9980000  0  5G12G 6G18G 9G13
  22493387.2724   -5965688.45445  -4202068.37461
  20439048.3734   -8009397.63647    639222.57162
  22682845.9364   -6462199.72745   1350947.87161
  19896801.1314  -21644823.79447 -16399939.05362
  19892965.8574  -22987332.68347 -17506326.83762
 90  7 26 19 23 59.9980000  0  5G12G 6G18G 9G13
  22482775.5924   -6021456.03446  -4245523.56861
  20441921.2874   -7994296.53847    650989.62662
  22686418.0844   -6443414.92445   1365585.31661
  19891939.5534  -21670351.09647 -16419830.44362
  19889392.5924  -23006109.79747 -17520958.34261
 90  7 26 19 24 14.9980000  0  5G12G 6G18G 9G13
  22472175.5064   -6077194.52946  -4288956.08861
  20444820.6074   -7979059.72847    662862.43662
  22690009.2174   -6424549.02245   1380285.93161
  19887110.3574  -21695749.40547 -16439621.32462
  19885841.4434  -23024760.86947 -17535491.62661
 90  7 26 19 24 29.9980000  0  5G12G 6G18G 9G13
  22461572.2484   -6132902.93846  -4332365.16461
  20447746.7094   -7963686.60747    674841.45462
  22693615.3654   -6405600.84645   1395050.69661
  19882299.6864  -21721017.62347 -16459310.83962
  19882319.2874  -23043285.44447 -17549926.35161
 90  7 26 19 24 44.9980000  0  5G12G 6G18G 9G13
  22450973.4594   -6188579.27345  -4375749.25261
  20450698.3264   -7948175.51947    686927.98362
  22697232.4434   -6386569.93045   1409879.94061
  19877515.2874  -21746153.74747 -16478897.41762
  19878818.0924  -23061682.10247 -17564261.39362
 90  7 26 19 24 59.9980000  0  5G12G 6G18G 9G13
  22440384.9514   -6244223.61745  -4419108.43061
  20453676.6864   -7932527.13547    699121.48862
  22700870.9824   -6367456.14445   1424773.72461
  19872760.0764  -21771158.29947 -16498381.47762
  19875340.2874  -23079951.32147 -17578497.13961
 90  7 26 19 25 14.9980000  0  5G12G 6G18G 9G13
  22429804.8034   -6299837.04945  -4462443.50461
  20456680.2794   -7916742.59047    711421.09562
  22704528.0224   -6348258.71345   1439732.68661
  19868024.6394  -21796031.99147 -16517763.56962
  19871888.1074  -23098094.21947 -17592634.44961
 90  7 26 19 25 29.9980000  0  5G12G 6G18G 9G13
  22419224.9284   -6355421.79546  -4505756.23561
  20459707.0534   -7900824.66547    723824.63462
  22708195.3504   -6328979.59145   1454755.32961
  19863317.4674  -21820777.28147 -16537045.60062
  19868457.8034  -23116113.59947 -17606675.51062
 90  7 26 19 25 44.9980000  0  5G12G 6G18G 9G13
  22408655.2794   -6410978.10646  -4549046.80761
  20462763.5614   -7884773.95547    736331.64162
  22711878.2954   -6309619.14045   1469841.33561
  19858632.0064  -21845394.40947 -16556227.77562
  19865053.0534  -23134009.99247 -17620620.73761
 90  7 26 19 25 59.9980000  0  5G12G 6G18G 9G13
  22398089.9364   -6466501.02846  -4592311.35561
  20465842.9204   -7868585.96347    748945.62362
  22715580.6394   -6290171.95045   1484994.91761
  19853971.2014  -21869878.59747 -16575306.35962
  19861675.3654  -23151779.25247 -17634466.89562
 90  7 26 19 26 14.9980000  0  5G12G 6G18G 9G13
  22387532.7094   -6521985.97046  -4635546.31261
  20468950.0534   -7852256.46647    761669.86262
  22719297.8504   -6270634.55745   1500218.79661
  19849340.1234  -21894225.29947 -16594277.81362
  19858316.4594  -23169417.22147 -17648210.75062
 90  7 26 19 26 29.9980000  0  5G12G 6G18G 9G13
  22376978.8504   -6577435.67046  -4678753.81961
  20472084.6624   -7835788.68947    774501.85662
  22723031.4904   -6251013.25445   1515508.05661
  19844733.8034  -21918437.27847 -16613144.28562
  19854985.5614  -23186926.78447 -17661854.55062
 90  7 26 19 26 44.9980000  0  5G12G 6G18G 9G13
  22366432.4204   -6632853.44846  -4721936.44161
  20475242.7404   -7819186.17846    787438.84162
  22726779.4284   -6231313.51045   1530858.42561
  19840149.2404  -21942517.85047 -16631908.36562
  19851678.1624  -23204311.72047 -17675401.24562
 90  7 26 19 26 59.9980000  0  5G12G 6G18G 9G13
  22355893.8814   -6688238.48246  -4765093.55861
  20478428.0224   -7802448.52246    800481.13062
  22730543.8344   -6211536.43845   1546269.06661
  19835593.5534  -21966466.17247 -16650569.39762
  19848390.7254  -23221571.63647 -17688850.52062
 90  7 26 19 27 14.9980000  0  5G12G 6G18G 9G13
  22345362.0374   -6743589.24946  -4808223.96261
  20481640.1074   -7785574.65246    813629.55262
  22734320.0294   -6191681.62045   1561740.29361
  19831060.9434  -21990280.94947 -16669126.37362
  19845130.8974  -23238705.69447 -17702201.71862
 90  7 26 19 27 29.9980000  0  5G12G 6G18G 9G13
  22334834.8184   -6798908.19646  -4851329.58561
  20484877.4754   -7768567.45546    826881.87562
  22738110.1704   -6171752.50045   1577269.40861
  19826554.4124  -22013964.73847 -16687581.27162
  19841893.4044  -23255716.66747 -17715457.00962
 90  7 26 19 27 44.9980000  0  5G12G 6G18G 9G13
  22324313.2644   -6854191.30246  -4894407.26861
  20488138.6544   -7751423.26146    840240.94162
  22741914.4434   -6151747.59545   1592857.57061
  19822075.2014  -22037513.52647 -16705930.97162
  19838679.9594  -23272600.84047 -17728613.49762
 90  7 26 19 27 59.9980000  0  5G12G 6G18G 9G13
  22313800.5684   -6909441.80246  -4937459.54961
  20491427.9204   -7734145.61946    853703.99462
  22745740.3734   -6131671.81245   1608500.97961
  19817618.1704  -22060930.45947 -16724177.92762
  19835491.9594  -23289361.78747 -17741673.96561
 90  7 26 19 28 14.9980000  0  5G12G 6G18G 9G13
  22303293.8264   -6964659.51946  -4980486.27761
  20494741.0764   -7716734.86547    867270.77062
  22749574.7324   -6111526.76145   1624198.33761
  19813185.1004  -22084215.59247 -16742322.17962
  19832326.0144  -23306000.21247 -17754638.96361
 90  7 26 19 28 29.9980000  0  5G12G 6G18G 9G13
  22292790.6004   -7019840.10646  -5023484.08361
  20498080.4824   -7699187.07147    880944.32862
  22753424.3734   -6091309.11845   1639952.25661
  19808780.5764  -22107364.61347 -16760360.37562
  19829182.7954  -23322512.08847 -17767505.34061
 90  7 26 19 28 44.9980000  0  5G12G 6G18G 9G13
  22282296.2724   -7074982.12346  -5066451.83661
  20501443.8974   -7681501.23946    894725.45362
  22757279.1314   -6071016.27945   1655764.77761
  19804401.1004  -22130376.19347 -16778291.47062
  19826063.7874  -23338896.26847 -17780272.22761
 90  7 26 19 28 59.9980000  0  5G12G 6G18G 9G13
  22271811.0534   -7130087.15846  -5109390.76861
  20504835.8504   -7663679.13546    908612.76162
  22761163.3574   -6050648.64445   1671635.58861
  19800048.2404  -22153251.74447 -16796116.56662
  19822972.0374  -23355154.76647 -17792941.17662
 90  7 26 19 29 14.9980000  0  5G12G 6G18G 9G13
  22261331.2404   -7185158.68446  -5152303.59061
  20508253.0684   -7645724.80546    922603.10362
  22765050.9754   -6030209.67645   1687562.00261
  19795721.4124  -22175995.00747 -16813838.58562
  19819900.9514  -23371291.47047 -17805515.21962
 90  7 26 19 29 29.9980000  0  5G12G 6G18G 9G13
  22250857.5454   -7240189.72146  -5195184.85961
  20511696.6624   -7627631.60546    936701.66162
  22768954.6624   -6009692.33245   1703549.44861
  19791422.9514  -22198599.03747 -16831452.10962
  19816852.1314  -23387300.00747 -17817989.38962
 90  7 26 19 29 44.9980000  0  5G12G 6G18G 9G13
  22240395.9434   -7295182.88946  -5238036.61361
  20515164.5844   -7609402.65346    950905.99462
  22772869.1864   -5989100.01445   1719595.32961
  19787144.0764  -22221066.49547 -16848959.21862
  19813831.6544  -23403183.46247 -17830366.09862
 90  7 26 19 29 59.9980000  0  5G12G 6G18G 9G13
  22229936.3184   -7350144.55946  -5280863.83361
  20518658.0614   -7591044.60946    965210.91962
  22776802.2174   -5968440.07845   1735693.93561
  19782891.7254  -22243403.89247 -16866364.97362
  19810833.5614  -23418948.39147 -17842650.45162
 90  7 26 19 30 14.9980000  0  5G12G 6G18G 9G13
  22219486.1394   -7405066.36946  -5323659.98761
  20522178.2014   -7572549.56446    979622.59562
  22780749.1154   -5947704.29145   1751851.63161
  19778670.5764  -22265602.81347 -16883662.82962
  19807855.1624  -23434586.89747 -17854836.29262
 90  7 26 19 30 29.9980000  0  5G12G 6G18G 9G13
  22209040.3424   -7459950.63146  -5366426.88961
  20525723.5844   -7553920.33046    994138.83462
  22784707.4514   -5926893.82045   1768067.49961
  19774471.6784  -22287665.86747 -16900854.81761
  19804902.7174  -23450102.11347 -17866926.05662
 90  7 26 19 30 44.9980000  0  5G12G 6G18G 9G13
  22198602.9124   -7514793.29746  -5409161.37761
  20529295.6314   -7535153.44146   1008762.33962
  22788683.8894   -5906004.65845   1784344.68261
  19770297.1074  -22309589.13047 -16917937.87962
  19801976.2404  -23465490.61347 -17878917.08462
 90  7 26 19 30 59.9980000  0  5G12G 6G18G 9G13
  22188174.4674   -7569606.93646  -5451873.24461
  20532888.6394   -7516261.76046   1023483.07962
  22792672.6154   -5885050.19245   1800672.76461
  19766150.5844  -22331385.12847 -16934921.76762
  19799068.3264  -23480765.01147 -17890819.20162
 90  7 26 19 31 14.9980000  0  5G12G 6G18G 9G13
  22177750.8114   -7624376.03146  -5494550.39861
  20536511.1314   -7497230.07346   1038312.92062
  22796676.3894   -5864017.05445   1817062.13361
  19762032.7794  -22353038.33747 -16951794.39562
  19796185.8264  -23495910.26047 -17902620.68662
 90  7 26 19 31 29.9980000  0  5G12G 6G18G 9G13
  22167339.0294   -7679103.05746  -5537194.77961
  20540158.6074   -7478061.40046   1053249.50962
  22800690.8264   -5842907.90445   1833510.74761
  19757938.7954  -22374551.35047 -16968557.77362
  19793326.8184  -23510929.36347 -17914323.87662
 90  7 26 19 31 44.9980000  0  5G12G 6G18G 9G13
  22156932.6074   -7733784.37446  -5579803.53361
  20543831.9824   -7458752.47646   1068295.37062
  22804721.4824   -5821720.05845   1850020.66261
  19753871.3424  -22395920.75847 -16985209.26061
  19790495.9904  -23525819.21947 -17925926.34962
 90  7 26 19 31 59.9980000  0  5G12G 6G18G 9G13
  22146533.9044   -7788429.38846  -5622384.00961
  20547532.7874   -7439313.17346   1083442.83062
  22808769.5454   -5800463.55445   1866584.07261
  19749829.2724  -22417156.00047 -17001756.19962
  19787685.1544  -23540589.47647 -17937435.62962
 90  7 26 19 32 14.9980000  0  5G12G 6G18G 9G13
  22136144.4514   -7843028.09046  -5664928.38461
  20551258.5224   -7419733.92846   1098699.34462
  22812833.6784   -5779128.11845   1883209.02761
  19745815.6544  -22438247.15547 -17018190.86761
  19784899.4204  -23555230.71347 -17948844.37262
 90  7 26 19 32 29.9980000  0  5G12G 6G18G 9G13
  22125761.7564   -7897586.67046  -5707441.50861
  20555009.3894   -7400021.32146   1114059.76462
  22816906.1234   -5757720.68545   1899890.08861
  19741829.2484  -22459200.34447 -17034518.02962
  19782136.0844  -23569749.67647 -17960157.83762
 90  7 26 19 32 44.9980000  0  5G12G 6G18G 9G13
  22115388.4984   -7952102.54046  -5749921.34761
  20558785.7724   -7380173.30646   1129525.70062
  22820993.7254   -5736240.22744   1916628.04961
  19737870.0534  -22480013.29247 -17050735.90862
  19779394.7874  -23584144.31847 -17971374.43662
 90  7 26 19 32 59.9980000  0  5G12G 6G18G 9G13
  22105022.7174   -8006574.90446  -5792367.28361
  20562589.2644   -7360189.44146   1145097.49962
  22825093.0684   -5714688.52145   1933421.50661
  19733934.6864  -22500685.29447 -17066843.96162
  19776677.8114  -23598414.31947 -17982493.91462
 90  7 26 19 33 14.9980000  0  5G12G 6G18G 9G13
  22094664.3574   -8061007.62846  -5834782.32661
  20566417.8974   -7340073.95346   1160771.85962
  22829207.1234   -5693069.62045   1950267.31161
  19730025.6864  -22521220.07847 -17082845.09162
  19773987.3264  -23612563.95147 -17993519.58961
 90  7 26 19 33 29.9980000  0  5G12G 6G18G 9G13
  22084314.5684   -8115396.63446  -5877163.30661
  20570270.1864   -7319823.18546   1176551.63062
  22833334.6474   -5671379.91645   1967168.30561
  19726144.9754  -22541613.74447 -17098736.26062
  19771319.5924  -23626589.39347 -18004448.50062
 90  7 26 19 33 44.9980000  0  5G12G 6G18G 9G13
  22073971.6624   -8169738.91146  -5919507.88061
  20574151.4364   -7299434.65747   1192438.74862
  22837474.4204   -5649617.02345   1984126.33661
  19722291.5144  -22561863.39647 -17114515.21262
  19768676.0454  -23640488.23947 -18015278.75862
 90  7 26 19 33 59.9980000  0  5G12G 6G18G 9G13
  22063638.8654   -8224035.99746  -5961817.24161
  20578054.6784   -7278910.41546   1208431.61662
  22841629.7874   -5627784.24845   2001138.78761
  19718465.6784  -22581970.73547 -17130183.26862
  19766054.0294  -23654262.45347 -18026011.89762
 90  7 26 19 34 14.9980000  0  5G12G 6G18G 9G13
  22053314.4674   -8278288.75346  -6004092.05561
  20581988.4364   -7258251.62646   1224529.32162
  22845793.6154   -5605883.66145   2018204.07461
  19714666.3894  -22601936.76247 -17145741.21362
  19763455.7644  -23667913.32847 -18036648.93662
 90  7 26 19 34 29.9980000  0  5G12G 6G18G 9G13
  22042998.5764   -8332497.20146  -6046332.34961
  20585944.7724   -7237458.82346   1240731.45562
  22849974.1234   -5583915.96845   2035321.67461
  19710895.9364  -22621761.60647 -17161189.14262
  19760880.9824  -23681441.44447 -18047190.31161
 90  7 26 19 34 44.9980000  0  5G12G 6G18G 9G13
  22032694.4674   -8386662.09046  -6088538.69861
  20589926.2324   -7216533.23846   1257037.05762
  22854170.8184   -5561882.57644   2052490.46761
  19707149.0454  -22641446.02947 -17176527.65662
  19758329.8114  -23694848.28847 -18057637.20261
 90  7 26 19 34 59.9980000  0  5G12G 6G18G 9G13
  22022395.5924   -8440783.27546  -6130710.97561
  20593933.8184   -7195475.34846   1273445.75362
  22858378.0224   -5539783.40244   2069710.52761
  19703431.0534  -22660990.09847 -17191756.80061
  19755801.4904  -23708134.13047 -18067989.79861
 90  7 26 19 35 14.9980000  0  5G12G 6G18G 9G13
  22012106.4284   -8494854.89146  -6172844.64161
  20597967.7014   -7174279.54346   1289961.91162
  22862594.9674   -5517611.56244   2086987.22961
  19699741.8814  -22680387.97047 -17206872.02961
  19753298.3344  -23721293.44047 -18078243.80161
 90  7 26 19 35 29.9980000  0  5G12G 6G18G 9G13
  22001824.6074   -8548877.43346  -6214940.06861
  20602025.3424   -7152946.86646   1306584.73462
  22866827.1004   -5495368.15544   2104319.64861
  19696076.5534  -22699640.37147 -17221873.90062
  19750817.7794  -23734327.23547 -18088399.98261
 90  7 26 19 35 44.9980000  0  5G12G 6G18G 9G13
  21991553.0684   -8602856.84646  -6257001.89961
  20606109.4904   -7131483.73946   1323309.20762
  22871075.9904   -5473060.31844   2121702.29161
  19692438.9124  -22718753.23247 -17236767.04861
  19748359.6624  -23747241.87147 -18098463.32562
 90  7 26 19 35 59.9980000  0  5G12G 6G18G 9G13
  21981289.1864   -8656790.21846  -6299027.83861
  20610220.1624   -7109887.53146   1340137.37362
  22875333.8034   -5450685.90844   2139136.82261
  19688830.5144  -22737723.83547 -17251549.33561
  19745924.2724  -23760035.08647 -18108432.05562
 90  7 26 19 36 14.9980000  0  5G12G 6G18G 9G13
  21971036.2724   -8710677.43046  -6341017.82361
  20614355.0844   -7088158.82646   1357068.78362
  22879597.6704   -5428244.47544   2156623.58261
  19685246.2724  -22756552.15047 -17266220.74762
  19743514.3654  -23772707.01447 -18118306.27862
 90  7 26 19 36 29.9980000  0  5G12G 6G18G 9G13
  21960791.0374   -8764515.72346  -6382969.67261
  20618516.9904   -7066295.31346   1374105.23162
  22883888.0294   -5405733.56844   2174164.45761
  19681691.6474  -22775235.77947 -17280779.42462
  19741125.6934  -23785255.71147 -18128084.47562
 90  7 26 19 36 44.9980000  0  5G12G 6G18G 9G13
  21950555.4904   -8818304.75546  -6424883.14661
  20622701.8344   -7044296.96046   1391246.75962
  22888184.7564   -5383154.45145   2191758.48961
  19678163.3814  -22793774.21047 -17295224.95362
  19738759.9434  -23797681.26047 -18137766.71962
 90  7 26 19 36 59.9980000  0  5G12G 6G18G 9G13
  21940327.0684   -8872046.85446  -6466760.05861
  20626912.6864   -7022166.73346   1408491.04262
  22892491.1784   -5360511.22545   2209402.46861
  19674662.9674  -22812169.93347 -17309559.28962
  19736417.9514  -23809986.25747 -18147355.02462
 90  7 26 19 37 14.9980000  0  5G12G 6G18G 9G13
  21930109.1474   -8925736.99046  -6508596.47261
  20631150.0294   -6999899.88746   1425841.78262
  22896816.0764   -5337800.20844   2227099.25761
  19671190.6314  -22830418.10547 -17323778.64662
  19734101.1704  -23822166.26547 -18156845.93162
 90  7 26 19 37 29.9980000  0  5G12G 6G18G 9G13
  21919904.8734   -8979377.43446  -6550394.17861
  20635413.7094   -6977499.28746   1443296.74762
  22901144.9594   -5315025.48444   2244845.68861
  19667743.8734  -22848521.20247 -17337884.95161
  19731806.4904  -23834224.15347 -18166241.67662
 90  7 26 19 37 44.9980000  0  5G12G 6G18G 9G13
  21909704.8184   -9032972.32146  -6592156.36661
  20639700.8654   -6954969.47046   1460852.39662
  22905485.4594   -5292193.82243   2262636.49061
  19664327.2874  -22866483.15247 -17351881.28061
  19729536.0534  -23846164.63147 -18175545.94062
 90  7 26 19 37 59.9980000  0  5G12G 6G18G 9G13
  21899513.9594   -9086519.87846  -6633881.69261
  20644012.5454   -6932309.11746   1478509.76462
  22909844.4364   -5269304.27443   2280472.45061
  19660932.1704  -22884302.56947 -17365766.53462
  19727286.2324  -23857986.40947 -18184757.71262
 90  7 26 19 38 14.9980000  0  5G12G 6G18G 9G13
  21889333.3734   -9140021.52946  -6675571.24161
  20648350.0374   -6909520.18446   1496267.32762
  22914209.9284   -5246358.40344   2298352.26261
  19657566.9824  -22901980.83847 -17379541.81462
  19725058.5064  -23869691.09247 -18193878.23861
 90  7 26 19 38 29.9980000  0  5G12G 6G18G 9G13
  21879162.6314   -9193469.35846  -6717218.85161
  20652713.5614   -6886595.23947
  22918589.0454   -5223349.72643
  19654234.0534  -22919510.35247 -17393201.17862
  19722854.2724  -23881271.51447 -18202901.94062
 90  7 26 19 38 44.9980000  0  5G12G 6G18G 9G13
  21869000.3974   -9246869.06246  -6758828.97161
  20657099.5224   -6863540.54247
  22922981.6784   -5200286.02643
  19650924.8574  -22936896.99847 -17406749.21662
  19720673.1004  -23892734.08947 -18211833.80962
 90  7 26 19 38 59.9980000  0  5G12G 6G18G 9G13
  21858849.2404   -9300220.12146  -6800401.18061
  20661511.8184   -6840355.97047   1550161.37062
  22927380.4594   -5177166.66344
  19647646.1474  -22954140.34847 -17420185.58761
  19718513.4124  -23904078.56747 -18220673.65661
 90  7 26 19 39 14.9980000  0  5G12G 6G18G 9G13
  21848707.2254   -9353515.83646  -6841930.27061
  20665948.6394   -6817035.25046   1568333.31662
  22931790.3344   -5153982.72744
  19644394.2794  -22971233.68047 -17433505.07361
  19716377.7564  -23915298.72647 -18229416.63261
 90  7 26 19 39 29.9970000  0  5G12G 6G18G 9G13
  21838575.3604   -9406755.46646  -6883415.65061
  20670410.3684   -6793583.36546   1586607.46762
  22936210.5564   -5130738.24844
  19641168.3214  -22988178.87747 -17446709.12261
  19714267.3294  -23926397.21447 -18238064.79961
 90  7 26 19 39 44.9970000  0  5G12G 6G18G 9G13
  21828453.6344   -9459948.34746  -6924864.61061
  20674898.9464   -6769999.84646   1604984.18662
  22940652.2354   -5107432.55744        -0.36071
  19637969.6104  -23004980.72647 -17459801.47261
  19712179.0564  -23937378.29347 -18246621.47761
 90  7 26 19 39 59.9970000  0  5G12G 6G18G 9G13
  21818338.1424   -9513093.56746  -6966276.43261
  20679411.9704   -6746289.41946   1623459.79862
  22945096.2124   -5084068.05644     18205.66461
  19634800.5714  -23021640.65747 -17472783.24361
  19710111.2434  -23948244.28747 -18255088.48362
 90  7 26 19 40 14.9970000  0  5G12G 6G18G 9G13
  21808238.0484   -9566183.30846  -7007645.02461
  20683948.8844   -6722444.65646   1642040.08562
  22949553.1814   -5060636.03644     36464.30061
  19631661.0954  -23038151.23947 -17485648.63161
  19708065.9934  -23958987.89647 -18263460.11361
 90  7 26 19 40 29.9970000  0  5G12G 6G18G 9G13
  21798146.0954   -9619222.30346  -7048974.07461
  20688511.0404   -6698470.93346   1660720.85662
  22954027.4394   -5037141.68245     54771.50161
  19628542.1264  -23054517.08547 -17498401.24361
  19706043.6814  -23969614.30847 -18271740.43261
 90  7 26 19 40 44.9970000  0  5G12G 6G18G 9G13
  21788062.3534   -9672206.77946  -7090260.64061
  20693097.8534   -6674364.70446   1679504.88062
  22958515.4464   -5013581.79045     73129.76861
  19625456.3294  -23070734.76447 -17511038.40861
  19704044.4074  -23980120.32647 -18279926.94061
 90  7 26 19 40 59.9970000  0  5G12G 6G18G 9G13
  21777990.7434   -9725135.68046  -7131503.89561
  20697709.3764   -6650125.56646   1698392.47062
  22963004.8764   -4989955.25444     91539.95661
  19622400.8764  -23086803.22347 -17523559.28761
  19702065.0244  -23990505.39647 -18288019.19861
 90  7 26 19 41 14.9970000  0  5G12G 6G18G 9G13
  21767925.1034   -9778013.23246  -7172707.14861
  20702346.0794   -6625758.31546   1717379.88662
  22967507.6654   -4966266.12544    109998.91261
  19619370.0094  -23102727.00747 -17535967.43961
  19700113.4234  -24000774.33347 -18296020.96361
 90  7 26 19 41 29.9970000  0  5G12G 6G18G 9G13
  21757874.6814   -9830832.59446  -7213865.06161
  20707008.9934   -6601256.63346   1736472.04862
  22972033.6034   -4942509.85845    128510.18461
  19616367.6574  -23118499.35847 -17548257.57961
  19698183.0714  -24010920.86747 -18303927.34861
 90  7 26 19 41 44.9970000  0  5G12G 6G18G 9G13
  21747833.8764   -9883598.90546  -7254981.63461
  20711697.7124   -6576626.13846   1755664.58962
  22976566.3374   -4918694.12745    147067.78261
  19613396.2044  -23134125.56147 -17560433.84661
  19696272.0094  -24020950.73947 -18311742.82761
 90  7 26 19 41 59.9970000  0  5G12G 6G18G 9G13
  21737804.5324   -9936310.41346  -7296055.50161
  20716408.6344   -6551865.56946   1774958.48962
  22981109.9154   -4894819.64845    165671.17361
  19610449.9314  -23149603.86647 -17572494.86261
  19694389.8374  -24030862.60147 -18319466.35662
 90  7 26 19 42 14.9970000  0  5G12G 6G18G 9G13
  21727784.4234   -9988966.28846  -7337086.01261
  20721146.6814   -6526974.50846   1794354.06762
  22985664.4784   -4870887.29845    184319.65661
  19607531.5404  -23164933.76347 -17584440.23462
  19692527.1264  -24040656.01447 -18327097.58362
 90  7 26 19 42 29.9970000  0  5G12G 6G18G 9G13
  21717775.3454  -10041565.93146  -7378072.70461
  20725908.1734   -6501952.88946   1813851.37962
  22990229.3454   -4846898.53045    203012.11561
  19604645.7124  -23180114.77347 -17596269.59261
  19690683.5874  -24050331.04047 -18334636.55362
 90  7 26 19 42 44.9970000  0  5G12G 6G18G 9G13
  21707776.1894  -10094106.38546  -7419013.29061
  20730694.1424   -6476798.25946   1833452.34562
  22994804.5014   -4822852.03545    221749.54761
  19601781.7044  -23195144.18647 -17607980.82261
  19688865.5094  -24059885.09347 -18342081.26462
 90  7 26 19 42 59.9970000  0  5G12G 6G18G 9G13
  21697789.5564  -10146590.63746  -7459910.08061
  20735506.4464   -6451514.22746   1853154.13962
  22999392.9934   -4798752.37145    240528.41061
  19598952.5794  -23210025.16547 -17619576.39161
  19687066.8844  -24069321.87547 -18349434.59862
 90  7 26 19 43 14.9970000  0  5G12G 6G18G 9G13
  21687811.9154  -10199016.45446  -7500761.33261
  20740342.6184   -6426099.04246   1872958.12962
  23003988.7824   -4774598.05645    259349.87461
  19596147.0094  -23224755.50847 -17631054.58361
  19685297.1034  -24078639.74747 -18356695.27861
 90  7 26 19 43 29.9970000  0  5G12G 6G18G 9G13
  21677844.8604  -10251382.80846  -7541566.25361
  20745202.8604   -6400552.18946   1892864.71762
  23008599.0644   -4750388.96945    278214.01261
  19593376.4544  -23239334.58247 -17642414.89561
  19683545.2204  -24087838.18847 -18363862.88761
 90  7 26 19 43 44.9970000  0  5G12G 6G18G 9G13
  21667892.4934  -10303692.26646  -7582326.83561
  20750089.7044   -6374876.76646   1912871.48962
  23013213.4624   -4726128.14645    297118.44761
  19590625.5174  -23253764.83747 -17653659.25261
  19681816.9074  -24096920.11247 -18370939.70861
 90  7 26 19 43 59.9970000  0  5G12G 6G18G 9G13
  21657949.6184  -10355942.66246  -7623041.40061
  20754999.2824   -6349071.07246   1932979.77562
  23017837.8374   -4701814.29645    316064.18361
  19587912.1494  -23268044.53347 -17664786.29361
  19680110.8844  -24105883.89347 -18377924.47062
 90  7 26 19 44 14.9970000  0  5G12G 6G18G 9G13
  21648015.1264  -10408138.51646  -7663713.46461
  20759935.6344   -6323140.15746   1953185.63162
  23022473.8144   -4677451.72145    335047.90261
  19585223.5014  -23282178.28647 -17675799.60761
  19678430.6894  -24114734.89447 -18384821.34961
 90  7 26 19 44 29.9970000  0  5G12G 6G18G 9G13
  21638097.2434  -10460274.48946  -7704338.86161
  20764894.0954   -6297079.15946   1973492.85462
  23027120.3144   -4653034.56245    354074.13961
  19582559.7354  -23296160.79747 -17686695.07061
  19676767.2744  -24123468.10847 -18391626.44161
 90  7 26 19 44 44.9970000  0  5G12G 6G18G 9G13
  21628185.6344  -10512354.57546  -7744920.70561
  20769876.3844   -6270892.71946   1993897.82161
  23031779.4784   -4628567.39745    373139.36361
  19579928.0094  -23309996.29047 -17697475.97961
  19675122.2984  -24132088.14347 -18398343.35361
 90  7 26 19 44 59.9970000  0  5G12G 6G18G 9G13
  21618286.2744  -10564374.20346  -7785455.43961
  20774883.7594   -6244576.64946   2014403.79361
  23036443.2354   -4604045.41145    392247.27861
  19577323.1264  -23323680.51447 -17708139.01161
  19673509.3454  -24140590.75647 -18404968.76461
 90  7 26 19 45 14.9970000  0  5G12G 6G18G 9G13
  21608401.2674  -10616331.76146  -7825941.80661
  20779917.1654   -6218129.95446   2035011.55362
  23041120.7124   -4579466.90545    411399.25461
  19574750.4934  -23337211.95947 -17718682.99061
  19671912.3294  -24148975.10447 -18411502.00961
 90  7 26 19 45 29.9970000  0  5G12G 6G18G 9G13
  21598526.5174  -10668227.50846  -7866380.01161
  20784975.1184   -6191553.45446   2055720.45462
  23045806.1814   -4554832.38945    430594.86561
  19572203.7354  -23350591.03747 -17729108.24361
  19670336.6734  -24157241.90347 -18417943.67561
 90  7 26 19 45 44.9970000  0  5G12G 6G18G 9G13
  21588661.5404  -10720064.37846  -7906772.32661
  20790056.9234   -6164850.64546   2076527.78062
  23050506.6894   -4530147.68045    449829.59461
  19569681.9784  -23363820.90047 -17739417.23761
  19668790.0324  -24165394.72147 -18424296.51161
 90  7 26 19 45 59.9970000  0  5G12G 6G18G 9G13
  21578811.5874  -10771836.30546  -7947114.04261
  20795162.3684   -6138015.98246   2097437.85062
  23055212.6034   -4505407.84345    469107.27661
  19567197.3844  -23376895.68547 -17749605.38061
  19667258.4314  -24173428.04347 -18430556.23161
 90  7 26 19 46 14.9970000  0  5G12G 6G18G 9G13
  21568969.0324  -10823543.93146  -7987405.66061
  20800295.3454   -6111050.52646   2118449.83562
  23059931.6424   -4480614.66045    488426.56761
  19564740.7284  -23389816.22447 -17759673.32861
  19665751.0714  -24181343.04747 -18436723.76361
 90  7 26 19 46 29.9970000  0  5G12G 6G18G 9G13
  21559142.8994  -10875180.00646  -8027641.52961
  20805451.3844   -6083947.70346   2139568.86462
  23064660.8214   -4455760.61745    507793.25861
  19562310.3064  -23402575.48747 -17769615.61561
  19664269.4154  -24189132.81147 -18442793.70361
 90  7 26 19 46 44.9970000  0  5G12G 6G18G 9G13
  21549330.4314  -10926751.25446  -8067826.86761
  20810633.5404   -6056714.64446   2160789.37362
  23069397.7354   -4430853.73745    527201.12261
  19559909.0794  -23415180.38047 -17779437.62561
  19662810.8994  -24196804.74047 -18448771.82461
 90  7 26 19 46 59.9970000  0  5G12G 6G18G 9G13
  21539528.0484  -10978265.32446  -8107967.66761
  20815838.8924   -6029359.50146   2182105.01162
  23074147.2514   -4405903.14745    546643.01261
  19557540.2124  -23427638.78447 -17789145.47661
  19661371.6964  -24204367.10347 -18454664.57062
 90  7 26 19 47 14.9970000  0  5G12G 6G18G 9G13
  21529734.7904  -11029720.00646  -8148062.17361
  20821067.5954   -6001880.64646   2203517.05262
  23078906.0174   -4380908.30545    566119.41261
  19555199.6104  -23439948.42947 -17798737.40161
  19659955.3994  -24211818.04047 -18460470.48861
 90  7 26 19 47 29.9970000  0  5G12G 6G18G 9G13
  21519954.2744  -11081111.32846  -8188107.33061
  20826321.5484   -5974274.70846   2225028.11962
  23083670.9464   -4355867.24845    585631.82961
  19552885.1574  -23452105.71147 -17808210.61061
  19658557.2744  -24219154.38147 -18466187.12061
 90  7 26 19 47 44.9970000  0  5G12G 6G18G 9G13
  21510185.3764  -11132439.22946  -8228103.05061
  20831599.2354   -5946542.15046   2246637.84562
  23088446.0714   -4330781.26245    605179.23861
  19550602.6494  -23464110.69647 -17817565.14661
  19657180.9704  -24226376.62247 -18471814.82961
 90  7 26 19 47 59.9970000  0  5G12G 6G18G 9G13
  21500434.3214  -11183701.50346  -8268047.64061
  20836901.3924   -5918681.26346   2268347.56862
  23093228.4464   -4305648.19345    624763.33361
  19548348.3844  -23475961.46347 -17826799.52061
  19655830.9854  -24233482.76347 -18477352.07761
 90  7 26 19 48 14.9970000  0  5G12G 6G18G 9G13
  21490691.3844  -11234901.05546  -8307943.35261
  20842226.2514   -5890695.44046   2290154.63762
  23098019.2284   -4280469.66545    644382.84961
  19546120.9394  -23487661.06047 -17835916.08761
  19654498.7284  -24240476.46347 -18482801.70461
 90  7 26 19 48 29.9970000  0  5G12G 6G18G 9G13
  21480959.8214  -11286038.15046  -8347790.39761
  20847576.2284   -5862585.50046   2312058.42561
  23102818.3844   -4255245.73545    664037.74261
  19543921.2674  -23499209.88447 -17844915.16961
  19653189.3844  -24247358.71847 -18488164.50061
 90  7 26 19 48 44.9970000  0  5G12G 6G18G 9G13
  21471239.9464  -11337111.66246  -8387587.90561
  20852949.2284   -5834351.02246   2334059.25861
  23107625.8764   -4229974.94845    683729.16561
  19541754.3294  -23510607.19147 -17853796.19961
  19651901.8374  -24254128.92447 -18493439.98061
 90  7 26 19 48 59.9970000  0  5G12G 6G18G 9G13
  21461533.8684  -11388120.32146  -8427334.87261
  20858345.6494   -5805991.25846   2356157.72361
  23112447.9314   -4204657.33245    703457.06961
  19539615.8994  -23521851.95247 -17862558.34961
  19650633.5174  -24260786.36247 -18498627.59361
 90  7 26 19 49 14.9970000  0  5G12G 6G18G 9G13
  21451839.2124  -11439063.40046  -8467030.73561
  20863766.6734   -5777506.08146   2378353.90062
  23117277.5874   -4179291.52444    723222.53461
  19537504.1814  -23532943.60047 -17871201.19761
  19649389.4934  -24267330.77847 -18503727.13061
 90  7 26 19 49 29.9970000  0  5G12G 6G18G 9G13
  21442156.6494  -11489943.04346  -8506677.17661
  20869209.5174   -5748898.09546   2400645.78462
  23122106.6654   -4153878.16143    743025.07661
  19535422.4074  -23543884.46047 -17879726.54661
  19648165.3144  -24273764.81347 -18508740.65861
 90  7 26 19 49 44.9970000  0  5G12G 6G18G 9G13
  21432487.6104  -11540757.15046  -8546272.54061
  20874678.1574   -5720165.78446   2423034.53762
  23126952.4314   -4128414.55843    762866.73961
  19533368.4854  -23554672.64747 -17888132.92961
  19646960.7124  -24280087.06847 -18513667.08761
 90  7 26 19 49 59.9970000  0  5G12G 6G18G 9G13
  21422830.5014  -11591499.16946  -8585811.74261
  20880169.7434   -5691303.05546   2445524.91762
  23131811.7284   -4102893.98244    782752.80161
  19531344.4934  -23565301.78847 -17896415.38461
  19645782.4314  -24286291.46247 -18518501.67261
 90  7 26 19 50 14.9970000  0  5G12G 6G18G 9G13
  21413186.9704  -11642174.66146  -8625299.10561
  20885686.3684   -5662315.97846   2468112.18962
  23136681.0324   -4077320.93844    802679.74761
  19529349.5014  -23575777.53847 -17904578.30861
  19644624.3684  -24292383.92547 -18523249.04261
 90  7 26 19 50 29.9970000  0  5G12G 6G18G 9G13
  21403557.1104  -11692783.54546  -8664734.56061
  20891225.3144   -5633205.10646   2490795.92362
  23141555.8294   -4051696.67444    822646.58861
  19527385.6344  -23586100.03547 -17912621.82261
  19643483.3374  -24298365.02447 -18527909.63061
 90  7 26 19 50 44.9970000  0  5G12G 6G18G 9G13
  21393938.7514  -11743325.25646  -8704117.67761
  20896788.3064   -5603970.43146   2513576.12662
  23146438.8994   -4026021.99244    842652.69461
  19525452.7674  -23596269.20347 -17920545.85561
  19642368.9234  -24304234.88347 -18532483.54561
 90  7 26 19 50 59.9970000  0  5G12G 6G18G 9G13
  21384334.9394  -11793797.16146  -8743446.38961
  20902376.3294   -5574609.87746   2536454.42262
  23151336.6264   -4000296.08244    862698.74161
  19523547.0014  -23606282.44847 -17928348.38061
  19641270.0644  -24309991.32447 -18536969.07461
 90  7 26 19 51 14.9970000  0  5G12G 6G18G 9G13
  21374743.5014  -11844198.59146  -8782720.19061
  20907987.4704   -5545123.25546   2559430.95462
  23156240.5094   -3974519.75044    882784.08161
  19521670.5014  -23616139.27947 -17936029.03961
  19640198.3534  -24315634.34547 -18541366.23761
 90  7 26 19 51 29.9970000  0  5G12G 6G18G 9G13
  21365165.0174  -11894534.68546  -8821943.07361
  20913620.2514   -5515516.33246   2582501.22662
  23161157.1654   -3948699.07045    902903.95461
  19519822.7674  -23625845.15147 -17943592.05661
  19639145.3764  -24321169.59947 -18545679.41361
 90  7 26 19 51 44.9970000  0  5G12G 6G18G 9G13
  21355599.6104  -11944801.22546  -8861111.76361
  20919279.4234   -5485785.63446   2605667.93962
  23166076.8684   -3922832.53945    923059.58161
  19518007.6104  -23635396.04247 -17951034.31461
  19638109.9784  -24326593.60247 -18549905.90761
 90  7 26 19 51 59.9970000  0  5G12G 6G18G 9G13
  21346049.1494  -11994997.06946  -8900225.36461
  20924958.7044   -5455930.38946   2628931.70462
  23171011.0874   -3896922.03944    943249.48561
  19516219.3604  -23644791.02247 -17958355.08361
  19637102.2284  -24331905.75647 -18554045.24461
 90  7 26 19 52 14.9970000  0  5G12G 6G18G 9G13
  21336508.6814  -12045122.63546  -8939284.20461
  20930664.7354   -5425951.67046   2652291.68862
  23175944.1814   -3870969.32644    963472.30861
  19514459.1034  -23654030.98747 -17965555.05661
  19636112.0874  -24337107.01447 -18558098.15861
 90  7 26 19 52 29.9970000  0  5G12G 6G18G 9G13
  21326981.4934  -12095180.50746  -8978290.30161
  20936392.0794   -5395852.66646   2675745.38962
  23180888.4074   -3844979.27044    983724.22461
  19512733.1184  -23663118.47047 -17972636.21561
  19635141.8064  -24342200.51847 -18562067.12661
 90  7 26 19 52 44.9970000  0  5G12G 6G18G 9G13
  21317471.7674  -12145167.43846  -9017241.11861
  20942145.1184   -5365630.59446   2699294.99262
  23185849.0094   -3818951.90844   1004005.19361
  19511027.5094  -23672050.51847 -17979596.25961
  19634196.1574  -24347183.38447 -18565949.86961
 90  7 26 19 52 59.9970000  0  5G12G 6G18G 9G13
  21307972.0714  -12195085.54346  -9056138.30561
  20947917.5874   -5335288.18546   2722938.36162
  23190806.9154   -3792891.10144   1024312.20761
  19509362.6494  -23680829.48147 -17986437.01761
  19633263.7594  -24352058.69447 -18569748.80761
 90  7 26 19 53 14.9970000  0  5G12G 6G18G 9G13
  21298487.5244  -12244931.57346  -9094979.31961
  20953714.4784   -5304822.85046   2746677.52162
  23195762.5324   -3766794.37544   1044647.20161
  19507719.4234  -23689452.54147 -17993156.28361
  19632361.0174  -24356823.75147 -18573461.83361
 90  7 26 19 53 29.9970000  0  5G12G 6G18G 9G13
  21289013.9704  -12294704.95046  -9133763.72461
  20959535.9464   -5274234.56046   2770512.49362
  23200740.6964   -3740662.07544   1065009.89861
  19506109.1894  -23697919.22747 -17999753.70061
  19631471.7204  -24361478.30047 -18577088.74661
 90  7 26 19 53 44.9970000  0  5G12G 6G18G 9G13
  21279556.9704  -12344407.04046  -9172492.59061
  20965380.8844   -5243525.21646   2794441.79262
  23205724.5714   -3714496.16844   1085398.80261
  19504525.7204  -23706231.02147 -18006230.43661
  19630611.6574  -24366024.50747 -18580631.24061
 90  7 26 19 53 59.9970000  0  5G12G 6G18G 9G13
  21270113.8374  -12394031.07546  -9211160.63561
  20971249.7984   -5212688.74346   2818470.14962
  23210702.4394   -3688290.60443   1105818.59061
  19502978.6574  -23714381.57547 -18012581.51961
  19629765.1814  -24370456.31947 -18584084.59261
 90  7 26 19 54 14.9970000  0  5G12G 6G18G 9G13
  21260685.4154  -12443581.62046  -9249771.41361
  20977139.8144   -5181730.10046   2842593.70661
  23215695.7904   -3662049.39843   1126266.16861
  19501453.2204  -23722375.69547 -18018810.71661
  19628943.0484  -24374778.52247 -18587452.53561
 90  7 26 19 54 29.9970000  0  5G12G 6G18G 9G13
  21251270.0954  -12493057.59046  -9288324.07961
  20983054.5794   -5150648.85846   2866812.79561
  23220702.2044   -3635771.28944   1146742.49661
  19499963.5874  -23730212.51347 -18024917.33661
  19628141.1424  -24378990.48747 -18590734.58261
 90  7 26 19 54 44.9970000  0  5G12G 6G18G 9G13
  21241868.7514  -12542462.31146  -9326821.22161
  20988992.7744   -5119448.91446   2891124.37962
  23225713.0174   -3609459.70745   1167244.90961
  19498504.8214  -23737895.50247 -18030904.07761
  19627359.8844  -24383096.27247 -18593933.88061
 90  7 26 19 54 59.9970000  0  5G12G 6G18G 9G13
  21232480.5954  -12591794.06946  -9365261.52661
  20994951.6184   -5088129.22246   2915529.27261
  23230725.6104   -3583111.39845   1187775.96761
  19497068.7354  -23745423.25847 -18036769.86661
  19626599.6734  -24387094.69747 -18597049.53261
 90  7 26 19 55 14.9970000  0  5G12G 6G18G 9G13
  21223105.4544  -12641053.63646  -9403645.57661
  21000935.5644   -5056690.90946   2940026.59862
  23235744.8454   -3556725.45745   1208336.34561
  19495664.2904  -23752796.54247 -18042515.28661
  19625861.1964  -24390987.04547 -18600082.52561
 90  7 26 19 55 29.9970000  0  5G12G 6G18G 9G13
  21213746.0324  -12690237.52446  -9441970.64461
  21006939.6424   -5025131.11746   2964618.57962
  23240775.7594   -3530298.36745   1228928.78161
  19494292.5404  -23760012.47547 -18048138.08961
  19625137.4704  -24394770.66247 -18603030.78361
 90  7 26 19 55 44.9970000  0  5G12G 6G18G 9G13
  21204402.2674  -12739346.78046  -9480237.56462
  21012965.2984   -4993451.52946   2989303.89762
  23245811.4394   -3503831.30345   1249552.32161
  19492949.6184  -23767072.23047 -18053639.20161
  19624437.9154  -24398447.26447 -18605895.66361
 90  7 26 19 55 59.9970000  0  5G12G 6G18G 9G13
  21195071.7354  -12788381.91446  -9518446.72161
  21019019.7044   -4961653.46146   3014081.55062
  23250851.8214   -3477324.99645   1270206.47261
  19491637.1424  -23773976.80347 -18059019.39061
  19623758.5174  -24402017.99447 -18608678.04861
 90  7 26 19 56 14.9970000  0  5G12G 6G18G 9G13
  21185756.3144  -12837338.08646  -9556594.35662
  21025092.8924   -4929732.52646   3038954.95562
  23255909.1424   -3450774.44845   1290895.00961
  19490353.2824  -23780721.46247 -18064274.97961
  19623102.3764  -24405478.46647 -18611374.51662
 90  7 26 19 56 29.9970000  0  5G12G 6G18G 9G13
  21176454.9464  -12886216.76746  -9594681.60662
  21031190.9154   -4897690.70046   3063922.54662
  23260969.9784   -3424182.05445   1311616.25161
  19489095.9544  -23787307.71547 -18069407.13161
  19622463.6034  -24408830.53247 -18613986.51061
 90  7 26 19 56 44.9970000  0  5G12G 6G18G 9G13
  21167167.6574  -12935022.37347  -9632711.91262
  21037311.4154   -4865532.89746   3088980.50562
  23266035.9854   -3397553.66345   1332365.53661
  19487872.3764  -23793740.49747 -18074419.69661
  19621846.2674  -24412078.85247 -18616517.67761
 90  7 26 19 56 59.9970000  0  5G12G 6G18G 9G13
  21157894.7594  -12983750.44546  -9670681.80562
  21043452.4544   -4833255.42146   3114131.72961
  23271112.3294   -3370885.86745   1353145.49061
  19486681.3924  -23800015.49847 -18079309.30861
  19621247.5714  -24415220.13047 -18618965.42461
 90  7 26 19 57 14.9970000  0  5G12G 6G18G 9G13
  21148633.1034  -13032397.87446  -9708588.85661
  21049617.7824   -4800855.76246   3139378.15561
  23276191.8374   -3344177.63545   1373956.93861
  19485512.1184  -23806129.88047 -18084073.75461
  19620671.5404  -24418251.68947 -18621327.67361
 90  7 26 19 57 29.9970000  0  5G12G 6G18G 9G13
  21139395.6264  -13080961.23746  -9746430.41561
  21055808.0874   -4768330.90846   3164722.13362
  23281287.8844   -3317428.83045   1394800.04961
  19484381.7674  -23812080.26247 -18088710.42861
  19620114.5954  -24421170.77947 -18623602.28361
 90  7 26 19 57 44.9970000  0  5G12G 6G18G 9G13
  21130169.0644  -13129446.34246  -9784210.98061
  21062019.0564   -4735687.48146   3190158.49961
  23286379.7594   -3290646.67645   1415669.17861
  19483281.1814  -23817873.16047 -18093224.37661
  19619579.5484  -24423983.93747 -18625794.35261
 90  7 26 19 57 59.9970000  0  5G12G 6G18G 9G13
  21120958.2984  -13177848.02246  -9821926.53662
  21068253.2284   -4702920.87446   3215690.85061
  23291482.1184   -3263825.97445   1436568.30361
  19482208.8994  -23823503.47047 -18097611.63961
  19619065.8064  -24426686.48347 -18627900.23361
 90  7 26 19 58 14.9970000  0  5G12G 6G18G 9G13
  21111763.2204  -13226168.66746  -9859578.95062
  21074512.1894   -4670033.88646   3241317.01161
  23296597.0954   -3236969.35545   1457495.42061
  19481172.3144  -23828973.72447 -18101874.17661
  19618570.4544  -24429281.21947 -18629922.10161
 90  7 26 19 58 29.9970000  0  5G12G 6G18G 9G13
  21102585.2984  -13274407.51346  -9897167.63162
  21080794.5174   -4637026.49646   3267036.99261
  23301712.2434   -3210077.06245   1478450.33161
  19480160.8924  -23834283.69247 -18106011.81661
  19618097.2124  -24431768.04047 -18631859.87761
 90  7 26 19 58 44.9970000  0  5G12G 6G18G 9G13
  21093420.4234  -13322568.16346  -9934695.37662
  21087097.6344   -4603902.86946   3292847.53962
  23306836.1264   -3183154.64345   1499428.70361
  19479178.6964  -23839437.12147 -18110027.48561
  19617643.8924  -24434151.14147 -18633716.83962
 90  7 26 19 58 59.9970000  0  5G12G 6G18G 9G13
  21084268.6344  -13370649.72146  -9972161.48662
  21093422.3374   -4570662.69246   3318748.90762
  23311966.0324   -3156200.55745   1520431.77361
  19478228.3064  -23844433.23447 -18113920.57161
  19617213.9154  -24436430.07147 -18635492.62761
 90  7 26 19 59 14.9970000  0  5G12G 6G18G 9G13
  21075135.8684  -13418652.71746 -10009566.36962
  21099769.4854   -4537307.12246   3344740.19061
  23317097.9154   -3129215.90545   1541458.64761
  19477305.4314  -23849272.99547 -18117691.82361
  19616795.0094  -24438605.88247 -18637188.06361
 90  7 26 19 59 29.9970000  0  5G12G 6G18G 9G13
  21066015.9854  -13466575.77946 -10046908.97762
  21106139.2434   -4503835.44346   3370821.94861
  23322242.5714   -3102199.94345   1562509.88861
  19476419.4074  -23853955.39147 -18121340.45161
  19616402.8064  -24440677.96747 -18638802.67561
 90  7 26 19 59 44.9970000  0  5G12G 6G18G 9G13
  21056911.4854  -13514413.29346 -10084184.92562
  21112531.9314   -4470242.69246   3396998.04761
  23327390.7594   -3075145.59445   1583591.06161
  19475555.6424  -23858475.23347 -18124862.41061
  19616029.7744  -24442641.53247 -18640332.72261
 90  7 26 19 59 59.9970000  0  5G12G 6G18G 9G13
  21047824.4784  -13562169.74446 -10121397.70762
  21118947.1104   -4436533.87546   3423264.58162
  23332545.5564   -3048057.89944   1604698.20761
  19474724.2904  -23862836.88447 -18128261.11561
  19615675.2594  -24444501.49847 -18641782.03961
 90  7 26 20  0 14.9970000  0  5G12G 6G18G 9G13
  21038753.3684  -13609841.19346 -10158544.25562
  21125384.5794   -4402705.69546   3449624.13062
  23337706.8684   -3020935.17144   1625832.67161
  19473929.5564  -23867037.03147 -18131533.96661
  19615342.2594  -24446254.63447 -18643148.11762
 90  7 26 20  0 29.9970000  0  5G12G 6G18G 9G13
  21029697.3374  -13657429.52346 -10195626.02662
  21131844.6574   -4368760.52346   3476074.84262
  23342869.7124   -2993781.78444   1646991.05061
  19473155.1104  -23871077.57947 -18134682.45361
  19615029.0564  -24447903.35047 -18644432.82961
 90  7 26 20  0 44.9970000  0  5G12G 6G18G 9G13
  21020655.9234  -13704938.25446 -10232645.77862
  21138324.4704   -4334702.58046   3502613.42561
  23348037.7824   -2966603.56443   1668168.78761
  19472419.5244  -23874962.36547 -18137709.57361
  19614733.9934  -24449451.65847 -18645639.30461
 90  7 26 20  0 59.9970000  0  5G12G 6G18G 9G13
  21011632.3454  -13752363.52246 -10269600.48662
  21144827.2434   -4300528.54246   3529242.46861
  23353218.7594   -2939396.44443   1689368.98261
  19471709.9934  -23878687.87847 -18140612.56361
  19614459.0644  -24450896.22747 -18646764.94261
 90  7 26 20  1 14.9970000  0  5G12G 6G18G 9G13
  21002623.6574  -13799699.74346 -10306485.81462
  21151352.8214   -4266233.48946   3555965.81561
  23358408.9854   -2912155.54243   1710595.52961
  19471031.7594  -23882248.76647 -18143387.29161
  19614205.1654  -24452232.11847 -18647805.89361
 90  7 26 20  1 29.9970000  0  5G12G 6G18G 9G13
  20993632.5714  -13846951.85446 -10343305.59861
  21157901.3534   -4231822.94646   3582779.15261
  23363594.8534   -2884887.47744   1731843.25361
  19470385.7354  -23885650.41747 -18146037.94361
  19613967.3604  -24453464.86947 -18648766.47361
 90  7 26 20  1 44.9970000  0  5G12G 6G18G 9G13
  20984655.5324  -13894121.37046 -10380061.02461
  21164472.1574   -4197299.08646   3609680.78161
  23368786.3924   -2857594.55443   1753110.33261
  19469765.8604  -23888894.62247 -18148565.89761
  19613756.6814  -24454596.62147 -18649648.36061
 90  7 26 20  1 59.9970000  0  5G12G 6G18G 9G13
  20975696.2824  -13941209.28146 -10416752.86162
  21171063.2204   -4162663.53646   3636669.44861
  23373985.4934   -2830278.57744   1774395.40561
  19469178.9704  -23891982.70947 -18150972.20861
  19613557.2044  -24455628.87547 -18650452.71461
 90  7 26 20  2 14.9970000  0  5G12G 6G18G 9G13
  20966751.2434  -13988211.41146 -10453377.84361
  21177674.9464   -4127912.70246   3663747.95061
  23379187.7514   -2802935.90243   1795701.28861
  19468624.6654  -23894910.69747 -18153253.76061
  19613379.7204  -24456558.21347 -18651176.86461
 90  7 26 20  2 29.9970000  0  5G12G 6G18G 9G13
  20957821.2354  -14035129.40446 -10489937.26462
  21184312.0954   -4093048.72846   3690914.60561
  23384394.2674   -2775567.37644   1817027.28161
  19468091.7984  -23897680.42747 -18155411.98861
  19613225.3454  -24457386.70647 -18651822.44061
 90  7 26 20  2 44.9970000  0  5G12G 6G18G 9G13
  20948909.2904  -14081963.10546 -10526431.01662
  21190967.3684   -4058072.26546   3718168.92161
  23389614.0714   -2748171.96945   1838374.23461
  19467597.8684  -23900292.18747 -18157447.13361
  19613083.5174  -24458114.91247 -18652389.87462
 90  7 26 20  2 59.9970000  0  5G12G 6G18G 9G13
  20940015.4464  -14128707.72846 -10562855.35862
  21197644.3374   -4022979.14046   3745514.13961
  23394835.7284   -2720744.09745   1859746.49061
  19467133.7824  -23902741.64047 -18159355.80561
  19612966.5174  -24458738.86047 -18652876.05962
 90  7 26 20  3 14.9970000  0  5G12G 6G18G 9G13
  20931136.2434  -14175367.01746 -10599213.20162
  21204345.1344   -3987773.63746   3772946.92361
  23400052.9314   -2693287.57845   1881141.06461
  19466699.2984  -23905032.63447 -18161140.99861
  19612863.0324  -24459262.75347 -18653284.28662
 90  7 26 20  3 29.9970000  0  5G12G 6G18G 9G13
  20922272.7284  -14221939.37146 -10635503.29862
  21211064.5644   -3952454.84746   3800467.98761
  23405284.3374   -2665802.98745   1902557.52861
  19466292.5874  -23907163.90647 -18162801.73561
  19612786.5564  -24459685.64147 -18653613.81162
 90  7 26 20  3 44.9970000  0  5G12G 6G18G 9G13
  20913429.1034  -14268422.88146 -10671724.16762
  21217806.5324   -3917021.53546   3828078.29161
  23410518.7674   -2638288.69745   1923997.12061
  19465916.1494  -23909134.02847 -18164336.89661
  19612721.8454  -24460006.33147 -18653863.69162
 90  7 26 20  3 59.9970000  0  5G12G 6G18G 9G13
  20904600.3924  -14314820.66746 -10707878.25662
  21224570.7434   -3881477.29046   3855775.03061
  23415759.7354   -2610748.97944   1945456.48761
  19465572.5404  -23910946.29047 -18165749.06061
  19612681.7744  -24460228.23147
 90  7 26 20  4 14.9970000  0  5G12G 6G18G 9G13
  20895786.9784  -14361129.72346 -10743963.19362
  21231356.2904   -3845819.72246   3883560.07461
  23421011.0644   -2583182.10344   1966937.06561
  19465256.0564  -23912597.97247 -18167036.08661
  19612659.1734  -24460348.98447
 90  7 26 20  4 29.9970000  0  5G12G 6G18G 9G13
  20886989.0484  -14407350.84546 -10779979.61062
  21238165.6264   -3810050.15546   3911432.38961
  23426261.2124   -2555590.34645   1988437.01361
  19464973.2744  -23914090.06747 -18168198.76761
  19612654.2824  -24460369.84947
 90  7 26 20  4 44.9970000  0  5G12G 6G18G 9G13
  20878212.4704  -14453479.51346 -10815923.98462
  21244991.2044   -3774164.74046   3939394.97261
  23431516.8064   -2527971.83944   2009957.79061
  19464719.8844  -23915418.45847 -18169233.88961
  19612671.2594  -24460287.10247
 90  7 26 20  4 59.9970000  0  5G12G 6G18G 9G13
  20869452.3294  -14499518.43446 -10851798.42562
  21251842.9464   -3738166.97646   3967445.10161
  23436769.1424   -2500330.91844   2031496.04161
  19464501.2284  -23916586.29447 -18170143.89861
  19612705.1344  -24460104.21347
 90  7 26 20  5 14.9970000  0  5G12G 6G18G 9G13
  20860708.8604  -14545466.03946 -10887601.72262
  21258714.2674   -3702055.85846   3995583.55861
  23442034.9154   -2472666.81544   2053052.33261
  19464308.7044  -23917592.19547 -18170927.72561
  19612758.7984  -24459819.94547
 90  7 26 20  5 29.9970000  0  5G12G 6G18G 9G13
  20851981.5874  -14591323.88146 -10923335.07262
  21265607.0794   -3665833.48446   4023808.70761
  23447301.9074   -2444982.01743   2074624.78361
  19464142.3924  -23918438.00147 -18171586.80261
  19612833.6494  -24459436.29247        -0.48572
 90  7 26 20  5 44.9970000  0  5G12G 6G18G 9G13
  20843272.1894  -14637090.09646 -10958997.02262
  21272523.0014   -3629498.57446   4052121.53661
  23452578.6104   -2417274.10244   2096215.23861
  19464015.5484  -23919122.22847 -18172119.97861
  19612928.7434  -24458952.26047       376.67562
 90  7 26 20  5 59.9970000  0  4G12G 6G 9G13
  20834580.6734  -14682766.67446 -10994589.12562
  21279456.9154   -3593053.78146   4080519.99861
  19463915.8604  -23919647.17747 -18172529.04061
  19613035.7124  -24458370.58247       829.93462
 90  7 26 20  6 14.9970000  0  4G12G 6G 9G13
  20825907.7904  -14728351.66346 -11030109.86662
  21286413.8064   -3556497.75446   4109005.13261
  19463846.3764  -23920011.12247 -18172812.65061
  19613164.4464  -24457689.72247      1360.47562
 90  7 26 20  6 29.9970000  0  4G12G 6G 9G13
  20817249.3994  -14773845.65946 -11065559.69462
  21293391.5484   -3519831.99846   4137575.76661
  19463804.9314  -23920215.31547
  19613312.5324  -24456910.90647      1967.35461
 90  7 26 20  6 44.9970000  0  4G12G 6G 9G13
  20808608.3534  -14819247.16746 -11100937.45862
  21300389.7044   -3483055.45246   4166232.74061
  19463802.2434  -23920258.35247
  19613481.0244  -24456033.35547      2651.16561
 90  7 26 20  6 59.9970000  0  4G12G 6G 9G13
  20799987.1654  -14864552.86246 -11136240.57362
  21307408.3144   -3446165.43346   4194978.13261
  19463819.1034  -23920137.27747
  19613668.1344  -24455054.27047      3414.08961
 90  7 26 20  7 14.9970000  0  4G12G 6G 9G13
  20791384.3924  -14909764.07446 -11171470.05862
  21314450.7824   -3409163.89246   4223810.42361
  19463877.1574  -23919853.78947
  19613872.7124  -24453975.65347      4254.57561
 90  7 26 20  7 29.9970000  0  4G12G 6G 9G13
  20782799.2674  -14954880.96747 -11206626.04662
  21321514.1654   -3372051.64346   4252728.97461
  19463959.4784  -23919408.41547
  19614096.4544  -24452798.16847      5172.09261
 90  7 26 20  7 44.9970000  0  4G12G 6G 9G13
  20774232.3924  -14999901.87247 -11241707.23562
  21328595.2514   -3334827.70646   4281734.55361
  19464077.4464  -23918799.80447        -0.33271
  19614338.1574  -24451520.88947      6167.38861
 90  7 26 20  7 59.9970000  0  4G12G 6G 9G13
  20765680.5094  -15044829.25246 -11276715.55762
  21335699.9464   -3297495.22046   4310824.71861
  19464220.9464  -23918030.73747       598.93061
  19614601.1654  -24450146.84647      7238.07561
 90  7 26 20  8 14.9970000  0  4G12G 6G 9G13
  20757149.1264  -15089665.91646 -11311653.19562
  21342823.7824   -3260057.55646   4339996.84161
  19464398.3064  -23917104.25647      1320.84961
  19614880.4394  -24448679.38147      8381.55962
 90  7 26 20  8 29.9970000  0  4G12G 6G 9G13
  20748636.0404  -15134410.31747 -11346518.93362
  21349968.6574   -3222513.73246   4369251.69061
  19464607.7514  -23916019.32047      2166.23161
  19615175.9934  -24447117.54547      9598.58162
 90  7 26 20  8 44.9970000  0  4G12G 6G 9G13
  20740139.5564  -15179058.66347 -11381309.82062
  21357134.3214   -3184860.75046   4398591.59461
  19464841.1574  -23914772.43247      3137.82961
  19615494.6264  -24445458.10347     10891.65462
 90  7 26 20  8 59.9970000  0  4G12G 6G 9G13
  20731661.7124  -15223610.97847 -11416025.88262
  21364319.4784   -3147099.13846   4428016.14361
  19465108.9234  -23913364.03047      4235.26961
  19615828.3604  -24443702.07647     12259.98961
 90  7 26 20  9 14.9970000  0  4G12G 6G 9G13
  20723201.9464  -15268066.51447 -11450666.53062
  21371527.0794   -3109228.80546   4457525.40061
  19465408.8064  -23911793.79647      5458.81861
  19616180.6814  -24441849.20747     13703.78262
 90  7 26 20  9 29.9970000  0  4G12G 6G 9G13
  20714761.8064  -15312424.62147 -11485231.25562
  21378751.8374   -3071249.76746   4487119.36761
  19465740.5874  -23910061.16447      6808.90961
  19616549.3214  -24439899.21747     15223.26661
 90  7 26 20  9 44.9970000  0  4G12G 6G 9G13
  20706337.4934  -15356690.89847 -11519724.42662
  21385998.8294   -3033168.19046   4516793.22461
  19466102.4074  -23908172.07847      8280.90261
  19616938.8374  -24437858.12947     16813.73461
 90  7 26 20  9 59.9970000  0  4G12G 6G 9G13
  20697930.5644  -15400861.15647 -11554142.77462
  21393267.8764   -2994980.45846   4546549.80061
  19466491.4154  -23906122.63347
  19617344.0484  -24435722.46847
 90  7 26 20 10 14.9970000  0  4G12G 6G 9G13
  20689541.2984  -15444946.33747 -11588494.84562
  21400552.3534   -2956698.40146   4576379.88261
  19466908.9154  -23903924.40347
  19617766.3454  -24433503.99347
 90  7 26 20 10 29.9970000  0  4G12G 6G 9G13
  20681171.7744  -15488933.78547 -11622770.75062
  21407857.6814   -2918309.74146   4606293.03261
  19467359.0954  -23901564.97047
  19618206.4074  -24431190.46847
 90  7 26 20 10 44.9970000  0  4G12G 6G 9G13
  20672821.6344  -15532812.51747 -11656961.94262
  21415185.0324   -2879804.36046   4636297.13861
  19467839.8844  -23899033.65547     15401.68961
  19618666.7674  -24428771.56747     23894.19361
 90  7 26 20 10 59.9970000  0  4G12G 6G 9G13
  20664488.5324  -15576598.83047 -11691081.11862
  21422532.1264   -2841199.09546   4666379.06261
  19468349.4464  -23896347.12447     17495.06961
  19619145.5404  -24426264.24047     25847.95662
 90  7 26 20 11 14.9970000  0  4G12G 6G 9G13
  20656177.6104  -15620275.21547 -11725114.63662
  21429897.7044   -2802477.17546   4696551.89961
  19468893.2824  -23893488.41947     19722.60561
  19619643.6494  -24423651.91347     27883.54762
 90  7 26 20 11 29.9970000  0  4G12G 6G 9G13
  20647884.6964  -15663854.52847 -11759072.50962
  21437287.2434   -2763651.92246   4726805.24561
  19469466.0244  -23890470.54847     22074.18461
  19620157.9854  -24420947.87947     29990.58962
 90  7 26 20 11 44.9970000  0  4G12G 6G 9G13
  20639610.4464  -15707335.42047 -11792953.69362
  21444698.3294   -2724722.80446   4757139.52561
  19470073.0874  -23887292.57947     24550.50261
  19620687.7904  -24418151.28747     32169.75161
 90  7 26 20 11 59.9970000  0  4G12G 6G 9G13
  20631357.0564  -15750716.01947 -11826756.73062
  21452125.0794   -2685688.51846   4787555.75361
  19470709.5564  -23883953.11147     27152.67361
  19621237.6424  -24415260.87047     34422.02961
 90  7 26 20 12 14.9970000  0  4G12G 6G 9G13
  20623120.4784  -15793998.15047 -11860483.04662
  21459572.1574   -2646551.41146   4818052.09061
  19471372.1104  -23880454.04647     29879.19161
  19621808.8374  -24412278.86347     36745.67562
 90  7 26 20 12 29.9970000  0  4G12G 6G 9G13
  20614905.4394  -15837173.54047 -11894126.18262
  21467040.2904   -2607303.96446   4848634.41261
  19472072.4784  -23876787.61047     32736.14361
  19622392.5404  -24409197.75247     39146.54361
 90  7 26 20 12 44.9970000  0  4G12G 6G 9G13
  20606707.3534  -15880249.26347 -11927691.64462
  21474528.8064   -2567953.89046   4879296.71161
  19472800.1104  -23872961.11747     35717.80461
  19622997.4394  -24406025.23447     41618.63462
 90  7 26 20 12 59.9970000  0  4G12G 6G 9G13
  20598529.6964  -15923221.46847 -11961176.45562
  21482035.4074   -2528498.06445   4910041.39961
  19473558.4464  -23868971.39947     38826.65761
  19623618.6184  -24402757.99747     44164.53461
 90  7 26 20 13 14.9970000  0  4G12G 6G 9G13
  20590371.9394  -15966089.34047 -11994579.97262
  21489566.2514   -2488936.09645   4940868.80461
  19474350.4394  -23864817.79147     42063.22661
  19624258.0484  -24399395.66347     46784.52761
 90  7 26 20 13 29.9970000  0  4G12G 6G 9G13
  20582233.0644  -16008855.24647 -12027904.02662
  21497109.3374   -2449271.13445   4971776.46961
  19475169.4704  -23860503.04447     45425.34761
  19624914.5174  -24395941.52247     49476.06961
 90  7 26 20 13 44.9970000  0  4G12G 6G 9G13
  20574115.3374  -16051521.31947 -12061150.29262
  21504678.6184   -2409506.08545   5002762.11461
  19476020.6184  -23856029.70447     48911.04961
  19625590.9624  -24392398.25347     52237.05562
 90  7 26 20 13 59.9970000  0  4G12G 6G 9G13
  20566015.1424  -16094085.59347 -12094317.22462
  21512266.8684   -2369639.50946   5033826.87961
  19476905.2124  -23851396.27447     52521.49561
  19626279.4234  -24388764.34147     55068.67262
 90  7 26 20 14 14.9970000  0  4G12G 6G 9G13
  20557935.4074  -16136543.32247 -12127401.13962
  21519874.2984   -2329667.33946   5064973.91761
  19477814.3764  -23846598.27847     56260.18161
  19626991.6734  -24385035.97347     57973.90462
 90  7 26 20 14 29.9970000  0  4G12G 6G 9G13
  20549877.3374  -16178895.74747 -12160402.99462
  21527501.7284   -2289591.44246   5096201.78561
  19478759.4854  -23841637.37847     60125.80461
  19627718.9544  -24381214.86547     60951.38662
 90  7 26 20 14 44.9970000  0  4G12G 6G 9G13
  20541838.6034  -16221142.44847 -12193322.47962
  21535146.5174   -2249412.06046   5127510.27861
  19479736.6184  -23836513.51947     64118.40261
  19628462.8294  -24377301.24747     64000.96362
 90  7 26 20 14 59.9970000  0  4G12G 6G 9G13
  20533819.1734  -16263285.54147 -12226161.22762
  21542810.3294   -2209131.89846   5158897.30261
  19480743.6654  -23831228.95747     68236.22561
  19629224.8144  -24373297.72747     67120.58662
 90  7 26 20 15 14.9970000  0  4G12G 6G 9G13
  20525816.1344  -16305325.78247 -12258919.83362
  21550496.1184   -2168752.38746   5190361.75361
  19481777.5014  -23825785.14947     72478.13461
  19630001.6964  -24369205.75047     70309.14362
 90  7 26 20 15 29.9970000  0  4G12G 6G 9G13
  20517837.3294  -16347261.23347 -12291596.78562
  21558197.2044   -2128272.21046   5221904.63761
  19482845.1734  -23820180.22347     76845.58661
  19630797.4154  -24365023.58247     73567.97162
 90  7 26 20 15 44.9970000  0  4G12G 6G 9G13
  20509878.3294  -16389090.08947 -12324190.67062
  21565918.6964   -2087690.22646   5253526.84761
  19483942.1034  -23814413.11447     81339.41861
  19631611.9394  -24360750.45747     76897.68562
 90  7 26 20 15 59.9970000  0  4G12G 6G 9G13
  20501939.5324  -16430812.03347 -12356701.24062
  21573661.8994   -2047006.88546   5285228.04561
  19485070.3764  -23808483.78747     85959.65461
  19632442.5484  -24356386.62847     80298.07062
 90  7 26 20 16 14.9970000  0  4G12G 6G 9G13
  20494018.9314  -16472427.47447 -12389128.82362
  21581421.7354   -2006223.23346   5317007.40761
  19486230.4314  -23802392.97847     90705.72061
  19633287.5094  -24351933.12547     83768.33462
 90  7 26 20 16 29.9970000  0  4G12G 6G 9G13
  20486118.2594  -16513936.26047 -12421473.29662
  21589204.4394   -1965339.59946   5348864.66861
  19487418.3924  -23796140.91947     95577.43761
  19634154.5244  -24347390.42247     87308.11362
 90  7 26 20 16 44.9970000  0  4G12G 6G 9G13
  20478240.8994  -16555340.82247 -12453736.56062
  21597002.4074   -1924359.25946   5380797.28861
  19488639.0484  -23789730.39447    100572.63361
  19635034.3144  -24342761.25547     90915.25762
 90  7 26 20 16 59.9970000  0  4G12G 6G 9G13
  20470382.4464  -16596638.29147 -12485916.37062
  21604820.1814   -1883279.86746   5412807.09261
  19489887.5174  -23783159.02847    105693.15861
  19635936.9934  -24338043.73847     94591.24562
 90  7 26 20 17 14.9970000  0  4G12G 6G 9G13
  20462544.2904  -16637827.92747 -12518012.16262
  21612656.5094   -1842101.40846   5444894.08761
  19491167.9234  -23776426.45447    110939.30461
  19636848.7824  -24333237.71947     98336.19662
 90  7 26 20 17 29.9970000  0  4G12G 6G 9G13
  20454726.7284  -16678912.45447 -12550026.04862
  21620509.2984   -1800827.24846   5477055.65761
  19492481.8844  -23769535.75547    116308.66361
  19637777.8684  -24328346.35147    102147.65662
 90  7 26 20 17 44.9970000  0  4G12G 6G 9G13
  20446928.9624  -16719890.09447 -12581956.64162
  21628380.9704   -1759456.14646   5509292.76661
  19493823.1574  -23762485.52347    121802.33661
  19638725.8064  -24323368.58447    106026.43361
 90  7 26 20 17 59.9970000  0  4G12G 6G 9G13
  20439149.7354  -16760759.60647 -12613802.97762
  21636271.4624   -1717987.61846   5541605.78761
  19495194.7984  -23755274.93047    127420.96061
  19639690.4074  -24318303.62747    109973.15262
 90  7 26 20 18 14.9970000  0  4G12G 6G 9G13
  20431393.1734  -16801519.05847 -12645563.56862
  21644184.4934   -1676420.42546   5573995.69761
  19496599.8144  -23747902.50447    133165.68961
  19640670.0324  -24313150.33147    113988.70862
 90  7 26 20 18 29.9970000  0  4G12G 6G 9G13
  20423659.4464  -16842167.68047 -12677237.78662
  21652115.4544   -1634754.27146   5606462.71061
  19498030.3294  -23740367.65047    139036.98861
  19641669.3604  -24307908.14247    118073.53462
 90  7 26 20 18 44.9970000  0  4G12G 6G 9G13
  20415943.2824  -16882713.00247 -12708831.51262
  21660059.2824   -1592997.52846   5639000.31961
  19499496.5094  -23732678.49247    145028.51561
  19642679.7204  -24302585.50047    122221.04662
 90  7 26 20 18 59.9970000  0  4G12G 6G 9G13
  20408247.8144  -16923150.86747 -12740341.50662
  21668024.1574   -1551146.75446   5671611.18461
  19500988.9544  -23724831.30747    151143.18661
  19643708.2594  -24297179.11247    126433.81862
 90  7 26 20 19 14.9970000  0  4G12G 6G 9G13
  20400574.1264  -16963479.11747 -12771766.09262
  21676006.4234   -1509200.34346   5704296.57461
  19502509.6104  -23716824.31947    157382.38061
  19644754.7744  -24291687.06547    130713.33262
 90  7 26 20 19 29.9970000  0  4G12G 6G 9G13
  20392920.7124  -17003698.71947 -12803106.01262
  21684005.8214   -1467159.91146   5737055.22661
  19504068.0874  -23708658.92447    163745.00361
  19645814.7744  -24286110.94147    135058.36662
 90  7 26 20 19 44.9970000  0  4G12G 6G 9G13
  20385289.4624  -17043804.13347 -12834356.95962
  21692025.4934   -1425020.51146   5769890.99661
  19505650.4394  -23700329.77047    170235.22761
  19646894.0094  -24280445.65447    139472.86862
 90  7 26 20 19 59.9970000  0  4G12G 6G 9G13
  20377678.8994  -17083798.99947 -12865521.76362
  21700060.0324   -1382786.39746   5802800.57761
  19507263.9074  -23691840.97247    176849.85061
  19647987.6184  -24274695.54947    143953.46561
 90  7 26 20 20 14.9970000  0  4G12G 6G 9G13
  20370089.6894  -17123681.01447 -12896598.62962
  21708114.7204   -1340455.92646   5835785.23661
  19508911.3764  -23683190.65547    183590.33561
  19649100.2824  -24268859.03247    148501.39962
 90  7 26 20 20 29.9970000  0  4G12G 6G 9G13
  20362520.0714  -17163454.70847 -12927591.09562
  21716187.8994   -1298034.32946   5868840.91161
  19510589.1264  -23674383.87347    190452.74661
  19650225.2984  -24262941.20147    153112.69262
 90  7 26 20 20 44.9970000  0  4G12G 6G 9G13
  20354971.1184  -17203128.61547 -12958505.79962
  21724276.6494   -1255530.92046   5901960.32261
  19512294.5564  -23665429.46447    197430.18961
  19651365.2514  -24256951.24947    157780.18862
 90  7 26 20 20 59.9970000  0  4G12G 6G 9G13
  20347442.1264  -17242694.45547 -12989336.29462
  21732380.4784   -1212938.05846   5935149.44561
  19514027.5324  -23656319.65247    204528.72661
  19652518.5714  -24250881.68247    162509.71862
 90  7 26 20 21 14.9970000  0  4G12G 6G 9G13
  20339934.4394  -17282146.51547 -13020078.14162
  21740504.6264   -1170250.52046   5968412.33161
  19515790.6894  -23647049.06247    211752.54161
  19653690.5484  -24244727.19447    167305.42162
 90  7 26 20 21 29.9970000  0  4G12G 6G 9G13
  20332448.8684  -17321483.77947 -13050730.54262
  21748645.9314   -1127468.04746   6001749.19261
  19517585.6344  -23637617.06647    219102.12161
  19654879.4544  -24238487.28247    172167.68862
 90  7 26 20 21 44.9970000  0  4G12G 6G 9G13
  20324984.1574  -17360708.27347 -13081295.05362
  21756804.3144   -1084593.35046   6035157.91361
  19519408.8924  -23628026.24347    226575.47361
  19656082.4544  -24232164.59847    177094.45062
 90  7 26 20 21 59.9970000  0  4G12G 6G 9G13
  20317540.0324  -17399822.46847 -13111773.62662
  21764981.8764   -1041629.64146   6068635.99961
  19521262.7984  -23618279.41747    234170.37761
  19657300.7204  -24225762.40047    182083.17362
 90  7 26 20 22 14.9970000  0  4G12G 6G 9G13
  20310121.1184  -17438820.19247 -13142161.44162
  21773176.2674    -998571.28846   6102187.83861
  19523150.7434  -23608370.83747    241891.32561
  19658534.2434  -24219275.11547    187138.19162
 90  7 26 20 22 29.9970000  0  4G12G 6G 9G13
  20302723.0324  -17477697.47247 -13172455.39662
  21781387.6034    -955414.98246   6135816.00061
  19525068.3764  -23598296.90047    249741.12961
  19659783.6654  -24212699.13847    192262.32862
 90  7 26 20 22 44.9970000  0  4G12G 6G 9G13
  20295344.2594  -17516461.94247 -13202661.45162
  21789617.5714    -912169.00146   6169514.03461
  19527013.6734  -23588065.72347    257713.44561
  19661054.0874  -24206042.68047    197449.17262
 90  7 26 20 22 59.9970000  0  4G12G 6G 9G13
  20287989.2594  -17555110.43347 -13232777.14262
  21797864.7824    -868830.82846   6203283.91661
  19528991.2984  -23577674.40547    265810.54661
  19662335.7674  -24199303.26247    202700.65961
 90  7 26 20 23 14.9970000  0  4G12G 6G 9G13
  20280657.8844  -17593643.06447 -13262802.55062
  21806129.5644    -825401.26646   6237124.99761
  19531000.7594  -23567123.57047    274031.95361
  19663632.2044  -24192481.69047    208016.16961
 90  7 26 20 23 29.9970000  0  4G12G 6G 9G13
  20273347.4314  -17632058.20847 -13292736.39762
  21814410.4464    -781879.53246   6271037.91061
  19533037.1424  -23556412.36147    282378.32461
  19664947.9934  -24185576.89547    213396.52561
 90  7 26 20 23 44.9970000  0  4G12G 6G 9G13
  20266058.1894  -17670359.98247 -13322581.92062
  21822710.7434    -738270.26046   6305019.02661
  19535108.2204  -23545544.96247    290846.39661
  19666273.3454  -24178593.69347    218837.98661
 90  7 26 20 23 59.9970000  0  4G12G 6G 9G13
  20258791.8924  -17708544.47547 -13352336.05762
  21831027.6894    -694570.07746   6339070.98261
  19537203.9394  -23534517.94947    299438.85361
  19667619.8534  -24171528.60147    224343.25461
 90  7 26 20 24 14.9970000  0  4G12G 6G 9G13
  20251550.1424  -17746607.04347 -13381995.18162
  21839360.8764    -650775.09146   6373196.79861
  19539332.8294  -23523327.10446    308158.96661
  19668982.2674  -24164377.45447    229915.56861
 90  7 26 20 24 29.9960000  0  4G12G 6G 9G13
  20244330.5984  -17784553.75647 -13411564.03262
  21847708.6374    -606897.56146   6407386.95161
  19541494.8244  -23511982.25547    316999.08261
  19670354.8794  -24157150.20847    235547.18761
 90  7 26 20 24 44.9960000  0  4G12G 6G 9G13
  20237129.0904  -17822382.39447 -13441040.87262
  21856077.0204    -562924.84646   6441651.26961
  19543681.6914  -23500474.88947    325965.83861
  19671748.3714  -24149839.09347    241244.16361
 90  7 26 20 24 59.9960000  0  4G12G 6G 9G13
  20229951.3874  -17860097.40547 -13470429.17562
  21864459.6994    -518867.56546   6475981.48861
  19545898.9814  -23488813.21847    335052.83061
  19673154.1994  -24142452.29447    247000.10561
 90  7 26 20 25 14.9960000  0  4G12G 6G 9G13
  20222797.2624  -17897696.26447 -13499726.97762
  21872862.2704    -474723.82746   6510379.06661
  19548149.9574  -23476995.20147    344261.64561
  19674574.5904  -24134987.77947    252816.60861
 90  7 26 20 25 29.9960000  0  4G12G 6G 9G13
  20215667.4884  -17935176.78347 -13528932.55862
  21881278.4024    -430492.17146   6544845.15561
  19550429.8484  -23465019.22746    353593.55261
  19676010.1684  -24127443.90047    258694.95161
 90  7 26 20 25 44.9960000  0  4G12G 6G 9G13
  20208556.8634  -17972539.59247 -13558046.42162
  21889712.4574    -386174.02046   6579378.63961
  19552739.7934  -23452886.25246    363047.79361
  19677457.0594  -24119822.04347    264634.05961
 90  7 26 20 25 59.9960000  0  4G12G 6G 9G13
  20201466.4964  -18009786.66947 -13587070.10462
  21898163.4574    -341771.69046   6613977.71961
  19555077.7464  -23440598.48346    372622.65761
  19678924.6294  -24112124.74547    270631.94661
 90  7 26 20 26 14.9960000  0  4G12G 6G 9G13
  20194402.1524  -18046916.31147 -13616002.27962
  21906628.0824    -297284.13646   6648643.20961
  19557445.0904  -23428154.70146    382319.08361
  19680402.5594  -24104350.61047    276689.70761
 90  7 26 20 26 29.9960000  0  4G12G 6G 9G13
  20187357.1294  -18083939.75247 -13644851.69362
  21915107.7854    -252723.41146   6683365.70661
  19559838.8794  -23415566.60246    392127.96061
  19681896.1064  -24096511.36147    282798.20261
 90  7 26 20 26 44.9960000  0  4G12G 6G 9G13
  20180332.2464  -18120847.53347 -13673610.99462
  21923602.6454    -208080.59246   6718152.17161
  19562262.3244  -23402825.36446    402056.18061
  19683401.1294  -24088598.35047    288964.18662
 90  7 26 20 26 59.9960000  0  4G12G 6G 9G13
  20173336.1214  -18157624.63647 -13702268.46162
  21932117.0044    -163341.42846   6753013.72461
  19564718.9024  -23389916.15546    412115.27861
  19684923.4494  -24080597.20447    295198.83761
 90  7 26 20 27 14.9960000  0  4G12G 6G 9G13
  20166362.3874  -18194277.61347 -13730829.20762
  21940646.2234    -118513.07246   6787944.76661
  19567207.6994  -23376846.01646    422299.77161
  19686461.5044  -24072515.14247    301496.54761
 90  7 26 20 27 29.9960000  0  4G12G 6G 9G13
  20159407.6914  -18230808.44947 -13759294.77362
  21949195.8714     -73598.28146   6822943.16261
  19569725.6764  -23363617.56946    432607.62762
  19688014.9884  -24064354.65547    307855.35462
 90  7 26 20 27 44.9960000  0  4G12G 6G 9G13
  20152479.5664  -18267221.91247 -13787668.89262
  21957758.5904     -28602.32946   6858004.79661
  19572269.9884  -23350235.93046    443034.84662
  19689582.5124  -24056121.13747    314271.08162
 90  7 26 20 27 59.9960000  0  4G12G 6G 9G13
  20145574.1454  -18303514.09947 -13815948.50162
  21966336.1524      16477.89746   6893132.09761
  19574849.8634  -23336697.67846    453584.11462
  19691162.7234  -24047811.20447    320746.34062
 90  7 26 20 28 14.9960000  0  4G12G 6G 9G13
  20138689.5204  -18339689.17347 -13844136.85362
  21974928.9344      61637.64246   6928321.37261
  19577453.1064  -23323007.28446    464251.92962
  19692758.9654  -24039429.55247    327277.48761
 90  7 26 20 28 29.9960000  0  4G12G 6G 9G13
  20131828.3404  -18375743.04447 -13872230.76762
  21983538.6844     106880.46446   6963575.37161
  19580088.2384  -23309161.03446    475041.18061
  19694365.5984  -24030972.60647    333867.31161
 90  7 26 20 28 44.9960000  0  4G12G 6G 9G13
  20124991.8874  -18411677.44447 -13900231.57562
  21992163.4184     152203.74846   6998892.07561
  19582752.3324  -23295161.34246    485950.01361
  19695991.7384  -24022442.95347    340513.77961
 90  7 26 20 28 59.9960000  0  4G12G 6G 9G13
  20118175.4264  -18447490.46947 -13928137.81162
  22000804.6604     197608.87546   7034272.53661
  19585445.9964  -23281006.63646    496979.62461
  19697625.7234  -24013839.00347    347218.15061
 90  7 26 20 29 14.9960000  0  4G12G 6G 9G13
  20111382.1454  -18483181.40047 -13955948.90562
  22009459.5744     243095.90846   7069716.84361
  19588167.3164  -23266696.67146    508130.21861
  19699280.5354  -24005160.72647    353980.43161
 90  7 26 20 29 29.9960000  0  4G12G 6G 9G13
  20104615.4814  -18518749.21647 -13983664.06662
  22018130.7314     288665.12846   7105225.17861
  19590922.1764  -23252230.84446    519402.25861
  19700945.7774  -23996407.73047    360800.93761
 90  7 26 20 29 44.9960000  0  4G12G 6G 9G13
  20097870.9104  -18554197.08347 -14011285.76162
  22026817.9654     334312.89346   7140794.71861
  19593705.9104  -23237612.69246    530792.99761
  19702622.2234  -23987583.63947    367676.83861
 90  7 26 20 29 59.9960000  0  4G12G 6G 9G13
  20091147.1844  -18589521.15147 -14038810.98662
  22035520.7544     380042.15846   7176427.75461
  19596514.6914  -23222839.04546    542304.89661
  19704316.9414  -23978685.48247    374610.45861
 90  7 26 20 30 14.9960000  0  4G12G 6G 9G13
  20084450.1764  -18624721.30447 -14066239.66462
  22044240.1684     425852.55746   7212124.01061
  19599355.7384  -23207909.99146    553937.89561
  19706024.3954  -23969713.46747    381601.62161
 90  7 26 20 30 29.9960000  0  4G12G 6G 9G13
  20077774.3324  -18659799.76847 -14093573.50962
  22052971.1844     471741.15246   7247881.19661
  19602224.9814  -23192828.47246    565689.70361
  19707745.9654  -23960670.46647    388648.11561
 90  7 26 20 30 44.9960000  0  4G12G 6G 9G13
  20071122.4344  -18694756.21547 -14120812.27462
  22061717.5744     517707.76446   7283699.16761
  19605124.6294  -23177594.28946    577560.46962
  19709478.9414  -23951556.57547    395749.84362
 90  7 26 20 30 59.9960000  0  4G12G 6G 9G13
  20064493.8794  -18729588.25347 -14147954.10762
  22070480.3954     563753.92846   7319579.13661
  19608052.2464  -23162205.72846    589551.52262
  19711228.4104  -23942370.03947    402908.17562
 90  7 26 20 31 14.9960000  0  4G12G 6G 9G13
  20057890.9024  -18764295.94747 -14174999.04762
  22079257.1374     609879.07146   7355520.65061
  19611012.0664  -23146663.14546    601662.59262
  19712988.8874  -23933111.68147    410122.48262
 90  7 26 20 31 29.9960000  0  4G12G 6G 9G13
  20051307.6064  -18798881.55947 -14201948.86062
  22088049.0274     656080.14246   7391521.32661
  19613997.5664  -23130969.36346    613891.48562
  19714764.0824  -23923784.16147    417390.66561
 90  7 26 20 31 44.9960000  0  4G12G 6G 9G13
  20044749.5044  -18833343.31347 -14228802.15962
  22096857.6914     702358.37045   7427582.11861
  19617014.4814  -23115123.19246    626239.11861
  19716551.9344  -23914386.39047    424713.59362
 90  7 26 20 31 59.9960000  0  4G12G 6G 9G13
  20038217.8634  -18867678.45347 -14255556.80162
  22105678.2154     748715.82145   7463704.66261
  19620056.2074  -23099122.11046    638707.46362
  19718355.8404  -23904916.02847    432093.08162
 90  7 26 20 32 14.9960000  0  4G12G 6G 9G13
  20031707.4494  -18901889.86247 -14282215.02863
  22114512.6684     795148.90245   7499886.12761
  19623129.8874  -23082969.65346    651293.76662
  19720171.8244  -23895376.61547    439526.38662
 90  7 26 20 32 29.9960000  0  4G12G 6G 9G13
  20025220.5904  -18935980.39647 -14308779.07362
  22123360.9654     841654.18245   7536123.83861
  19626234.5204  -23066668.88646    663995.63262
  19721997.0354  -23885771.55847    447010.83961
 90  7 26 20 32 44.9960000  0  4G12G 6G 9G13
  20018757.2464  -18969942.39647 -14335242.96462
  22132227.5824     888238.71345   7572423.30861
  19629363.8404  -23050212.90146    676818.44762
  19723841.3014  -23876093.97047    454551.80761
 90  7 26 20 32 59.9960000  0  4G12G 6G 9G13
  20012319.0044  -19003782.23247 -14361611.65862
  22141107.8404     934895.33345   7608778.94961
  19632524.8564  -23033608.46846    689756.94061
  19725691.9104  -23866350.71547    462143.95361
 90  7 26 20 33 14.9960000  0  4G12G 6G 9G13
  20005900.8564  -19037497.14147 -14387883.00262
  22149998.9414     981626.20845   7645192.44861
  19635713.7464  -23016853.10346    702813.03561
  19727562.3954  -23856539.55147    469789.00061
 90  7 26 20 33 29.9960000  0  4G12G 6G 9G13
  19999509.0204  -19071088.49447 -14414058.07862
  22158907.3244    1028429.45145   7681662.32961
  19638930.8484  -22999948.75346    715985.21961
  19729437.5274  -23846662.33647    477485.52461
 90  7 26 20 33 44.9960000  0  4G12G 6G 9G13
  19993141.8484  -19104551.26947 -14440132.95862
  22167827.6994    1075309.36045   7718191.94761
  19642173.9264  -22982890.80746    729277.08661
  19731333.5904  -23836714.79147    485236.84961
 90  7 26 20 33 59.9960000  0  4G12G 6G 9G13
  19986797.6844  -19137887.20747 -14466109.00162
  22176759.5434    1122263.54045   7754779.45161
  19645451.2384  -22965681.50046    742686.91061
  19733237.4264  -23826698.98647    493041.36061
 90  7 26 20 34 14.9960000  0  4G12G 6G 9G13
  19980477.1214  -19171098.38947 -14491987.84062
  22185713.8634    1169289.16045   7791422.61861
  19648754.3404  -22948323.31046    756212.74561
  19735156.4414  -23816617.70347    500896.89861
 90  7 26 20 34 29.9960000  0  4G12G 6G 9G13
  19974182.1214  -19204183.68947 -14517768.58562
  22194675.3714    1216386.78545   7828121.90361
  19652085.3794  -22930815.85746    769854.88462
  19737087.5594  -23806470.29947    508803.96361
 90  7 26 20 34 44.9960000  0  4G12G 6G 9G13
  19967911.7314  -19237140.53747 -14543449.23662
  22203651.4494    1263558.51845   7864878.92761
  19655445.0044  -22913156.52546    783615.37362
  19739033.9884  -23796254.50547    516764.29961
 90  7 26 20 34 59.9960000  0  4G12G 6G 9G13
  19961664.1134  -19269968.95147 -14569029.81162
  22212645.3954    1310803.60645   7901693.11961
  19658834.6214  -22895346.01446    797493.66562
  19740989.0274  -23785971.07347    524777.35062
 90  7 26 20 35 14.9960000  0  4G12G 6G 9G13
  19955440.1914  -19302672.70647 -14594513.24562
  22221646.1604    1358117.52445   7938560.93761
  19662252.1844  -22877388.75946    811486.29562
  19742959.8714  -23775624.60347    532839.52962
 90  7 26 20 35 29.9960000  0  4G12G 6G 9G13
  19949240.3634  -19335247.27747 -14619896.01762
  22230663.4964    1405504.08345   7975485.32961
  19665698.3244  -22859280.58146    825596.53561
  19744940.6294  -23765211.21647    540953.84561
 90  7 26 20 35 44.9960000  0  4G12G 6G 9G13
  19943065.4344  -19367693.43447 -14645178.73162
  22239691.7854    1452962.05545   8012465.40261
  19669172.7854  -22841022.72847    839823.40262
  19746933.3714  -23754731.75747    549119.64362
 90  7 26 20 35 59.9960000  0  4G12G 6G 9G13
  19936918.0044  -19400006.56447 -14670357.78162
  22248736.9964    1500495.40045   8049504.18061
  19672675.1914  -22822610.86446    854170.27062
  19748944.4814  -23744182.15747    557340.09161
 90  7 26 20 36 14.9960000  0  4G12G 6G 9G13
  19930791.8954  -19432191.89247 -14695437.25062
  22257795.4024    1548098.16345   8086597.05661
  19676207.6994  -22804050.93047    868632.53262
  19750960.3014  -23733568.58047    565610.39362
 90  7 26 20 36 29.9960000  0  4G12G 6G 9G13
  19924692.8244  -19464250.07247 -14720417.64262
  22266865.8714    1595769.11645   8123743.09461
  19679769.3954  -22785343.82747    883209.46361
  19752993.4104  -23722892.16247    573929.66662
 90  7 26 20 36 44.9960000  0  4G12G 6G 9G13
  19918616.6294  -19496178.62547 -14745297.01862
  22275950.0594    1643510.11845   8160943.71561
  19683358.5354  -22766487.60547    897902.58561
  19755037.0824  -23712150.67747    582299.63962
 90  7 26 20 36 59.9960000  0  4G12G 6G 9G13
  19912566.1134  -19527975.75747 -14770073.99562
  22285053.9734    1691322.22145   8198199.71361
  19686972.9024  -22747481.22147    912712.72461
  19757093.5434  -23701343.21547    590721.03162
 90  7 26 20 37 14.9960000  0  4G12G 6G 9G13
  19906539.3794  -19559646.24747 -14794752.29362
  22294164.7234    1739199.98145   8235506.89361
  19690617.2074  -22728329.59946    927636.02361
  19759161.5044  -23690474.82447    599189.88362
 90  7 26 20 37 29.9960000  0  4G12G 6G 9G13
  19900539.3564  -19591183.63747 -14819326.88062
  22303289.1294    1787149.31045   8272869.81661
  19694290.8484  -22709027.07946    942676.91462
  19761242.1064  -23679539.84747    607710.63162
 90  7 26 20 37 44.9960000  0  4G12G 6G 9G13
  19894562.8484  -19622589.44747 -14843798.92362
  22312426.5124    1835167.98345   8310286.76961
  19697991.8954  -22689575.38246    957834.05361
  19763337.1994  -23668540.40147    616281.61262
 90  7 26 20 37 59.9960000  0  4G12G 6G 9G13
  19888608.9574  -19653863.05647 -14868167.96762
  22321581.0124    1883256.06745   8347757.81661
  19701721.9884  -22669974.39046    973107.51861
  19765441.4264  -23657476.33047    624902.95362
 90  7 26 20 38 14.9960000  0  4G12G 6G 9G13
  19882684.6844  -19685002.29347 -14892432.29862
  22330744.5904    1931414.98145   8385284.06261
  19705481.2074  -22650222.58146    988498.49961
  19767559.3484  -23646345.94447    633575.96662
 90  7 26 20 38 29.9960000  0  4G12G 6G 9G13
  19876782.6684  -19716008.87947 -14916593.26262
  22339921.4574    1979642.53845   8422863.77761
  19709265.7464  -22630321.91246   1004005.48461
  19769690.9654  -23635151.35047    642299.01162
 90  7 26 20 38 44.9960000  0  4G12G 6G 9G13
  19870909.1374  -19746880.01047 -14940648.67862
  22349113.8094    2027940.87445   8460498.65061
  19713083.6844  -22610270.10846   1019630.23261
  19771833.0044  -23623890.41747    651073.75061
 90  7 26 20 38 59.9960000  0  4G12G 6G 9G13
  19865060.1764  -19777618.82847 -14964601.00162
  22358311.0984    2076306.09044   8498185.64661
  19716929.0664  -22590070.89547   1035369.84162
  19773986.1454  -23612566.77547    659897.35162
 90  7 26 20 39 14.9960000  0  4G12G 6G 9G13
  19859237.7544  -19808222.72747 -14988448.18462
  22367531.0514    2124740.18544   8535926.29361
  19720800.7854  -22569721.97947   1051226.10761
  19776154.3164  -23601178.31747    668771.46062
 90  7 26 20 39 29.9960000  0  4G12G 6G 9G13
  19853438.2074  -19838692.61747 -15012190.95362
  22376759.3014    2173241.64544   8573719.46061
  19724698.6994  -22549224.95547   1067197.78162
  19778334.3794  -23589726.78147    677694.72262
 90  7 26 20 39 44.9960000  0  4G12G 6G 9G13
  19847665.6524  -19869030.54347 -15035830.89462
  22386002.3954    2221807.75544   8611563.01461
  19728629.0594  -22528582.12547   1083283.06561
  19780523.4024  -23578214.56847    686665.26262
 90  7 26 20 39 59.9960000  0  4G12G 6G 9G13
  19841916.8324  -19899232.47147 -15059364.85662
  22395259.6684    2270441.94144   8649459.59961
  19732585.9574  -22507790.07347   1099484.62962
  19782726.5594  -23566638.26447    695685.75562
 90  7 26 20 40 14.9960000  0  4G12G 6G 9G13
  19836194.7854  -19929302.31947 -15082795.89862
  22404524.7314    2319139.77245   8687405.75361
  19736569.1914  -22486853.13647   1115799.08762
  19784942.2074  -23555002.30947    704752.72262
 90  7 26 20 40 29.9960000  0  4G12G 6G 9G13
  19830497.5274  -19959247.82347 -15106130.04562
  22413801.4184    2367892.73045   8725394.87961
  19740578.3874  -22465779.63147   1132219.97362
  19787165.3094  -23543314.95147    713859.74262
 90  7 26 20 40 44.9960000  0  4G12G 6G 9G13
  19824826.9734  -19989046.23447 -15129349.58462
  22423088.5274    2416723.06944   8763444.31061
  19744619.4734  -22444547.06547   1148764.80161
  19789402.6374  -23531553.82847    723024.23962
 90  7 26 20 40 59.9960000  0  4G12G 6G 9G13
  19819181.9884  -20018709.98147 -15152464.18562
  22432395.1524    2465617.65744   8801543.79761
  19748688.6294  -22423168.46147   1165423.41762
  19791653.2154  -23519732.05247    732236.00762
 90  7 26 20 41 14.9960000  0  4G12G 6G 9G13
  19813562.9024  -20048240.50547 -15175474.97762
  22441715.2074    2514574.38844   8839691.70761
  19752784.1524  -22401645.94947   1182194.17762
  19793915.1524  -23507851.58747    741493.49962
 90  7 26 20 41 29.9960000  0  4G12G 6G 9G13
  19807969.4414  -20077634.81147 -15198379.62262
  22451040.1604    2563595.65744   8877889.88261
  19756907.8484  -22379976.61446   1199079.33861
  19796186.7154  -23495909.81047    750798.76962
 90  7 26 20 41 44.9960000  0  4G12G 6G 9G13
  19802400.0904  -20106893.80847 -15221178.83062
  22460374.8244    2612679.87943   8916137.16561
  19761060.1064  -22358162.21447   1216077.52961
  19798470.2464  -23483908.32347    760150.56862
 90  7 26 20 41 59.9960000  0  4G12G 6G 9G13
  19796859.6914  -20136015.40347 -15243870.96862
  22469731.4654    2661828.55543   8954434.65961
  19765238.1524  -22336201.01547   1233190.12061
  19800766.1454  -23471845.33547    769550.28762
 90  7 26 20 42 14.9960000  0  4G12G 6G 9G13
  19791343.6994  -20165001.23647 -15266457.32462
  22479097.9264    2711039.56143   8992780.68861
  19769446.6764  -22314094.86046   1250415.66561
  19803072.0744  -23459723.14847    778996.13762
 90  7 26 20 42 29.9960000  0  4G12G 6G 9G13
  19785856.1064  -20193849.84447 -15288936.75062
  22488472.4734    2760313.73243   9031175.94561
  19773678.0204  -22291843.00146   1267754.73961
  19805390.6604  -23447540.76247    788488.89562
 90  7 26 20 42 44.9960000  0  4G12G 6G 9G13
  19780390.0514  -20222563.62747 -15311311.11362
  22497866.6844    2809647.89544   9069617.97061
  19777940.1294  -22269448.31446   1285205.11061
  19807720.3714  -23435301.16347    798026.22962
 90  7 26 20 42 59.9960000  0  4G12G 6G 9G13
  19774952.5044  -20251141.65747 -15333579.70062
  22507266.0514    2859042.40444   9108107.03261
  19782228.7544  -22246910.42447   1302767.06861
  19810060.4814  -23423003.99047    807608.43662
 90  7 26 20 43 14.9960000  0  4G12G 6G 9G13
  19769541.9344  -20279583.81747 -15355742.41062
  22516678.6454    2908496.88944   9146642.78361
  19786545.2544  -22224229.48247   1320440.49561
  19812412.2074  -23410649.39147    817235.37462
 90  7 26 20 43 29.9960000  0  4G12G 6G 9G13
  19764154.3874  -20307882.50747 -15377793.32462
  22526105.9654    2958018.26944   9185230.67961
  19790890.4414  -22201398.33947   1338230.96761
  19814773.8094  -23398230.51547    826912.41161
 90  7 26 20 43 44.9960000  0  4G12G 6G 9G13
  19758796.0744  -20336041.93847 -15399735.74362
  22535536.8094    3007601.65344   9223866.87261
  19795263.1214  -22178421.92946   1356134.62861
  19817149.0984  -23385752.00247    836635.91162
 90  7 26 20 43 59.9960000  0  4G12G 6G 9G13
  19753463.9654  -20364061.94047 -15421569.49662
  22544977.4414    3057246.61243   9262551.06761
  19799663.2234  -22155300.45846   1374151.32261
  19819534.5434  -23373214.21447    846405.61262
 90  7 26 20 44 14.9960000  0  4G12G 6G 9G13
  19748158.4344  -20391944.53647 -15443296.18462
  22554437.4814    3106950.52043   9301281.20461
  19804090.5824  -22132036.47946   1392279.06161
  19821931.3164  -23360619.63247    856219.55862
 90  7 26 20 44 29.9960000  0  4G12G 6G 9G13
  19742878.5124  -20419688.41147 -15464914.78962
  22563906.8484    3156714.01143   9340057.72861
  19808542.4814  -22108628.99846   1410518.61861
  19824340.9654  -23347967.45847    866078.37962
 90  7 26 20 44 44.9960000  0  4G12G 6G 9G13
  19737624.8874  -20447296.35747 -15486427.46662
  22573390.7774    3206533.70543   9378878.08261
  19813023.9414  -22085081.50747   1428867.28061
  19826755.8634  -23335261.08247    875979.44762
 90  7 26 20 44 59.9960000  0  4G12G 6G 9G13
  19732397.5904  -20474767.83847 -15507833.81662
  22582881.4344    3256409.53844   9417742.14361
  19817532.1764  -22061393.92747   1447325.09761
  19829186.4734  -23322500.52047    885922.72962
 90  7 26 20 45 14.9960000  0  4G12G 6G 9G13
  19727195.4884  -20502100.89047 -15529132.29362
  22592387.9414    3306342.79344   9456650.95361
  19822065.7154  -22037564.72046   1465893.27062
  19831624.1914  -23309684.26547    895909.41162
 90  7 26 20 45 29.9960000  0  4G12G 6G 9G13
  19722020.8014  -20529293.56347 -15550321.38262
  22601902.1994    3356334.94444   9495605.68561
  19826627.4734  -22013592.33246   1484573.01761
  19834074.3164  -23296810.75647    905940.70662
 90  7 26 20 45 44.9960000  0  4G12G 6G 9G13
  19716873.6764  -20556346.45647 -15571401.55162
  22611424.2234    3406384.75944   9534605.34461
  19831217.7464  -21989477.85946   1503363.47561
  19836533.0594  -23283881.08747    916015.76662
 90  7 26 20 45 59.9960000  0  4G12G 6G 9G13
  19711751.4884  -20583263.25447 -15592375.67362
  22620960.5434    3456487.83444   9573646.50361
  19835832.0124  -21965225.58846   1522261.30562
  19839003.6214  -23270899.86547    926130.99962
 90  7 26 20 46 14.9960000  0  4G12G 6G 9G13
  19706655.3404  -20610038.43247 -15613239.44262
  22630503.0664    3506649.06844   9612732.96761
  19840474.3404  -21940830.54646   1541270.39461
  19841485.3954  -23257861.94847    936290.40362
 90  7 26 20 46 29.9960000  0  4G12G 6G 9G13
  19701586.7774  -20636672.02347 -15633992.88662
  22640058.1994    3556867.85644   9651864.28261
  19845143.8094  -21916293.27146   1560390.30862
  19843978.0434  -23244767.76647    946493.65462
 90  7 26 20 46 44.9960000  0  4G12G 6G 9G13
  19696544.5514  -20663165.43847 -15654637.10262
  22649625.7544    3607142.16544   9691038.82361
  19849839.6064  -21891615.44046   1579619.74562
  19846480.1214  -23231619.12147    956739.34162
 90  7 26 20 46 59.9960000  0  4G12G 6G 9G13
  19691532.1374  -20689518.44647 -15675171.90762
  22659203.3634    3657471.62344   9730256.37161
  19854563.6214  -21866797.35047   1598958.48062
  19848991.4264  -23218416.11347    967027.39262
 90  7 26 20 47 14.9960000  0  4G12G 6G 9G13
  19686542.9814  -20715734.46847 -15695599.96362
  22668791.4884    3707852.13844   9769513.69661
  19859311.4884  -21841842.98846   1618403.40062
  19851515.0984  -23205163.03547    977354.46062
 90  7 26 20 47 29.9960000  0  4G12G 6G 9G13
  19681580.6524  -20741811.47747 -15715919.69662
  22678387.5124    3758285.28344   9808812.09761
  19864086.7544  -21816750.84246   1637955.68262
  19854045.3564  -23191858.04647    987721.97862
 90  7 26 20 47 44.9960000  0  4G12G 6G 9G13
  19676645.3484  -20767749.92747 -15736131.47362
  22687997.9104    3808769.93344   9848150.53861
  19868886.9024  -21791521.87446   1657614.57862
  19856587.7774  -23178502.32647    998129.02462
 90  7 26 20 47 59.9960000  0  4G12G 6G 9G13
  19671737.7074  -20793543.21947 -15756230.13162
  22697619.9414    3859312.10644   9887533.83461
  19873714.8634  -21766149.93146   1677384.88962
  19859139.5984  -23165089.83147   1008580.31061
 90  7 26 20 48 14.9960000  0  4G12G 6G 9G13
  19666853.5664  -20819195.02147 -15776218.54262
  22707245.6454    3909907.52944   9926958.63461
  19878570.2544  -21740638.97547   1697263.52261
  19861703.3954  -23151624.42547   1019072.82862
 90  7 26 20 48 29.9960000  0  4G12G 6G 9G13
  19661999.6914  -20844705.09847 -15796096.52162
  22716879.2854    3960555.85844   9966424.67261
  19883451.4024  -21714989.33447   1717250.21362
  19864274.0984  -23138106.35147   1029606.38762
 90  7 26 20 48 44.9960000  0  4G12G 6G 9G13
  19657172.6294  -20870075.18047 -15815865.40662
  22726525.4734    4011254.77544  10005930.09961
  19888358.3404  -21689203.38747   1737343.11062
  19866856.6214  -23124537.91147   1040179.18562
 90  7 26 20 48 59.9960000  0  4G12G 6G 9G13
  19652371.0664  -20895302.28647 -15835522.88162
  22736188.4344    4062006.55544  10045476.72561
  19893291.4184  -21663278.57247   1757544.23162
  19869448.3634  -23110916.76347   1050793.05762
 90  7 26 20 49 14.9960000  0  4G12G 6G 9G13
  19647599.4814  -20920386.84747 -15855069.28162
  22745853.4964    4112810.29044  10085063.80661
  19898251.3714  -21637215.80047   1777852.83662
  19872050.5664  -23097243.76347   1061447.32962
 90  7 26 20 49 29.9960000  0  4G12G 6G 9G13
  19642851.6844  -20945331.24847 -15874506.47762
  22755525.6294    4163662.91343  10124689.02361
  19903236.0274  -21611017.93247   1798266.71062
  19874663.0594  -23083521.83447   1072139.72962
 90  7 26 20 49 44.9960000  0  4G12G 6G 9G13
  19638131.7384  -20970132.00147 -15893831.73362
  22765216.6844    4214567.45743  10164354.66061
  19908248.5044  -21584681.85247   1818788.28862
  19877283.2704  -23069747.66247   1082872.84162
 90  7 26 20 49 59.9960000  0  4G12G 6G 9G13
  19633441.8954  -20994788.82047 -15913044.83562
  22774912.2544    4265523.66043  10204060.59261
  19913285.9734  -21558207.68147   1839417.47262
  19879914.8564  -23055921.34147   1093646.59262
 90  7 26 20 50 14.9960000  0  4G12G 6G 9G13
  19628777.4654  -21019303.79547 -15932147.40862
  22784620.4654    4316528.68444  10243804.55661
  19918348.6524  -21531598.15246   1860152.12862
  19882555.3164  -23042045.47047   1104458.94362
 90  7 26 20 50 29.9960000  0  4G12G 6G 9G13
  19624138.5664  -21043673.22447 -15951136.57063
  22794339.2934    4367585.67244  10283588.99261
  19923438.1764  -21504850.23547   1880994.62162
  19885206.4184  -23028116.97147   1115312.31062
 90  7 26 20 50 44.9960000  0  4G12G 6G 9G13
  19619525.6064  -21067907.65547 -15970020.54662
  22804061.8324    4418683.48044  10323405.24861
  19928554.2624  -21477974.68147   1901936.55862
  19887861.8634  -23014147.00347   1126197.99162
 90  7 26 20 50 59.9960000  0  4G12G 6G 9G13
  19614939.5434  -21092007.04447 -15988799.28662
  22813792.3874    4469821.58244  10363252.89761
  19933693.2384  -21450972.14747   1922977.44862
  19890529.6374  -23000136.07647   1137115.58662
 90  7 26 20 51 14.9960000  0  4G12G 6G 9G13
  19610380.9494  -21115963.67847 -16007466.79162
  22823532.3094    4521007.06644  10403137.45361
  19938857.2384  -21423835.24847   1944123.03462
  19893206.7624  -22986076.78847   1148070.84762
 90  7 26 20 51 29.9960000  0  4G12G 6G 9G13
  19605850.9344  -21139774.84247 -16026020.94262
  22833281.6844    4572242.18944  10443060.69061
  19944047.0984  -21396561.59547   1965375.17962
  19895889.5664  -22971966.62547   1159065.76062
 90  7 26 20 51 44.9960000  0  4G12G 6G 9G13
  19601347.2384  -21163440.97747 -16044462.08762
  22843043.8564    4623525.90744  10483021.80561
  19949261.0984  -21369152.33847   1986732.99162
  19898584.9184  -22957806.73347   1170099.43961
 90  7 26 20 51 59.9960000  0  4G12G 6G 9G13
  19596871.8714  -21186960.76347 -16062789.20162
  22852812.8874    4674858.91344  10523021.30061
  19954505.3714  -21341606.58247   2008197.17562
  19901289.6374  -22943596.23647   1181172.54661
 90  7 26 20 52 14.9960000  0  4G12G 6G 9G13
  19592423.7774  -21210341.15847 -16081007.69362
  22862589.0204    4726233.72744  10563053.38361
  19959771.3094  -21313931.64847   2029762.00462
  19904001.6374  -22929342.56847   1192279.29761
 90  7 26 20 52 29.9960000  0  4G12G 6G 9G13
  19588000.9024  -21233572.77047 -16099110.24562
  22872374.7464    4777659.04844  10603124.85461
  19965064.2464  -21286118.89447   2051434.22062
  19906724.6064  -22915036.55147   1203426.82661
 90  7 26 20 52 44.9960000  0  4G12G 6G 9G13
  19583608.8404  -21256658.04247 -16117098.76862
  22882170.8874    4829131.82844  10643233.27161
  19970381.3874  -21258171.17147   2073211.62062
  19909454.9734  -22900681.45347   1214612.61062
 90  7 26 20 52 59.9960000  0  4G12G 6G 9G13
  19579242.0124  -21279600.37747 -16134975.91262
  22891970.2384    4880648.10444  10683375.56361
  19975724.1294  -21230092.29646   2095091.21262
  19912196.9344  -22886281.02147   1225833.71761
 90  7 26 20 53 14.9960000  0  4G12G 6G 9G13
  19574903.0824  -21302392.29647 -16152735.85362
  22901781.1914    4932214.80444  10723557.20461
  19981092.6064  -21201875.46646   2117078.30162
  19914945.8164  -22871828.35647   1237095.52162
 90  7 26 20 53 29.9960000  0  4G12G 6G 9G13
  19570594.8484  -21325037.80247 -16170381.70462
  22911603.0514    4983827.34944  10763774.50461
  19986489.2854  -21173524.83447   2139169.64962
  19917703.5274  -22857327.92347   1248394.55062
 90  7 26 20 53 44.9960000  0  4G12G 6G 9G13
  19566314.2544  -21347536.17247 -16187912.90062
  22921435.4964    5035485.92544  10804027.71961
  19991909.4024  -21145040.44547   2161365.22962
  19920473.3794  -22842779.21847   1259731.19462
 90  7 26 20 53 59.9960000  0  4G12G 6G 9G13
  19562062.4964  -21369887.99147 -16205329.90662
  22931271.1994    5087189.35943  10844315.87061
  19997355.6994  -21116423.24347   2183664.29962
  19923251.8714  -22828183.39347   1271104.54562
 90  7 26 20 54 14.9960000  0  4G12G 6G 9G13
  19557838.8564  -21392088.53547 -16222629.03562
  22941122.6214    5138941.73544  10884642.16661
  20002826.8954  -21087668.95547   2206070.18962
  19926038.9264  -22813536.28647   1282517.86162
 90  7 26 20 54 29.9960000  0  4G12G 6G 9G13
  19553642.4734  -21414133.06747 -16239806.59362
  22950979.9184    5190747.21343  10925009.85661
  20008325.9654  -21058773.49947   2228586.06962
  19928835.6214  -22798833.42847   1293974.61362
 90  7 26 20 54 44.9960000  0  4G12G 6G 9G13
  19549474.8244  -21436030.25847 -16256869.34362
  22960847.1994    5242596.64344  10965411.74661
  20013849.7544  -21029745.82647   2251204.97762
  19931642.6134  -22784083.94047   1305467.70662
 90  7 26 20 54 59.9960000  0  4G12G 6G 9G13
  19545337.2854  -21457779.56647 -16273816.86162
  22970722.6524    5294489.91543  11005847.82961
  20019399.1994  -21000586.02347   2273926.85062
  19934458.8714  -22769287.90847   1316997.05162
 90  7 26 20 55 14.9960000  0  4G12G 6G 9G13
  19541226.4574  -21479377.03547 -16290646.05962
  22980603.8714    5346430.50943  11046320.76761
  20024973.8164  -20971290.61247   2296754.38362
  19937283.6294  -22754441.47147   1328565.69362
 90  7 26 20 55 29.9960000  0  4G12G 6G 9G13
  19537144.4654  -21500827.74547 -16307360.90062
  22990499.9654    5398412.75543  11086826.17061
  20030574.0204  -20941865.09447   2319683.30462
  19940117.3874  -22739550.16747   1340169.29962
 90  7 26 20 55 44.9960000  0  4G12G 6G 9G13
  19533091.3794  -21522128.82447 -16323959.14562
  23000399.8874    5450438.91243  11127365.77061
  20036196.8634  -20912306.99747   2342715.53162
  19942960.4344  -22724611.78847   1351809.56762
 90  7 26 20 55 59.9960000  0  4G12G 6G 9G13
  19529064.7234  -21543284.57447 -16340444.14962
  23010308.6214    5502504.27144  11167935.94261
  20041847.3564  -20882621.07047   2365847.36962
  19945809.6374  -22709630.91847   1363482.96161
 90  7 26 20 56 14.9960000  0  4G12G 6G 9G13
  19525066.8244  -21564294.94847 -16356815.87262
  23020222.9574    5554608.28243  11208536.21061
  20047519.0354  -20852807.77747   2389078.45462
  19948671.1764  -22694607.83247   1375189.23662
 90  7 26 20 56 29.9960000  0  4G12G 6G 9G13
  19521096.9814  -21585155.63847 -16373070.95762
  23030148.8014    5606754.69444  11249169.54761
  20053218.0124  -20822863.23747   2412411.80062
  19951535.9814  -22679538.66047   1386931.44262
 90  7 26 20 56 44.9960000  0  4G12G 6G 9G13
  19517156.4494  -21605866.10847 -16389208.97962
  23040081.6374    5658943.54743  11289835.96061
  20058940.1134  -20792787.55247   2435847.35262
  19954414.7774  -22664423.36947   1398709.56462
 90  7 26 20 56 59.9960000  0  4G12G 6G 9G13
  19513242.7074  -21626431.77247 -16405234.17562
  23050017.6684    5711168.76744  11330530.65261
  20064687.6374  -20762586.54947   2459380.54862
  19957297.7544  -22649267.94347   1410518.97262
 90  7 26 20 57 14.9960000  0  4G12G 6G 9G13
  19509357.5514  -21646845.95447 -16421141.32462
  23059962.1524    5763436.48043  11371258.50961
  20070461.1214  -20732254.18647   2483016.10162
  19960191.3874  -22634065.91647   1422364.69462
 90  7 26 20 57 29.9960000  0  4G12G 6G 9G13
  19505502.1134  -21667111.46747 -16436932.63662
  23069915.1764    5815743.39443  11412016.88261
  20076257.7704  -20701793.56747   2506751.59761
  19963092.2774  -22618820.49947   1434244.22261
 90  7 26 20 57 44.9960000  0  4G12G 6G 9G13
  19501676.1294  -21687224.82347 -16452605.38462
  23079876.9414    5868092.26343  11452807.98761
  20082079.0044  -20671201.71947   2530589.35161
  19966002.4884  -22603528.97847   1446159.68161
 90  7 26 20 57 59.9960000  0  4G12G 6G 9G13
  19497876.6914  -21707186.66347 -16468160.06162
  23089847.3714    5920482.17244  11493631.04361
  20087925.6604  -20640479.57147   2554528.64462
  19968919.8954  -22588192.21947   1458110.39361
 90  7 26 20 58 14.9960000  0  4G12G 6G 9G13
  19494105.2384  -21727001.67547 -16483600.33162
  23099824.5664    5972907.73444  11534481.89261
  20093794.5354  -20609632.50247   2578565.27262
  19971846.7774  -22572815.30147   1470092.39362
 90  7 26 20 58 29.9960000  0  4G12G 6G 9G13
  19490363.7234  -21746665.94447 -16498923.13862
  23109813.4344    6025372.29644  11575363.13161
  20099689.5434  -20578656.95347   2602702.01362
  19974780.3404  -22557394.65447   1482108.48161
 90  7 26 20 58 44.9960000  0  4G12G 6G 9G13
  19486649.4344  -21766180.81747 -16514129.53062
  23119802.2464    6077873.90444  11616273.23361
  20105609.6844  -20547554.94547   2626937.29461
  19977723.6134  -22541932.11147   1494157.19661
 90  7 26 20 58 59.9960000  0  4G12G 6G 9G13
  19482965.7774  -21785540.58647 -16529215.06962
  23129801.2074    6130417.85444  11657216.35761
  20111551.8404  -20516321.29447   2651275.15362
  19980674.2854  -22526422.39747   1506242.67061
 90  7 26 20 59 14.9960000  0  4G12G 6G 9G13
  19479310.2774  -21804751.29447 -16544184.44562
  23139805.9964    6182997.46344  11698187.24261
  20117519.2074  -20484962.28347   2675710.69662
  19983633.6374  -22510871.97347   1518359.87261
 90  7 26 20 59 29.9960000  0  4G12G 6G 9G13
  19475683.1914  -21823812.80047 -16559037.56262
  23149818.5434    6235612.39743  11739185.60661
  20123510.6914  -20453478.27647   2700243.63962
  19986600.5354  -22495280.93447   1530508.72261
 90  7 26 20 59 44.9960000  0  4G12G 6G 9G13
  19472085.5664  -21842723.38047 -16573773.07463
  23159838.2544    6288263.81343  11780212.46661
  20129525.0044  -20421868.12247   2724874.87962
  19989576.7934  -22479647.99747   1542690.21761
 90  7 26 20 59 59.9960000  0  4G12G 6G 9G13
  19468513.7934  -21861484.36847 -16588392.02663
  23169868.7074    6340949.95244  11821266.34461
  20135565.4264  -20390133.67047   2749602.96862
  19992559.3404  -22463974.78247   1554903.08561
 90  7 26 21  0 14.9960000  0  4G12G 6G 9G13
  19464972.7314  -21880095.88247 -16602894.50663
  23179903.3794    6393669.96844  11862346.64461
  20141628.2154  -20358275.40647   2774427.54462
  19995548.5274  -22448261.91647   1567146.87161
 90  7 26 21  0 29.9960000  0  4G12G 6G 9G13
  19461461.5824  -21898550.09247 -16617274.41063
  23189942.1764    6446431.19044  11903459.02261
  20147716.6064  -20326286.14747   2799354.18962
  19998547.1524  -22432502.13047   1579427.20762
 90  7 26 21  0 44.9960000  0  4G12G 6G 9G13
  19457976.9184  -21916861.85247 -16631543.30863
  23199985.5984    6499218.29844  11944591.61261
  20153822.5434  -20294181.12047   2824371.04162
  20001553.1294  -22416710.39647   1591732.44461
 90  7 26 21  0 59.9960000  0  4G12G 6G 9G13
  19454519.0984  -21935029.85747 -16645700.19463
  23210029.5434    6552032.08243  11985744.96061
  20159954.3484  -20261959.37746   2849478.84862
  20004563.9654  -22400885.88547   1604063.21461
 90  7 26 21  1 14.9960000  0  4G12G 6G 9G13
  19451089.5664  -21953042.27847 -16659735.84363
  23220086.0594    6604883.84743  12026927.93161
  20166112.0664  -20229609.55547   2874686.44862
  20007582.9024  -22385017.38447   1616428.26561
 90  7 26 21  1 29.9960000  0  4G12G 6G 9G13
  19447690.9964  -21970902.67447 -16673653.02963
  23230154.4024    6657769.43544  12068137.26461
  20172291.9734  -20197135.78847   2899990.62862
  20010609.6844  -22369108.79747   1628824.56461
 90  7 26 21  1 44.9960000  0  4G12G 6G 9G13
  19444320.9414  -21988612.49447 -16687452.88863
  23240223.6914    6710687.07944  12109371.53361
  20178494.5204  -20164539.84047   2925390.02062
  20013645.1454  -22353161.93147   1641250.68061
 90  7 26 21  1 59.9960000  0  4G12G 6G 9G13
  19440979.2154  -22006172.78547 -16701136.23062
  23250300.5904    6763634.99244  12150629.44861
  20184720.6134  -20131823.43647   2950883.26862
  20016687.3794  -22337177.97447   1653705.70561
 90  7 26 21  2 14.9960000  0  4G12G 6G 9G13
  19437669.1064  -22023576.82947 -16714697.82563
  23260385.0824    6816619.52444  12191915.82061
  20190970.3244  -20098980.05347   2976475.46262
  20019737.9184  -22321150.81047   1666194.39061
 90  7 26 21  2 29.9960000  0  4G12G 6G 9G13
  19434385.7544  -22040829.49547 -16728141.46162
  23270468.9344    6869635.24644  12233226.51161
  20197242.9814  -20066015.16247   3002162.34162
  20022794.9814  -22305085.57047   1678712.73961
 90  7 26 21  2 44.9960000  0  4G12G 6G 9G13
  19431130.9884  -22057930.10747 -16741466.61363
  23280566.9884    6922682.22643  12274561.60061
  20203538.9654  -20032928.69047   3027943.96062
  20025859.3874  -22288981.99747   1691260.96261
 90  7 26 21  2 59.9960000  0  4G12G 6G 9G13
  19427907.8404  -22074872.09947 -16754668.16862
  23290663.7934    6975766.60043  12315925.81861
  20209858.6914  -19999714.51347   3053825.08362
  20028931.9884  -22272833.88147   1703843.89561
 90  7 26 21  3 14.9960000  0  4G12G 6G 9G13
  19424713.5514  -22091659.22547 -16767749.04562
  23300776.9574    7028883.89143  12357315.66461
  20216204.1294  -19966376.95047   3079802.34762
  20032011.6994  -22256645.29147   1716458.36861
 90  7 26 21  3 29.9960000  0  3G12G 9G13
  19421548.5434  -22108290.96447 -16780708.83862
  20222571.1764  -19932915.69047   3105876.00062
  20035099.7384  -22240416.21947   1729104.40061
 90  7 26 21  3 44.9960000  0  3G12G 9G13
  19418412.7384  -22124768.68647 -16793548.61863
  20228962.5354  -19899332.56547   3132044.61262
  20038194.2464  -22224148.21147   1741780.75461
 90  7 26 21  3 59.9960000  0  3G12G 9G13
  19415306.3014  -22141094.82647 -16806270.28963
  20235374.3244  -19865630.72347   3158305.72962
  20041299.0354  -22207844.26947   1754485.12861
 90  7 26 21  4 14.9960000  0  3G12G 9G13
  19412228.9494  -22157265.00647 -16818870.43163
  20241812.3714  -19831806.16947   3184662.46762
  20044408.2854  -22191500.21547   1767220.73861
 90  7 26 21  4 29.9960000  0  3G12G 9G13
  19409183.6064  -22173278.38947 -16831348.38763
  20248272.1524  -19797858.48047   3211115.15661
  20047526.0044  -22175115.56447   1779987.99461
 90  7 26 21  4 44.9960000  0  3G12G 9G13
  19406163.9184  -22189138.32047 -16843706.77563
  20254755.0594  -19763791.43146   3237660.84861
  20050653.1214  -22158694.18347   1792783.87561
 90  7 26 21  4 59.9960000  0  3G12G 9G13
  19403175.5204  -22204842.36547 -16855943.69063
  20261259.0824  -19729603.01646   3264301.11462
  20053784.0664  -22142233.93747   1805610.01561
 90  7 26 21  5 14.9960000  0  3G12G 9G13
  19400215.3094  -22220392.08747 -16868060.35663
  20267787.6454  -19695295.22646   3291034.39762
  20056922.4344  -22125736.67447   1818465.01761
 90  7 26 21  5 29.9960000  0  3G12G 9G13
  19397286.3794  -22235784.83347 -16880054.70462
  20274339.6374  -19660866.10046   3317862.22961
  20060069.1524  -22109200.04147   1831350.69961
 90  7 26 21  5 44.9960000  0  3G12G 9G13
  19394387.1064  -22251022.47047 -16891928.18362
  20280914.4104  -19626317.82846   3344782.90962
  20063223.4734  -22092626.38047   1844265.23161
 90  7 26 21  5 59.9960000  0  3G12G 9G13
  19391517.6764  -22266105.21247 -16903680.96662
  20287510.6134  -19591651.09746   3371795.88961
  20066383.9264  -22076016.33547   1857208.11561
 90  7 26 21  6 14.9960000  0  3G12G 9G13
  19388676.6454  -22281032.93247 -16915312.95262
  20294130.9104  -19556866.11346   3398901.01062
  20069551.8094  -22059369.98347   1870179.28961
 90  7 26 21  6 29.9960000  0  3G12G 9G13
  19385866.5824  -22295805.55947 -16926824.08863
  20300774.5824  -19521963.33547   3426097.92062
  20072727.1764  -22042687.53747   1883178.58561
 90  7 26 21  6 44.9960000  0  3G12G 9G13
  19383084.0044  -22310423.14147 -16938214.41462
  20307437.0354  -19486943.30946   3453386.19662
  20075909.7544  -22025969.29547   1896205.78161
 90  7 26 21  6 59.9960000  0  3G12G 9G13
  19380332.7544  -22324885.33147 -16949483.65663
  20314121.7774  -19451806.09746   3480765.78662
  20079096.3954  -22009215.30947   1909260.82662
 90  7 26 21  7 14.9960000  0  3G12G 9G13
  19377609.7934  -22339191.09147 -16960631.00163
  20320831.1064  -19416551.35046   3508236.96262
  20082291.4344  -21992425.35747   1922343.88761
 90  7 26 21  7 29.9960000  0  3G12G 9G13
  19374916.5594  -22353343.63747 -16971658.95663
  20327562.4814  -19381182.58246   3535796.98862
  20085491.7314  -21975602.82447   1935452.34961
 90  7 26 21  7 44.9960000  0  3G12G 9G13
  19372253.5984  -22367340.04847 -16982565.25163
  20334314.9344  -19345697.46446   3563447.66762
  20088700.2544  -21958745.09547   1948588.22961
 90  7 26 21  7 59.9960000  0  3G12G 9G13
  19369620.7624  -22381179.25847 -16993349.04763
  20341089.5824  -19310095.33646   3591189.52462
  20091912.9814  -21941851.26247   1961752.24461
 90  7 26 21  8 14.9960000  0  3G12G 9G13
  19367015.3954  -22394864.14147 -17004012.59262
  20347886.3244  -19274379.34146   3619020.11261
  20095136.7624  -21924924.48047   1974941.93061
 90  7 26 21  8 29.9960000  0  3G12G 9G13
  19364440.9414  -22408391.90547 -17014553.70762
  20354705.6914  -19238547.17046   3646941.23262
  20098362.6524  -21907962.44247   1988159.09061
 90  7 26 21  8 44.9960000  0  3G12G 9G13
  19361896.3874  -22421758.73347 -17024969.41462
  20361546.7154  -19202595.45346   3674955.49762
  20101600.5824  -21890961.37147   2001406.65861
 90  7 26 21  8 59.9960000  0  3G12G 9G13
  19359384.2154  -22434971.43747 -17035265.02162
  20368408.7704  -19166531.38646   3703057.30962
  20104841.1064  -21873928.45747   2014679.05061
 90  7 26 21  9 14.9960000  0  3G12G 9G13
  19356898.6134  -22448028.67047 -17045439.48462
  20375293.3874  -19130354.10246   3731247.34561
  20108088.0124  -21856862.66547   2027977.05261
 90  7 26 21  9 29.9950000  0  3G12G 9G13
  19354443.6164  -22460927.77347 -17055490.73162
  20382198.8194  -19094064.64546   3759524.78362
  20111340.4444  -21839763.63547   2041300.96161
 90  7 26 21  9 44.9950000  0  3G12G 9G13
  19352020.2494  -22473668.82247 -17065418.82262
  20389127.9294  -19057657.10846   3787894.23362
  20114601.8824  -21822627.88747   2054653.48361
 90  7 26 21  9 59.9950000  0  3G12G 9G13
  19349625.2334  -22486252.95947 -17075224.64662
  20396076.2654  -19021136.27546   3816351.96562
  20117870.2104  -21805458.82047   2068031.95961
 90  7 26 21 10 14.9950000  0  3G12G 9G13
  19347260.4684  -22498677.93547 -17084906.44562
  20403049.7734  -18984500.45046   3844899.29962
  20121141.9684  -21788254.54547   2081437.87361
 90  7 26 21 10 29.9950000  0  3G12G 9G13
  19344926.0544  -22510942.07747 -17094462.92462
  20410041.8274  -18947748.37746   3873537.21662
  20124423.1714  -21771013.70147   2094872.28762
 90  7 26 21 10 44.9950000  0  3G12G 9G13
  19342621.4374  -22523048.39647 -17103896.41962
  20417057.3744  -18910883.39747   3902263.11461
  20127712.0854  -21753739.75147   2108332.49561
 90  7 26 21 10 59.9950000  0  3G12G 9G13
  19340347.1084  -22534995.81347 -17113206.10263
  20424093.7184  -18873905.16947   3931077.25162
  20131005.0854  -21736432.01647   2121819.03861
 90  7 26 21 11 14.9950000  0  3G12G 9G13
  19338103.9684  -22546784.81747 -17122392.34562
  20431153.5624  -18836814.51346   3959978.99662
  20134306.6794  -21719090.88747   2135331.59261
 90  7 26 21 11 29.9950000  0  3G12G 9G13
  19335891.5464  -22558414.30147 -17131454.29063
  20438232.6244  -18799610.34746   3988969.19461
  20137612.3044  -21701715.54547   2148870.80961
 90  7 26 21 11 44.9950000  0  3G12G 9G13
  19333708.1014  -22569888.61147 -17140395.31763
  20445333.2734  -18762297.85446   4018043.80161
  20140924.6244  -21684310.88547   2162432.86761
 90  7 26 21 11 59.9950000  0  3G12G 9G13
  19331553.8194  -22581204.44447 -17149212.85462
  20452453.5774  -18724874.01846   4047205.16661
  20144243.3274  -21666873.59247   2176020.35461
 90  7 26 21 12 14.9950000  0  3G12G 9G13
  19329432.7574  -22592359.36947 -17157905.00562
  20459598.6714  -18687336.87146   4076454.82961
  20147567.6634  -21649401.73147   2189634.77661
 90  7 26 21 12 29.9950000  0  3G12G 9G13
  19327342.0074  -22603354.09647 -17166472.32962
  20466763.2024  -18649687.51946   4105791.91661
  20150896.7884  -21631896.19247   2203275.45261
 90  7 26 21 12 44.9950000  0  3G12G 9G13
  19325279.6014  -22614193.76647 -17174918.82862
  20473948.3194  -18611931.67147   4135211.98561
  20154233.5464  -21614362.31947   2216938.19361
 90  7 26 21 12 59.9950000  0  3G12G 9G13
  19323248.0694  -22624869.06947 -17183237.25762
  20481154.0304  -18574060.38146   4164722.01661
  20157578.5234  -21596791.07347   2230630.05561
 90  7 26 21 13 14.9950000  0  3G12G 9G13
  19321245.3514  -22635385.20147 -17191431.65362
  20488382.0774  -18536079.43746   4194317.48862
  20160926.5074  -21579188.39847   2244346.41661
 90  7 26 21 13 29.9950000  0  3G12G 9G13
  19319275.5234  -22645743.33147 -17199502.93162
  20495630.1324  -18497990.33846   4223997.23962
  20164281.0624  -21561555.66347   2258086.20061
 90  7 26 21 13 44.9950000  0  3G12G 9G13
  19317334.5074  -22655938.51347 -17207447.23462
  20502898.3824  -18459788.41746   4253764.91061
  20167646.1404  -21543887.80047   2271853.35361
 90  7 26 21 13 59.9950000  0  3G12G 9G13
  19315424.9914  -22665973.81147 -17215266.95362
  20510189.6634  -18421477.16346   4283617.76361
  20171013.4054  -21526188.28747   2285645.16361
 90  7 26 21 14 14.9950000  0  3G12G 9G13
  19313545.2964  -22675852.98347 -17222965.02262
  20517499.7654  -18383060.73046   4313552.57062
  20174385.7964  -21508461.16147   2299458.49961
 90  7 26 21 14 29.9950000  0  3G12G 9G13
  19311696.2264  -22685567.97747 -17230535.15062
  20524832.3354  -18344531.77246   4343575.07261
  20177768.2024  -21490698.57047   2313299.46361
 90  7 26 21 14 44.9950000  0  3G12G 9G13
  19309877.9134  -22695124.22247 -17237981.57862
  20532183.1874  -18305895.79846   4373680.95762
  20181152.9604  -21472906.26647   2327163.58561
 90  7 26 21 14 59.9950000  0  3G12G 9G13
  19308090.5934  -22704522.15047 -17245304.64963
  20539556.1164  -18267154.06946   4403869.25261
  20184542.7494  -21455085.02647   2341050.25861
 90  7 26 21 15 14.9950000  0  3G12G 9G13
  19306331.6634  -22713762.27847 -17252504.75763
  20546949.2884  -18228307.26246   4434139.42362
  20187941.3514  -21437235.60747   2354958.88261
 90  7 26 21 15 29.9950000  0  3G12G 9G13
  19304603.3124  -22722841.49647 -17259579.48062
  20554363.0624  -18189352.81746   4464493.46662
  20191342.7654  -21419354.93147   2368891.85861
 90  7 26 21 15 44.9950000  0  3G12G 9G13
  19302904.9684  -22731764.34347 -17266532.35762
  20561794.9604  -18150295.38346   4494927.75762
  20194751.3984  -21401447.91547   2382845.36461
 90  7 26 21 15 59.9950000  0  3G12G 9G13
  19301237.9994  -22740526.98047 -17273360.39962
  20569247.7734  -18111131.79146   4525444.77161
  20198162.8354  -21383511.05447   2396822.12761
 90  7 26 21 16 14.9950000  0  3G12G 9G13
  19299601.3274  -22749127.07947 -17280061.78162
  20576719.6714  -18071860.17446   4556045.95861
  20201584.0934  -21365542.27247   2410823.76061
 90  7 26 21 16 29.9950000  0  3G12G 9G13
  19297995.8274  -22757565.95147 -17286637.53462
  20584213.5304  -18032482.24846   4586729.98661
  20205008.2654  -21347543.09647   2424849.08761
 90  7 26 21 16 44.9950000  0  3G12G 9G13
  19296419.9684  -22765849.32447 -17293092.11462
  20591726.9054  -17993004.17346   4617492.05661
  20208438.1634  -21329519.34747   2438893.54461
 90  7 26 21 16 59.9950000  0  3G12G 9G13
  19294872.0694  -22773975.20547 -17299423.97662
  20599258.5854  -17953424.28746   4648333.45861
  20211874.3354  -21311469.56947   2452958.28861
 90  7 26 21 17 14.9950000  0  3G12G 9G13
  19293355.6324  -22781939.50147 -17305629.92362
  20606811.2494  -17913739.10646   4679256.90261
  20215313.8124  -21293389.79247   2467046.40961
 90  7 26 21 17 29.9950000  0  3G12G 9G13
  19291872.0624  -22789740.90047 -17311708.94362
  20614382.9764  -17873947.69446   4710263.12261
  20218759.2574  -21275279.14347   2481158.59161
 90  7 26 21 17 44.9950000  0  3G12G 9G13
  19290417.2024  -22797390.96947 -17317670.03962
  20621971.9374  -17834061.85646   4741342.92661
  20222208.8904  -21257149.20847   2495285.81461
 90  7 26 21 17 59.9950000  0  3G12G 9G13
  19288990.8904  -22804880.58647 -17323506.10962
  20629581.9764  -17794073.09446   4772502.93061
  20225666.7024  -21238991.18447   2509434.90461
 90  7 26 21 18 14.9950000  0  3G12G 9G13
  19287597.8984  -22812206.24747 -17329214.42362
  20637211.4374  -17753978.18946   4803745.64461
  20229126.8194  -21220801.76947   2523608.45261
 90  7 26 21 18 29.9950000  0  3G12G 9G13
  19286233.3984  -22819373.39847 -17334799.21662
  20644862.8044  -17713783.02446   4835066.47861
  20232591.7654  -21202586.52647   2537802.13461
 90  7 26 21 18 44.9950000  0  3G12G 9G13
  19284901.1874  -22826377.84947 -17340257.23862
  20652531.0074  -17673483.71246   4866468.47561
  20236064.2734  -21184341.49447   2552019.03261
 90  7 26 21 18 59.9950000  0  3G12G 9G13
  19283599.6084  -22833220.48847 -17345589.17462
  20660216.0464  -17633081.51046   4897950.63261
  20239542.3044  -21166067.94147   2566258.15461
 90  7 26 21 19 14.9950000  0  3G12G 9G13
  19282327.7264  -22839905.03147 -17350797.91662
  20667923.9914  -17592580.65546   4929509.66661
  20243022.9294  -21147769.62647   2580516.57561
 90  7 26 21 19 29.9950000  0  3G12G 9G13
  19281084.4764  -22846429.06447 -17355881.59063
  20675650.3824  -17551979.01446   4961147.23561
  20246512.5854  -21129444.43747   2594795.92561
 90  7 26 21 19 44.9950000  0  3G12G 9G13
  19279873.8274  -22852793.95447 -17360841.26362
  20683396.9214  -17511278.66146   4992861.72761
  20250004.3194  -21111093.92447   2609095.01161
 90  7 26 21 19 59.9950000  0  3G12G 9G13
  19278693.9684  -22858996.81947 -17365674.68162
  20691163.3984  -17470476.73146   5024655.36261
  20253501.9764  -21092715.49947   2623415.84761
 90  7 26 21 20 14.9950000  0  3G12G 9G13
  19277543.9374  -22865039.58647 -17370383.34163
  20698942.9524  -17429575.72446   5056526.20361
  20257004.4054  -21074311.24447   2637756.80961
 90  7 26 21 20 29.9950000  0  3G12G 9G13
  19276425.3434  -22870918.75347 -17374964.52162
  20706747.4994  -17388572.59946   5088476.61661
  20260512.7334  -21055877.84347   2652120.47561
 90  7 26 21 20 44.9950000  0  3G12G 9G13
  19275336.1874  -22876637.36847 -17379420.59462
  20714568.4764  -17347470.77046   5120503.93861
  20264022.6164  -21037418.66747   2666504.24361
 90  7 26 21 20 59.9950000  0  3G12G 9G13
  19274278.4524  -22882196.16647 -17383752.13362
  20722408.0934  -17306271.35846   5152607.31161
  20267540.9684  -21018934.41347   2680907.53461
 90  7 26 21 21 14.9950000  0  3G12G 9G13
  19273251.7024  -22887593.60747 -17387957.94562
  20730266.8824  -17264973.15846   5184787.64961
  20271063.3354  -21000423.88347   2695331.31061
 90  7 26 21 21 29.9950000  0  3G12G 9G13
  19272256.6084  -22892830.67947 -17392038.79262
  20738143.2884  -17223577.64346   5217043.82261
  20274590.7494  -20981888.21347   2709774.67161
 90  7 26 21 21 44.9950000  0  3G12G 9G13
  19271288.8514  -22897909.01547 -17395995.95262
  20746040.6634  -17182086.89746   5249374.19561
  20278122.4834  -20963329.47047   2724236.02361
 90  7 26 21 21 59.9950000  0  3G12G 9G13
  19270353.1714  -22902827.24447 -17399828.34962
  20753954.5074  -17140499.92446   5281779.54761
  20281658.7264  -20944746.36747   2738716.34561
 90  7 26 21 22 14.9950000  0  3G12G 9G13
  19269448.6874  -22907582.32447 -17403533.62962
  20761887.3904  -17098813.89646   5314262.08261
  20285200.5154  -20926135.97147   2753217.93661
 90  7 26 21 22 29.9950000  0  3G12G 9G13
  19268573.2654  -22912179.51547 -17407115.87162
  20769835.9214  -17057034.64946   5346817.26461
  20288743.9134  -20907503.81947   2767736.46761
 90  7 26 21 22 44.9950000  0  4G12G20G 9G13
  19267728.4374  -22916611.95747 -17410569.74262
  22610404.6714         -0.52354
  20777804.7804  -17015155.77346   5379450.07261
  20292295.2654  -20888842.90847   2782277.41661
 90  7 26 21 22 59.9950000  0  4G12G20G 9G13
  19266917.6794  -22920886.42647 -17413900.51062
  22599730.4214     -56067.27843
  20785791.9914  -16973184.15446   5412155.14161
  20295852.6874  -20870160.53147   2796835.09761
 90  7 26 21 23 14.9950000  0  4G12G20G 9G13
  19266134.3434  -22925000.63447 -17417106.40462
  22589064.9524    -112134.42843
  20793798.0774  -16931118.30646   5444933.64861
  20299412.4444  -20851454.64247   2811411.09761
 90  7 26 21 23 29.9950000  0  4G12G20G 9G13
  19265382.0074  -22928951.40447 -17420184.94362
  22578397.6164    -168197.95143
  20801822.3044  -16888955.13446   5477787.99461
  20302975.7024  -20832722.15647   2826007.81361
 90  7 26 21 23 44.9950000  0  4G12G20G 9G13
  19264659.9054  -22932743.24147 -17423139.63762
  22567720.5234    -224261.14243
  20809862.8194  -16846699.60346   5510714.30161
  20306544.5694  -20813967.56947   2840621.75761
 90  7 26 21 23 59.9950000  0  4G12G20G 9G13
  19263969.9294  -22936375.79047 -17425970.21362
  22557053.7184    -280324.24543
  20817923.2264  -16804351.64246   5543712.62761
  20310119.2494  -20795190.79047   2855252.98961
 90  7 26 21 24 14.9950000  0  4G12G20G 9G13
  19263307.4914  -22939850.34447 -17428677.66963
  22546383.2574    -336388.44142        -0.28171
  20825997.7574  -16761912.89746   5576781.69861
  20313695.5304  -20776393.37547   2869900.30061
 90  7 26 21 24 29.9950000  0  4G12G20G 9G13
  19262676.6714  -22943158.71347 -17431255.64262
  22535718.2104    -392445.52242    -43681.09761
  20834091.1084  -16719375.80446   5609927.40461
  20317278.6404  -20757567.54047   2884569.77461
 90  7 26 21 24 44.9950000  0  4G12G20G 9G13
  19262079.4994  -22946309.64647 -17433710.93263
  22525050.6014    -448503.29842
  20842202.8274  -16676749.27846   5643142.80061
  20320865.1324  -20738722.01547   2899254.58161
 90  7 26 21 24 59.9950000  0  4G12G20G 9G13
  19261509.4294  -22949302.11147 -17436042.73663
  22514376.9994    -504559.41842
  20850329.8434  -16634032.73446   5676428.34561
  20324454.5934  -20719855.82147   2913955.48361
 90  7 26 21 25 14.9950000  0  3G12G 9G13
  19260970.2024  -22952131.54947 -17438247.50262
  20858478.4914  -16591221.83946   5709787.40561
  20328048.2264  -20700964.34247   2928676.09561
 90  7 26 21 25 29.9950000  0  3G12G 9G13
  19260464.3984  -22954796.32547 -17440323.96363
  20866644.1554  -16548315.35746   5743220.94361
  20331648.1244  -20682046.18347   2943417.50361
 90  7 26 21 25 44.9950000  0  3G12G 9G13
  19259989.0154  -22957301.68047 -17442276.20162
  20874827.4374  -16505319.04846   5776724.46861
  20335253.2184  -20663106.97647   2958175.31561
 90  7 26 21 25 59.9950000  0  3G12G 9G13
  19259541.3434  -22959647.76147 -17444104.32863
  20883025.0074  -16462233.41946   5810297.60661
  20338861.1244  -20644146.90847   2972949.37261
 90  7 26 21 26 14.9950000  0  3G12G 9G13
  19259125.4914  -22961834.90447 -17445808.61262
  20891239.3044  -16419059.01646   5843939.91561
  20342472.9214  -20625166.50947   2987739.27761
 90  7 26 21 26 29.9950000  0  3G12G 9G13
  19258738.5694  -22963864.45747 -17447390.09363
  20899470.0464  -16375797.84346   5877649.84461
  20346087.9134  -20606167.24347   3002543.88161
 90  7 26 21 26 44.9950000  0  4G12G20G 9G13
  19258384.4604  -22965729.08547 -17448843.05962
  22439747.3044         -0.05452
  20907721.0624  -16332442.81746   5911432.90361
  20349709.9294  -20587141.91947   3017368.79061
 90  7 26 21 26 59.9950000  0  4G12G20G 9G13
  19258059.6484  -22967429.59747 -17450168.15562
  22429092.3904     -55991.38843
  20915990.3354  -16288994.90446   5945288.33661
  20353335.8434  -20568091.42847   3032213.29361
 90  7 26 21 27 14.9950000  0  4G12G20G 9G13
  19257765.4054  -22968967.54147 -17451366.56663
  22418446.2804    -111971.84943
  20924277.4444  -16245456.12546   5979214.57161
  20356964.1484  -20549017.24047   3047076.27361
 90  7 26 21 27 29.9950000  0  4G12G20G 9G13
  19257505.5774  -22970341.91247 -17452437.52163
  22407797.1084    -167940.94344
  20932580.0774  -16201825.94546   6013212.02761
  20360596.4374  -20529918.78947   3061958.16961
 90  7 26 21 27 44.9950000  0  4G12G20G 9G13
  19257276.7574  -22971554.07447 -17453382.08063
  22397142.6634    -223901.78044
  20940900.0774  -16158105.98046   6047279.44561
  20364236.1714  -20510797.73547   3076857.67061
 90  7 26 21 27 59.9950000  0  4G12G20G 9G13
  19257075.3124  -22972607.66947 -17454203.08163
  22386497.3664    -279858.64944
  20949235.5934  -16114300.26646   6081413.67361
  20367879.0464  -20491657.72347   3091771.95061
 90  7 26 21 28 14.9950000  0  4G12G20G 9G13
  19256905.8044  -22973500.95047 -17454899.15763
  22375846.1404    -335810.11444        -0.42771
  20957586.7734  -16070407.29746   6115615.89561
  20371524.7804  -20472496.87947   3106702.46261
 90  7 26 21 28 29.9950000  0  4G12G20G 9G13
  19256766.6084  -22974232.70047 -17455469.37162
  22365199.9834    -391753.34644    -43592.49561
  20965955.7494  -16026426.43846   6149886.59861
  20375175.6014  -20453314.59347   3121649.67361
 90  7 26 21 28 44.9950000  0  4G12G20G 9G13
  19256657.2414  -22974805.91847 -17455916.05363
  22354558.5694    -447689.53044    -87178.99961
  20974340.3274  -15982360.98446   6184223.23361
  20378828.4914  -20434113.73147   3136611.36661
 90  7 26 21 28 59.9950000  0  4G12G20G 9G13
  19256580.0154  -22975214.38847 -17456234.35862
  22343916.3044    -503612.54345   -130755.30861
  20982742.6874  -15938204.99846   6218630.40561
  20382487.2804  -20414888.26247   3151592.23361
 90  7 26 21 29 14.9950000  0  4G12G20G 9G13
  19256533.1484  -22975462.62247
  22333276.0154    -559526.69545   -174324.69261
  20991162.3744  -15893963.53546   6253104.18161
  20386150.9764  -20395642.60047   3166588.82861
 90  7 26 21 29 29.9950000  0  4G12G20G 9G13
  19256513.7964  -22975553.96647
  22322636.9764    -615434.97245   -217889.51061
  20999598.1794  -15849639.94146   6287641.95961
  20389815.1324  -20376380.27347   3181598.41461
 90  7 26 21 29 44.9950000  0  4G12G20G 9G13
  19256526.7104  -22975484.85047
  22312001.7184    -671334.54245   -261447.52161
  21008049.5544  -15805231.22846   6322246.06761
  20393485.9834  -20357097.68947   3196623.78561
 90  7 26 21 29 59.9950000  0  4G12G20G 9G13
  19256572.1484  -22975258.65247
  22301362.9444    -727226.57245   -304999.65861
  21016514.2184  -15760741.06446   6356913.63661
  20397157.7494  -20337798.50047   3211662.09461
 90  7 26 21 30 14.9950000  0  4G12G20G 9G13
  19256646.2964  -22974866.56147
  22290729.6014    -783101.10645   -348538.19761
  21024999.3824  -15716160.91446   6391651.32261
  20400834.1634  -20318474.09547   3226720.05361
 90  7 26 21 30 29.9950000  0  5G12G20G 3G 9G13
  19256749.6634  -22974315.86547
  22280097.3584    -838965.71445   -392068.95261
  23284100.3124         -0.96654
  21033495.8984  -15671498.69546   6426452.96761
  20404514.2264  -20299131.99847   3241791.80061
 90  7 26 21 30 44.9950000  0  5G12G20G 3G 9G13
  19256883.4214  -22973605.26647        -0.11972
  22269468.0774    -894819.57745   -435591.36261
  23276093.0464     -42089.58645
  21042011.3434  -15626753.25046   6461319.44861
  20408200.4134  -20279770.93647   3256878.32561
 90  7 26 21 30 59.9950000  0  5G12G20G 3G 9G13
  19257051.5934  -22972732.48847       679.94963
  22258839.0624    -950661.86845   -479104.75361
  23268085.1794     -84134.94544
  21050543.1164  -15581922.61046   6496252.32061
  20411888.4914  -20260388.58247   3271981.44161
 90  7 26 21 31 14.9950000  0  5G12G20G 3G 9G13
  19257245.9214  -22971699.39247      1484.93762
  22248221.0234   -1006494.77445   -522610.85361
  23260089.7414    -126138.84843
  21059091.8434  -15537008.98646   6531249.85161
  20415580.9914  -20240987.01747   3287099.52161
 90  7 26 21 31 29.9950000  0  5G12G20G 3G 9G13
  19257475.1014  -22970505.76247      2415.01763
  22237603.0694   -1062318.28045   -566109.59761
  23252108.2734    -168101.11543
  21067654.0304  -15492012.48146   6566311.96661
  20419275.8124  -20221565.92847   3302232.81861
 90  7 26 21 31 44.9950000  0  5G12G20G 3G 9G13
  19257733.1634  -22969148.27847      3472.77863
  22226976.5624   -1118129.03945   -609598.42161
  23244135.2884    -210018.49642        -0.22071
  21076231.3514  -15446930.25046   6601440.88961
  20422975.5774  -20202122.24647   3317383.70961
 90  7 26 21 31 59.9950000  0  5G12G20G 3G 9G13
  19258022.1634  -22967632.97947      4653.50862
  22216356.5234   -1173933.18645   -653082.07061
  23236162.7494    -251896.80043    -32632.58161
  21084825.7184  -15401768.59946   6636631.68761
  20426678.8354  -20182662.13147   3332547.41161
 90  7 26 21 32 14.9950000  0  5G12G20G 3G 9G13
  19258340.1164  -22965957.57047      5958.99863
  22205739.6404   -1229728.57245   -696558.92761
  23228203.8274    -293733.84543    -65232.77461
  21093435.5464  -15356525.62746   6671885.85661
  20430384.3274  -20163183.38947   3347725.63361
 90  7 26 21 32 29.9950000  0  5G12G20G 3G 9G13
  19258689.4684  -22964120.70347      7390.30463
  22195124.8744   -1285515.84345   -740029.47961
  23220253.4134    -335528.33443    -97799.77361
  21102061.1554  -15311200.11346   6707204.34561
  20434096.8984  -20143684.69947   3362919.39561
